<?xml version="1.0" encoding="UTF-8" standalone="no" ?><gpx xmlns="http://www.topografix.com/GPX/1/1" xmlns:gpxx="http://www.garmin.com/xmlschemas/GpxExtensions/v3" xmlns:wptx1="http://www.garmin.com/xmlschemas/WaypointExtension/v1" xmlns:gpxtpx="http://www.garmin.com/xmlschemas/TrackPointExtension/v1" creator="GPSMAP 62s" version="1.1" xmlns:xsi="http://www.w3.org/2001/XMLSchema-instance" xsi:schemaLocation="http://www.topografix.com/GPX/1/1 http://www.topografix.com/GPX/1/1/gpx.xsd http://www.garmin.com/xmlschemas/GpxExtensions/v3 http://www8.garmin.com/xmlschemas/GpxExtensionsv3.xsd http://www.garmin.com/xmlschemas/WaypointExtension/v1 http://www8.garmin.com/xmlschemas/WaypointExtensionv1.xsd http://www.garmin.com/xmlschemas/TrackPointExtension/v1 http://www.garmin.com/xmlschemas/TrackPointExtensionv1.xsd"><metadata><link href="http://www.garmin.com"><text>Garmin International</text></link><time>1999-08-27T09:31:57Z</time></metadata><trk><name>Current Track: 06 APR 2012 07:12</name><extensions><gpxx:TrackExtension><gpxx:DisplayColor>Blue</gpxx:DisplayColor></gpxx:TrackExtension></extensions><trkseg><trkpt lat="31.8096753303" lon="35.0204410404"><ele>314.97</ele><time>2012-04-06T04:12:42Z</time></trkpt><trkpt lat="31.8096770905" lon="35.0204481650"><ele>314.01</ele><time>2012-04-06T04:13:03Z</time></trkpt><trkpt lat="31.8096843828" lon="35.0204487517"><ele>314.01</ele><time>2012-04-06T04:13:23Z</time></trkpt><trkpt lat="31.8096839637" lon="35.0204640068"><ele>314.49</ele><time>2012-04-06T04:13:48Z</time></trkpt><trkpt lat="31.8096861430" lon="35.0204634201"><ele>314.49</ele><time>2012-04-06T04:14:14Z</time></trkpt><trkpt lat="31.8096632604" lon="35.0204535294"><ele>314.01</ele><time>2012-04-06T04:14:41Z</time></trkpt><trkpt lat="31.8096557166" lon="35.0204558764"><ele>314.49</ele><time>2012-04-06T04:15:11Z</time></trkpt><trkpt lat="31.8096526153" lon="35.0204497576"><ele>314.49</ele><time>2012-04-06T04:15:39Z</time></trkpt><trkpt lat="31.8096454907" lon="35.0204433035"><ele>314.01</ele><time>2012-04-06T04:16:07Z</time></trkpt><trkpt lat="31.8096393719" lon="35.0204468239"><ele>314.01</ele><time>2012-04-06T04:16:33Z</time></trkpt><trkpt lat="31.8096411321" lon="35.0204495061"><ele>314.01</ele><time>2012-04-06T04:17:06Z</time></trkpt><trkpt lat="31.8096353486" lon="35.0204408728"><ele>314.01</ele><time>2012-04-06T04:17:36Z</time></trkpt><trkpt lat="31.8096339237" lon="35.0204410404"><ele>314.01</ele><time>2012-04-06T04:18:09Z</time></trkpt><trkpt lat="31.8096377794" lon="35.0204407051"><ele>314.01</ele><time>2012-04-06T04:18:40Z</time></trkpt><trkpt lat="31.8096284755" lon="35.0204289705"><ele>314.01</ele><time>2012-04-06T04:19:06Z</time></trkpt><trkpt lat="31.8096286431" lon="35.0204264559"><ele>313.53</ele><time>2012-04-06T04:19:39Z</time></trkpt><trkpt lat="31.8096239492" lon="35.0204385258"><ele>313.53</ele><time>2012-04-06T04:20:12Z</time></trkpt><trkpt lat="31.8096266314" lon="35.0204492547"><ele>313.53</ele><time>2012-04-06T04:20:41Z</time></trkpt><trkpt lat="31.8096208479" lon="35.0204413757"><ele>313.53</ele><time>2012-04-06T04:21:07Z</time></trkpt><trkpt lat="31.8096252065" lon="35.0204387773"><ele>313.53</ele><time>2012-04-06T04:21:35Z</time></trkpt><trkpt lat="31.8096297327" lon="35.0204079319"><ele>313.05</ele><time>2012-04-06T04:21:51Z</time></trkpt><trkpt lat="31.8096184172" lon="35.0204263721"><ele>313.05</ele><time>2012-04-06T04:22:09Z</time></trkpt><trkpt lat="31.8096169084" lon="35.0204279646"><ele>312.57</ele><time>2012-04-06T04:22:34Z</time></trkpt><trkpt lat="31.8096133880" lon="35.0204222649"><ele>312.57</ele><time>2012-04-06T04:23:01Z</time></trkpt><trkpt lat="31.8096208479" lon="35.0204262882"><ele>313.05</ele><time>2012-04-06T04:23:28Z</time></trkpt><trkpt lat="31.8096260447" lon="35.0204294734"><ele>312.57</ele><time>2012-04-06T04:23:52Z</time></trkpt><trkpt lat="31.8096356001" lon="35.0204197504"><ele>312.57</ele><time>2012-04-06T04:24:21Z</time></trkpt><trkpt lat="31.8096394558" lon="35.0204148889"><ele>312.57</ele><time>2012-04-06T04:24:49Z</time></trkpt><trkpt lat="31.8096293136" lon="35.0204131287"><ele>312.57</ele><time>2012-04-06T04:25:17Z</time></trkpt><trkpt lat="31.8096241169" lon="35.0204230193"><ele>312.57</ele><time>2012-04-06T04:25:44Z</time></trkpt><trkpt lat="31.8096287269" lon="35.0204132125"><ele>312.57</ele><time>2012-04-06T04:26:14Z</time></trkpt><trkpt lat="31.8096308224" lon="35.0204125419"><ele>312.57</ele><time>2012-04-06T04:26:42Z</time></trkpt><trkpt lat="31.8096190877" lon="35.0204024836"><ele>312.09</ele><time>2012-04-06T04:27:16Z</time></trkpt><trkpt lat="31.8096181657" lon="35.0204043277"><ele>312.09</ele><time>2012-04-06T04:27:43Z</time></trkpt><trkpt lat="31.8096218538" lon="35.0204128772"><ele>312.09</ele><time>2012-04-06T04:28:13Z</time></trkpt><trkpt lat="31.8096204288" lon="35.0204157270"><ele>312.09</ele><time>2012-04-06T04:28:33Z</time></trkpt><trkpt lat="31.8096242845" lon="35.0204117876"><ele>312.09</ele><time>2012-04-06T04:28:50Z</time></trkpt><trkpt lat="31.8096361868" lon="35.0204055849"><ele>312.09</ele><time>2012-04-06T04:29:18Z</time></trkpt><trkpt lat="31.8096390367" lon="35.0204056688"><ele>312.09</ele><time>2012-04-06T04:29:30Z</time></trkpt><trkpt lat="31.8096052576" lon="35.0202101190"><ele>311.60</ele><time>2012-04-06T04:29:42Z</time></trkpt><trkpt lat="31.8095087819" lon="35.0199152436"><ele>311.12</ele><time>2012-04-06T04:29:56Z</time></trkpt><trkpt lat="31.8096152321" lon="35.0195006747"><ele>309.68</ele><time>2012-04-06T04:30:09Z</time></trkpt><trkpt lat="31.8096698821" lon="35.0192850083"><ele>309.20</ele><time>2012-04-06T04:30:17Z</time></trkpt><trkpt lat="31.8096015695" lon="35.0191396661"><ele>309.68</ele><time>2012-04-06T04:30:22Z</time></trkpt><trkpt lat="31.8096209317" lon="35.0190949067"><ele>308.72</ele><time>2012-04-06T04:30:33Z</time></trkpt><trkpt lat="31.8096250389" lon="35.0190902967"><ele>308.72</ele><time>2012-04-06T04:30:44Z</time></trkpt><trkpt lat="31.8096596561" lon="35.0190338865"><ele>308.24</ele><time>2012-04-06T04:30:48Z</time></trkpt><trkpt lat="31.8096922617" lon="35.0188938249"><ele>306.32</ele><time>2012-04-06T04:30:56Z</time></trkpt><trkpt lat="31.8098475784" lon="35.0189131033"><ele>305.36</ele><time>2012-04-06T04:31:04Z</time></trkpt><trkpt lat="31.8101122789" lon="35.0190817472"><ele>306.80</ele><time>2012-04-06T04:31:17Z</time></trkpt><trkpt lat="31.8103291187" lon="35.0192542467"><ele>307.28</ele><time>2012-04-06T04:31:28Z</time></trkpt><trkpt lat="31.8105760496" lon="35.0194562506"><ele>309.68</ele><time>2012-04-06T04:31:43Z</time></trkpt><trkpt lat="31.8107570987" lon="35.0196046103"><ele>310.64</ele><time>2012-04-06T04:31:55Z</time></trkpt><trkpt lat="31.8109795544" lon="35.0197929516"><ele>312.09</ele><time>2012-04-06T04:32:09Z</time></trkpt><trkpt lat="31.8111711647" lon="35.0199916027"><ele>313.05</ele><time>2012-04-06T04:32:22Z</time></trkpt><trkpt lat="31.8114190176" lon="35.0202026591"><ele>314.49</ele><time>2012-04-06T04:32:36Z</time></trkpt><trkpt lat="31.8116782699" lon="35.0203920063"><ele>316.41</ele><time>2012-04-06T04:32:51Z</time></trkpt><trkpt lat="31.8117872346" lon="35.0204802677"><ele>317.85</ele><time>2012-04-06T04:32:59Z</time></trkpt><trkpt lat="31.8118667789" lon="35.0204185769"><ele>318.81</ele><time>2012-04-06T04:33:06Z</time></trkpt><trkpt lat="31.8118446507" lon="35.0200501923"><ele>320.74</ele><time>2012-04-06T04:33:23Z</time></trkpt><trkpt lat="31.8118937686" lon="35.0197243877"><ele>323.14</ele><time>2012-04-06T04:33:39Z</time></trkpt><trkpt lat="31.8119849637" lon="35.0193762872"><ele>325.54</ele><time>2012-04-06T04:33:55Z</time></trkpt><trkpt lat="31.8120763265" lon="35.0190616306"><ele>327.47</ele><time>2012-04-06T04:34:11Z</time></trkpt><trkpt lat="31.8122142088" lon="35.0187140331"><ele>327.95</ele><time>2012-04-06T04:34:27Z</time></trkpt><trkpt lat="31.8124380056" lon="35.0186610594"><ele>329.87</ele><time>2012-04-06T04:34:41Z</time></trkpt><trkpt lat="31.8125139456" lon="35.0186927430"><ele>331.31</ele><time>2012-04-06T04:34:47Z</time></trkpt><trkpt lat="31.8125560228" lon="35.0187330600"><ele>332.27</ele><time>2012-04-06T04:34:51Z</time></trkpt><trkpt lat="31.8125855271" lon="35.0187411066"><ele>332.27</ele><time>2012-04-06T04:34:53Z</time></trkpt><trkpt lat="31.8126842659" lon="35.0188012049"><ele>334.20</ele><time>2012-04-06T04:35:01Z</time></trkpt><trkpt lat="31.8127548415" lon="35.0188496523"><ele>334.68</ele><time>2012-04-06T04:35:07Z</time></trkpt><trkpt lat="31.8129846733" lon="35.0189377461"><ele>336.60</ele><time>2012-04-06T04:35:24Z</time></trkpt><trkpt lat="31.8131813128" lon="35.0189425237"><ele>339.48</ele><time>2012-04-06T04:35:39Z</time></trkpt><trkpt lat="31.8132430036" lon="35.0189276040"><ele>339.96</ele><time>2012-04-06T04:35:44Z</time></trkpt><trkpt lat="31.8132922053" lon="35.0189203955"><ele>340.92</ele><time>2012-04-06T04:35:48Z</time></trkpt><trkpt lat="31.8133689836" lon="35.0189053919"><ele>342.37</ele><time>2012-04-06T04:35:54Z</time></trkpt><trkpt lat="31.8134941254" lon="35.0188840181"><ele>343.81</ele><time>2012-04-06T04:36:04Z</time></trkpt><trkpt lat="31.8136135675" lon="35.0188683439"><ele>345.25</ele><time>2012-04-06T04:36:13Z</time></trkpt><trkpt lat="31.8136817962" lon="35.0188742951"><ele>346.21</ele><time>2012-04-06T04:36:18Z</time></trkpt><trkpt lat="31.8137867376" lon="35.0188777316"><ele>347.65</ele><time>2012-04-06T04:36:26Z</time></trkpt><trkpt lat="31.8140052538" lon="35.0188759714"><ele>349.10</ele><time>2012-04-06T04:36:42Z</time></trkpt><trkpt lat="31.8142464012" lon="35.0188561063"><ele>350.54</ele><time>2012-04-06T04:36:56Z</time></trkpt><trkpt lat="31.8144803401" lon="35.0188561901"><ele>351.50</ele><time>2012-04-06T04:37:10Z</time></trkpt><trkpt lat="31.8145571183" lon="35.0188727025"><ele>351.98</ele><time>2012-04-06T04:37:15Z</time></trkpt><trkpt lat="31.8148020376" lon="35.0188829284"><ele>352.46</ele><time>2012-04-06T04:37:32Z</time></trkpt><trkpt lat="31.8148494791" lon="35.0188998599"><ele>352.46</ele><time>2012-04-06T04:37:35Z</time></trkpt><trkpt lat="31.8150170334" lon="35.0188671704"><ele>351.98</ele><time>2012-04-06T04:37:50Z</time></trkpt><trkpt lat="31.8150176201" lon="35.0188701041"><ele>351.98</ele><time>2012-04-06T04:37:51Z</time></trkpt><trkpt lat="31.8149819970" lon="35.0188510772"><ele>351.50</ele><time>2012-04-06T04:38:02Z</time></trkpt><trkpt lat="31.8149705976" lon="35.0188487303"><ele>351.98</ele><time>2012-04-06T04:38:27Z</time></trkpt><trkpt lat="31.8149686698" lon="35.0188425276"><ele>351.50</ele><time>2012-04-06T04:38:56Z</time></trkpt><trkpt lat="31.8149683345" lon="35.0188448746"><ele>351.50</ele><time>2012-04-06T04:39:16Z</time></trkpt><trkpt lat="31.8149734475" lon="35.0188483950"><ele>351.50</ele><time>2012-04-06T04:39:39Z</time></trkpt><trkpt lat="31.8148468807" lon="35.0188862812"><ele>351.98</ele><time>2012-04-06T04:39:48Z</time></trkpt><trkpt lat="31.8147462141" lon="35.0188141130"><ele>352.46</ele><time>2012-04-06T04:39:57Z</time></trkpt><trkpt lat="31.8146811705" lon="35.0188875385"><ele>352.46</ele><time>2012-04-06T04:40:09Z</time></trkpt><trkpt lat="31.8146793265" lon="35.0188867841"><ele>352.46</ele><time>2012-04-06T04:40:33Z</time></trkpt><trkpt lat="31.8146790750" lon="35.0188900530"><ele>352.94</ele><time>2012-04-06T04:40:50Z</time></trkpt><trkpt lat="31.8146720342" lon="35.0189110078"><ele>351.98</ele><time>2012-04-06T04:41:18Z</time></trkpt><trkpt lat="31.8146665022" lon="35.0189107563"><ele>352.46</ele><time>2012-04-06T04:41:59Z</time></trkpt><trkpt lat="31.8146654963" lon="35.0189196412"><ele>351.98</ele><time>2012-04-06T04:42:39Z</time></trkpt><trkpt lat="31.8146753032" lon="35.0189249218"><ele>352.46</ele><time>2012-04-06T04:43:26Z</time></trkpt><trkpt lat="31.8146814220" lon="35.0189219043"><ele>352.46</ele><time>2012-04-06T04:44:04Z</time></trkpt><trkpt lat="31.8147117645" lon="35.0188851077"><ele>352.94</ele><time>2012-04-06T04:44:27Z</time></trkpt><trkpt lat="31.8147298694" lon="35.0188789889"><ele>353.42</ele><time>2012-04-06T04:44:46Z</time></trkpt><trkpt lat="31.8147288635" lon="35.0188759714"><ele>353.42</ele><time>2012-04-06T04:45:02Z</time></trkpt><trkpt lat="31.8148093298" lon="35.0188036356"><ele>352.94</ele><time>2012-04-06T04:45:10Z</time></trkpt><trkpt lat="31.8149327952" lon="35.0186365843"><ele>353.42</ele><time>2012-04-06T04:45:23Z</time></trkpt><trkpt lat="31.8151452765" lon="35.0185298827"><ele>353.42</ele><time>2012-04-06T04:45:35Z</time></trkpt><trkpt lat="31.8154822290" lon="35.0183871388"><ele>352.94</ele><time>2012-04-06T04:45:49Z</time></trkpt><trkpt lat="31.8155644555" lon="35.0183111150"><ele>352.94</ele><time>2012-04-06T04:45:53Z</time></trkpt><trkpt lat="31.8155564927" lon="35.0181950256"><ele>353.42</ele><time>2012-04-06T04:45:58Z</time></trkpt><trkpt lat="31.8154057860" lon="35.0178670418"><ele>354.86</ele><time>2012-04-06T04:46:11Z</time></trkpt><trkpt lat="31.8152417522" lon="35.0175548997"><ele>355.83</ele><time>2012-04-06T04:46:23Z</time></trkpt><trkpt lat="31.8150816578" lon="35.0172140915"><ele>357.75</ele><time>2012-04-06T04:46:36Z</time></trkpt><trkpt lat="31.8150850106" lon="35.0166499056"><ele>358.23</ele><time>2012-04-06T04:46:51Z</time></trkpt><trkpt lat="31.8151433486" lon="35.0161104463"><ele>358.71</ele><time>2012-04-06T04:47:05Z</time></trkpt><trkpt lat="31.8152451888" lon="35.0154543109"><ele>358.23</ele><time>2012-04-06T04:47:21Z</time></trkpt><trkpt lat="31.8153762817" lon="35.0148337986"><ele>360.15</ele><time>2012-04-06T04:47:37Z</time></trkpt><trkpt lat="31.8156343605" lon="35.0143184792"><ele>358.23</ele><time>2012-04-06T04:47:50Z</time></trkpt><trkpt lat="31.8156569079" lon="35.0142655056"><ele>358.23</ele><time>2012-04-06T04:47:51Z</time></trkpt><trkpt lat="31.8156753480" lon="35.0142119452"><ele>358.23</ele><time>2012-04-06T04:47:52Z</time></trkpt><trkpt lat="31.8157512881" lon="35.0137144793"><ele>359.19</ele><time>2012-04-06T04:48:04Z</time></trkpt><trkpt lat="31.8157982267" lon="35.0135579053"><ele>359.67</ele><time>2012-04-06T04:48:11Z</time></trkpt><trkpt lat="31.8158061057" lon="35.0135427341"><ele>359.67</ele><time>2012-04-06T04:48:22Z</time></trkpt><trkpt lat="31.8158120569" lon="35.0135364477"><ele>359.67</ele><time>2012-04-06T04:48:50Z</time></trkpt><trkpt lat="31.8158135656" lon="35.0135378726"><ele>359.67</ele><time>2012-04-06T04:49:11Z</time></trkpt><trkpt lat="31.8158145715" lon="35.0135366991"><ele>360.15</ele><time>2012-04-06T04:49:13Z</time></trkpt><trkpt lat="31.8158258870" lon="35.0135204382"><ele>359.67</ele><time>2012-04-06T04:49:14Z</time></trkpt><trkpt lat="31.8159320019" lon="35.0133588351"><ele>358.71</ele><time>2012-04-06T04:49:20Z</time></trkpt><trkpt lat="31.8159967940" lon="35.0132322684"><ele>357.75</ele><time>2012-04-06T04:49:23Z</time></trkpt><trkpt lat="31.8160112947" lon="35.0131859165"><ele>358.23</ele><time>2012-04-06T04:49:24Z</time></trkpt><trkpt lat="31.8160278071" lon="35.0131481979"><ele>358.23</ele><time>2012-04-06T04:49:25Z</time></trkpt><trkpt lat="31.8160488456" lon="35.0131024327"><ele>357.75</ele><time>2012-04-06T04:49:26Z</time></trkpt><trkpt lat="31.8160657771" lon="35.0130463578"><ele>357.27</ele><time>2012-04-06T04:49:27Z</time></trkpt><trkpt lat="31.8161175773" lon="35.0128705055"><ele>356.79</ele><time>2012-04-06T04:49:30Z</time></trkpt><trkpt lat="31.8161428906" lon="35.0127410889"><ele>356.31</ele><time>2012-04-06T04:49:32Z</time></trkpt><trkpt lat="31.8162352592" lon="35.0120471511"><ele>353.42</ele><time>2012-04-06T04:49:42Z</time></trkpt><trkpt lat="31.8162495084" lon="35.0119713787"><ele>353.42</ele><time>2012-04-06T04:49:43Z</time></trkpt><trkpt lat="31.8162653502" lon="35.0118927564"><ele>353.42</ele><time>2012-04-06T04:49:44Z</time></trkpt><trkpt lat="31.8162968662" lon="35.0118173193"><ele>352.46</ele><time>2012-04-06T04:49:45Z</time></trkpt><trkpt lat="31.8163360935" lon="35.0117538683"><ele>352.94</ele><time>2012-04-06T04:49:46Z</time></trkpt><trkpt lat="31.8163764104" lon="35.0116995536"><ele>352.94</ele><time>2012-04-06T04:49:47Z</time></trkpt><trkpt lat="31.8164178170" lon="35.0116507709"><ele>352.94</ele><time>2012-04-06T04:49:48Z</time></trkpt><trkpt lat="31.8164551165" lon="35.0116081070"><ele>352.94</ele><time>2012-04-06T04:49:49Z</time></trkpt><trkpt lat="31.8166623171" lon="35.0112657901"><ele>353.42</ele><time>2012-04-06T04:49:57Z</time></trkpt><trkpt lat="31.8166862056" lon="35.0111662131"><ele>352.94</ele><time>2012-04-06T04:49:59Z</time></trkpt><trkpt lat="31.8166950066" lon="35.0111116469"><ele>352.94</ele><time>2012-04-06T04:50:00Z</time></trkpt><trkpt lat="31.8167556915" lon="35.0108262431"><ele>351.98</ele><time>2012-04-06T04:50:05Z</time></trkpt><trkpt lat="31.8167817593" lon="35.0106389914"><ele>351.50</ele><time>2012-04-06T04:50:08Z</time></trkpt><trkpt lat="31.8167884648" lon="35.0104711857"><ele>350.06</ele><time>2012-04-06T04:50:11Z</time></trkpt><trkpt lat="31.8167514168" lon="35.0099701993"><ele>346.69</ele><time>2012-04-06T04:50:18Z</time></trkpt><trkpt lat="31.8167494051" lon="35.0096128788"><ele>343.33</ele><time>2012-04-06T04:50:22Z</time></trkpt><trkpt lat="31.8167395145" lon="35.0094665308"><ele>341.41</ele><time>2012-04-06T04:50:25Z</time></trkpt><trkpt lat="31.8167390116" lon="35.0094429776"><ele>340.92</ele><time>2012-04-06T04:50:32Z</time></trkpt><trkpt lat="31.8167539313" lon="35.0094358530"><ele>341.41</ele><time>2012-04-06T04:51:07Z</time></trkpt><trkpt lat="31.8167543504" lon="35.0094308238"><ele>340.92</ele><time>2012-04-06T04:51:18Z</time></trkpt><trkpt lat="31.8167569488" lon="35.0094083603"><ele>341.41</ele><time>2012-04-06T04:51:19Z</time></trkpt><trkpt lat="31.8167805020" lon="35.0091552269"><ele>339.48</ele><time>2012-04-06T04:51:25Z</time></trkpt><trkpt lat="31.8168284465" lon="35.0088051148"><ele>339.00</ele><time>2012-04-06T04:51:30Z</time></trkpt><trkpt lat="31.8168629799" lon="35.0086717587"><ele>338.52</ele><time>2012-04-06T04:51:32Z</time></trkpt><trkpt lat="31.8170305341" lon="35.0082543399"><ele>339.96</ele><time>2012-04-06T04:51:39Z</time></trkpt><trkpt lat="31.8170580268" lon="35.0081956666"><ele>339.96</ele><time>2012-04-06T04:51:40Z</time></trkpt><trkpt lat="31.8173030298" lon="35.0077862106"><ele>340.92</ele><time>2012-04-06T04:51:48Z</time></trkpt><trkpt lat="31.8173273373" lon="35.0077339076"><ele>341.41</ele><time>2012-04-06T04:51:49Z</time></trkpt><trkpt lat="31.8174119107" lon="35.0075335801"><ele>341.41</ele><time>2012-04-06T04:51:53Z</time></trkpt><trkpt lat="31.8178243004" lon="35.0069534685"><ele>341.89</ele><time>2012-04-06T04:52:05Z</time></trkpt><trkpt lat="31.8178548105" lon="35.0069121458"><ele>341.89</ele><time>2012-04-06T04:52:06Z</time></trkpt><trkpt lat="31.8181684613" lon="35.0065342896"><ele>343.33</ele><time>2012-04-06T04:52:17Z</time></trkpt><trkpt lat="31.8185839523" lon="35.0061324611"><ele>344.77</ele><time>2012-04-06T04:52:31Z</time></trkpt><trkpt lat="31.8187694438" lon="35.0058623962"><ele>344.29</ele><time>2012-04-06T04:52:42Z</time></trkpt><trkpt lat="31.8187751435" lon="35.0055662636"><ele>342.37</ele><time>2012-04-06T04:52:51Z</time></trkpt><trkpt lat="31.8187761493" lon="35.0055160560"><ele>341.89</ele><time>2012-04-06T04:52:52Z</time></trkpt><trkpt lat="31.8187797535" lon="35.0054598134"><ele>341.41</ele><time>2012-04-06T04:52:53Z</time></trkpt><trkpt lat="31.8187816814" lon="35.0053999666"><ele>340.92</ele><time>2012-04-06T04:52:54Z</time></trkpt><trkpt lat="31.8187989481" lon="35.0051692128"><ele>339.48</ele><time>2012-04-06T04:52:58Z</time></trkpt><trkpt lat="31.8188155442" lon="35.0049843080"><ele>338.04</ele><time>2012-04-06T04:53:01Z</time></trkpt><trkpt lat="31.8188275304" lon="35.0049216952"><ele>337.08</ele><time>2012-04-06T04:53:02Z</time></trkpt><trkpt lat="31.8188764807" lon="35.0046455115"><ele>334.20</ele><time>2012-04-06T04:53:06Z</time></trkpt><trkpt lat="31.8188908137" lon="35.0045700744"><ele>333.71</ele><time>2012-04-06T04:53:07Z</time></trkpt><trkpt lat="31.8189424463" lon="35.0042575970"><ele>329.87</ele><time>2012-04-06T04:53:11Z</time></trkpt><trkpt lat="31.8189788237" lon="35.0040131807"><ele>326.99</ele><time>2012-04-06T04:53:14Z</time></trkpt><trkpt lat="31.8189881276" lon="35.0039384142"><ele>326.99</ele><time>2012-04-06T04:53:15Z</time></trkpt><trkpt lat="31.8190333061" lon="35.0036450475"><ele>323.62</ele><time>2012-04-06T04:53:19Z</time></trkpt><trkpt lat="31.8190550152" lon="35.0035042316"><ele>321.70</ele><time>2012-04-06T04:53:21Z</time></trkpt><trkpt lat="31.8190986011" lon="35.0032032374"><ele>318.33</ele><time>2012-04-06T04:53:25Z</time></trkpt><trkpt lat="31.8191537540" lon="35.0028416421"><ele>314.49</ele><time>2012-04-06T04:53:30Z</time></trkpt><trkpt lat="31.8191607110" lon="35.0027721561"><ele>314.49</ele><time>2012-04-06T04:53:31Z</time></trkpt><trkpt lat="31.8191986810" lon="35.0024591759"><ele>310.64</ele><time>2012-04-06T04:53:35Z</time></trkpt><trkpt lat="31.8192338012" lon="35.0021416694"><ele>306.80</ele><time>2012-04-06T04:53:39Z</time></trkpt><trkpt lat="31.8192452006" lon="35.0019512326"><ele>304.88</ele><time>2012-04-06T04:53:42Z</time></trkpt><trkpt lat="31.8192534987" lon="35.0016981829"><ele>301.99</ele><time>2012-04-06T04:53:46Z</time></trkpt><trkpt lat="31.8192524929" lon="35.0016385037"><ele>301.03</ele><time>2012-04-06T04:53:47Z</time></trkpt><trkpt lat="31.8192549236" lon="35.0015794113"><ele>301.03</ele><time>2012-04-06T04:53:48Z</time></trkpt><trkpt lat="31.8192595337" lon="35.0015218277"><ele>300.07</ele><time>2012-04-06T04:53:49Z</time></trkpt><trkpt lat="31.8192653172" lon="35.0014596339"><ele>299.11</ele><time>2012-04-06T04:53:50Z</time></trkpt><trkpt lat="31.8192754593" lon="35.0013407785"><ele>298.63</ele><time>2012-04-06T04:53:52Z</time></trkpt><trkpt lat="31.8192784768" lon="35.0012870505"><ele>297.67</ele><time>2012-04-06T04:53:53Z</time></trkpt><trkpt lat="31.8193210568" lon="35.0009387825"><ele>293.82</ele><time>2012-04-06T04:53:59Z</time></trkpt><trkpt lat="31.8193287682" lon="35.0008780137"><ele>293.34</ele><time>2012-04-06T04:54:00Z</time></trkpt><trkpt lat="31.8193322048" lon="35.0006219465"><ele>289.97</ele><time>2012-04-06T04:54:04Z</time></trkpt><trkpt lat="31.8193356413" lon="35.0004310906"><ele>287.57</ele><time>2012-04-06T04:54:07Z</time></trkpt><trkpt lat="31.8193307798" lon="35.0003677234"><ele>286.61</ele><time>2012-04-06T04:54:08Z</time></trkpt><trkpt lat="31.8193195481" lon="35.0003020093"><ele>285.65</ele><time>2012-04-06T04:54:09Z</time></trkpt><trkpt lat="31.8193016946" lon="35.0002368819"><ele>285.17</ele><time>2012-04-06T04:54:10Z</time></trkpt><trkpt lat="31.8192789797" lon="35.0001725927"><ele>284.21</ele><time>2012-04-06T04:54:11Z</time></trkpt><trkpt lat="31.8192132656" lon="34.9999708403"><ele>282.28</ele><time>2012-04-06T04:54:14Z</time></trkpt><trkpt lat="31.8191985972" lon="34.9999030307"><ele>281.32</ele><time>2012-04-06T04:54:15Z</time></trkpt><trkpt lat="31.8191908021" lon="34.9998363946"><ele>280.84</ele><time>2012-04-06T04:54:16Z</time></trkpt><trkpt lat="31.8191870302" lon="34.9997040443"><ele>279.40</ele><time>2012-04-06T04:54:18Z</time></trkpt><trkpt lat="31.8191959150" lon="34.9996381626"><ele>279.40</ele><time>2012-04-06T04:54:19Z</time></trkpt><trkpt lat="31.8192123435" lon="34.9995721132"><ele>278.92</ele><time>2012-04-06T04:54:20Z</time></trkpt><trkpt lat="31.8192379083" lon="34.9995095842"><ele>278.44</ele><time>2012-04-06T04:54:21Z</time></trkpt><trkpt lat="31.8192675803" lon="34.9994517490"><ele>278.44</ele><time>2012-04-06T04:54:22Z</time></trkpt><trkpt lat="31.8193008564" lon="34.9993965961"><ele>277.48</ele><time>2012-04-06T04:54:23Z</time></trkpt><trkpt lat="31.8194582686" lon="34.9991481565"><ele>277.00</ele><time>2012-04-06T04:54:28Z</time></trkpt><trkpt lat="31.8194832467" lon="34.9991090968"><ele>276.52</ele><time>2012-04-06T04:54:29Z</time></trkpt><trkpt lat="31.8195773754" lon="34.9988707993"><ele>274.59</ele><time>2012-04-06T04:54:38Z</time></trkpt><trkpt lat="31.8195903674" lon="34.9988630880"><ele>275.07</ele><time>2012-04-06T04:54:39Z</time></trkpt><trkpt lat="31.8196750246" lon="34.9987930153"><ele>274.11</ele><time>2012-04-06T04:54:47Z</time></trkpt><trkpt lat="31.8197856657" lon="34.9987405445"><ele>273.15</ele><time>2012-04-06T04:54:50Z</time></trkpt><trkpt lat="31.8198314309" lon="34.9987335037"><ele>272.67</ele><time>2012-04-06T04:54:51Z</time></trkpt><trkpt lat="31.8198751844" lon="34.9987373594"><ele>272.67</ele><time>2012-04-06T04:54:52Z</time></trkpt><trkpt lat="31.8199139088" lon="34.9987549614"><ele>273.15</ele><time>2012-04-06T04:54:53Z</time></trkpt><trkpt lat="31.8199452572" lon="34.9987792689"><ele>272.67</ele><time>2012-04-06T04:54:54Z</time></trkpt><trkpt lat="31.8201475963" lon="34.9989302270"><ele>274.11</ele><time>2012-04-06T04:55:04Z</time></trkpt><trkpt lat="31.8203034997" lon="34.9991603103"><ele>277.48</ele><time>2012-04-06T04:55:14Z</time></trkpt><trkpt lat="31.8203556351" lon="34.9992747232"><ele>278.44</ele><time>2012-04-06T04:55:19Z</time></trkpt><trkpt lat="31.8203676213" lon="34.9992936663"><ele>278.44</ele><time>2012-04-06T04:55:20Z</time></trkpt><trkpt lat="31.8203821220" lon="34.9993121903"><ele>278.44</ele><time>2012-04-06T04:55:21Z</time></trkpt><trkpt lat="31.8203985505" lon="34.9993280321"><ele>278.92</ele><time>2012-04-06T04:55:22Z</time></trkpt><trkpt lat="31.8204186670" lon="34.9993406888"><ele>278.44</ele><time>2012-04-06T04:55:23Z</time></trkpt><trkpt lat="31.8204383645" lon="34.9993517529"><ele>278.44</ele><time>2012-04-06T04:55:24Z</time></trkpt><trkpt lat="31.8204562180" lon="34.9993638229"><ele>278.92</ele><time>2012-04-06T04:55:25Z</time></trkpt><trkpt lat="31.8204737362" lon="34.9993787427"><ele>278.92</ele><time>2012-04-06T04:55:26Z</time></trkpt><trkpt lat="31.8204934336" lon="34.9993923213"><ele>278.44</ele><time>2012-04-06T04:55:27Z</time></trkpt><trkpt lat="31.8205122091" lon="34.9994046427"><ele>278.92</ele><time>2012-04-06T04:55:28Z</time></trkpt><trkpt lat="31.8205317389" lon="34.9994153716"><ele>278.92</ele><time>2012-04-06T04:55:29Z</time></trkpt><trkpt lat="31.8205487542" lon="34.9994292017"><ele>278.44</ele><time>2012-04-06T04:55:30Z</time></trkpt><trkpt lat="31.8205791805" lon="34.9994406011"><ele>278.44</ele><time>2012-04-06T04:55:32Z</time></trkpt><trkpt lat="31.8206766620" lon="34.9994408526"><ele>278.44</ele><time>2012-04-06T04:55:39Z</time></trkpt><trkpt lat="31.8207214214" lon="34.9994181376"><ele>277.96</ele><time>2012-04-06T04:55:53Z</time></trkpt><trkpt lat="31.8208042346" lon="34.9993926566"><ele>277.48</ele><time>2012-04-06T04:56:16Z</time></trkpt><trkpt lat="31.8208021391" lon="34.9993671756"><ele>277.00</ele><time>2012-04-06T04:56:56Z</time></trkpt><trkpt lat="31.8209288735" lon="34.9992916547"><ele>275.07</ele><time>2012-04-06T04:57:14Z</time></trkpt><trkpt lat="31.8210843578" lon="34.9992012139"><ele>273.15</ele><time>2012-04-06T04:57:18Z</time></trkpt><trkpt lat="31.8211720325" lon="34.9991423730"><ele>272.19</ele><time>2012-04-06T04:57:20Z</time></trkpt><trkpt lat="31.8212571088" lon="34.9990941770"><ele>271.71</ele><time>2012-04-06T04:57:22Z</time></trkpt><trkpt lat="31.8214754574" lon="34.9989556242"><ele>269.79</ele><time>2012-04-06T04:57:28Z</time></trkpt><trkpt lat="31.8216938060" lon="34.9988153949"><ele>267.38</ele><time>2012-04-06T04:57:33Z</time></trkpt><trkpt lat="31.8217350449" lon="34.9987768382"><ele>266.90</ele><time>2012-04-06T04:57:34Z</time></trkpt><trkpt lat="31.8217733502" lon="34.9987319950"><ele>266.42</ele><time>2012-04-06T04:57:35Z</time></trkpt><trkpt lat="31.8219298404" lon="34.9984723236"><ele>262.58</ele><time>2012-04-06T04:57:40Z</time></trkpt><trkpt lat="31.8220072053" lon="34.9983285740"><ele>260.17</ele><time>2012-04-06T04:57:43Z</time></trkpt><trkpt lat="31.8220375478" lon="34.9982916936"><ele>259.69</ele><time>2012-04-06T04:57:44Z</time></trkpt><trkpt lat="31.8221424893" lon="34.9981776997"><ele>258.25</ele><time>2012-04-06T04:57:47Z</time></trkpt><trkpt lat="31.8222089577" lon="34.9980996642"><ele>258.25</ele><time>2012-04-06T04:57:49Z</time></trkpt><trkpt lat="31.8222497776" lon="34.9980606046"><ele>257.29</ele><time>2012-04-06T04:57:50Z</time></trkpt><trkpt lat="31.8225206807" lon="34.9977703393"><ele>253.93</ele><time>2012-04-06T04:57:57Z</time></trkpt><trkpt lat="31.8226850498" lon="34.9976163637"><ele>251.04</ele><time>2012-04-06T04:58:03Z</time></trkpt><trkpt lat="31.8227228522" lon="34.9975988455"><ele>250.56</ele><time>2012-04-06T04:58:04Z</time></trkpt><trkpt lat="31.8228028156" lon="34.9975594506"><ele>249.12</ele><time>2012-04-06T04:58:06Z</time></trkpt><trkpt lat="31.8228391930" lon="34.9975358974"><ele>248.64</ele><time>2012-04-06T04:58:07Z</time></trkpt><trkpt lat="31.8231197353" lon="34.9974752963"><ele>245.27</ele><time>2012-04-06T04:58:16Z</time></trkpt><trkpt lat="31.8232305441" lon="34.9975161999"><ele>243.35</ele><time>2012-04-06T04:58:20Z</time></trkpt><trkpt lat="31.8232409377" lon="34.9975380767"><ele>242.87</ele><time>2012-04-06T04:58:21Z</time></trkpt><trkpt lat="31.8232471403" lon="34.9975621328"><ele>243.35</ele><time>2012-04-06T04:58:22Z</time></trkpt><trkpt lat="31.8232529238" lon="34.9975851830"><ele>243.35</ele><time>2012-04-06T04:58:23Z</time></trkpt><trkpt lat="31.8232585397" lon="34.9976041261"><ele>243.35</ele><time>2012-04-06T04:58:24Z</time></trkpt><trkpt lat="31.8232669216" lon="34.9976177886"><ele>243.35</ele><time>2012-04-06T04:58:25Z</time></trkpt><trkpt lat="31.8232772313" lon="34.9976476282"><ele>243.35</ele><time>2012-04-06T04:58:27Z</time></trkpt><trkpt lat="31.8232859485" lon="34.9976617098"><ele>243.35</ele><time>2012-04-06T04:58:28Z</time></trkpt><trkpt lat="31.8232955039" lon="34.9976756237"><ele>243.35</ele><time>2012-04-06T04:58:29Z</time></trkpt><trkpt lat="31.8233023770" lon="34.9976887833"><ele>242.87</ele><time>2012-04-06T04:58:30Z</time></trkpt><trkpt lat="31.8233115133" lon="34.9977037031"><ele>243.35</ele><time>2012-04-06T04:58:31Z</time></trkpt><trkpt lat="31.8233208172" lon="34.9977199640"><ele>243.35</ele><time>2012-04-06T04:58:32Z</time></trkpt><trkpt lat="31.8233313784" lon="34.9977363925"><ele>243.35</ele><time>2012-04-06T04:58:33Z</time></trkpt><trkpt lat="31.8233386707" lon="34.9977529887"><ele>242.87</ele><time>2012-04-06T04:58:34Z</time></trkpt><trkpt lat="31.8233437836" lon="34.9977700040"><ele>243.35</ele><time>2012-04-06T04:58:35Z</time></trkpt><trkpt lat="31.8233515788" lon="34.9977871031"><ele>242.87</ele><time>2012-04-06T04:58:36Z</time></trkpt><trkpt lat="31.8233612180" lon="34.9978040345"><ele>242.87</ele><time>2012-04-06T04:58:37Z</time></trkpt><trkpt lat="31.8234883714" lon="34.9980467744"><ele>241.91</ele><time>2012-04-06T04:58:50Z</time></trkpt><trkpt lat="31.8235360645" lon="34.9981651269"><ele>241.43</ele><time>2012-04-06T04:58:54Z</time></trkpt><trkpt lat="31.8235369027" lon="34.9981970619"><ele>240.95</ele><time>2012-04-06T04:58:55Z</time></trkpt><trkpt lat="31.8235387467" lon="34.9982276559"><ele>241.43</ele><time>2012-04-06T04:58:56Z</time></trkpt><trkpt lat="31.8235436082" lon="34.9982543103"><ele>240.95</ele><time>2012-04-06T04:58:57Z</time></trkpt><trkpt lat="31.8235514872" lon="34.9982797913"><ele>240.95</ele><time>2012-04-06T04:58:58Z</time></trkpt><trkpt lat="31.8235073145" lon="34.9985883292"><ele>240.95</ele><time>2012-04-06T04:59:09Z</time></trkpt><trkpt lat="31.8235556781" lon="34.9990009703"><ele>240.47</ele><time>2012-04-06T04:59:24Z</time></trkpt><trkpt lat="31.8237673212" lon="34.9992031418"><ele>238.06</ele><time>2012-04-06T04:59:32Z</time></trkpt><trkpt lat="31.8239489570" lon="34.9994687643"><ele>236.14</ele><time>2012-04-06T04:59:37Z</time></trkpt><trkpt lat="31.8239807244" lon="34.9995369092"><ele>235.66</ele><time>2012-04-06T04:59:38Z</time></trkpt><trkpt lat="31.8240114022" lon="34.9996070657"><ele>235.18</ele><time>2012-04-06T04:59:39Z</time></trkpt><trkpt lat="31.8241431657" lon="34.9999333732"><ele>233.74</ele><time>2012-04-06T04:59:44Z</time></trkpt><trkpt lat="31.8242896814" lon="35.0004028436"><ele>233.74</ele><time>2012-04-06T04:59:54Z</time></trkpt><trkpt lat="31.8243038468" lon="35.0004489440"><ele>233.74</ele><time>2012-04-06T04:59:55Z</time></trkpt><trkpt lat="31.8244159129" lon="35.0007464178"><ele>233.26</ele><time>2012-04-06T05:00:06Z</time></trkpt><trkpt lat="31.8244444113" lon="35.0008137245"><ele>233.26</ele><time>2012-04-06T05:00:10Z</time></trkpt><trkpt lat="31.8244568165" lon="35.0008336734"><ele>233.74</ele><time>2012-04-06T05:00:11Z</time></trkpt><trkpt lat="31.8246141449" lon="35.0011333264"><ele>233.74</ele><time>2012-04-06T05:00:23Z</time></trkpt><trkpt lat="31.8247727305" lon="35.0015961751"><ele>234.70</ele><time>2012-04-06T05:00:35Z</time></trkpt><trkpt lat="31.8249189947" lon="35.0020357221"><ele>235.66</ele><time>2012-04-06T05:00:49Z</time></trkpt><trkpt lat="31.8249509297" lon="35.0021270011"><ele>236.62</ele><time>2012-04-06T05:00:52Z</time></trkpt><trkpt lat="31.8249565456" lon="35.0021562539"><ele>236.62</ele><time>2012-04-06T05:00:53Z</time></trkpt><trkpt lat="31.8249921687" lon="35.0022383966"><ele>237.10</ele><time>2012-04-06T05:00:56Z</time></trkpt><trkpt lat="31.8250044063" lon="35.0022654701"><ele>237.58</ele><time>2012-04-06T05:00:57Z</time></trkpt><trkpt lat="31.8250116985" lon="35.0022936333"><ele>237.10</ele><time>2012-04-06T05:00:58Z</time></trkpt><trkpt lat="31.8250905722" lon="35.0024991576"><ele>238.06</ele><time>2012-04-06T05:01:06Z</time></trkpt><trkpt lat="31.8251142092" lon="35.0025502034"><ele>238.54</ele><time>2012-04-06T05:01:08Z</time></trkpt><trkpt lat="31.8251231778" lon="35.0025771093"><ele>239.02</ele><time>2012-04-06T05:01:09Z</time></trkpt><trkpt lat="31.8251274526" lon="35.0030475017"><ele>240.47</ele><time>2012-04-06T05:01:25Z</time></trkpt><trkpt lat="31.8250604812" lon="35.0034256093"><ele>241.43</ele><time>2012-04-06T05:01:37Z</time></trkpt><trkpt lat="31.8249896541" lon="35.0039835088"><ele>241.91</ele><time>2012-04-06T05:01:52Z</time></trkpt><trkpt lat="31.8249218445" lon="35.0044627860"><ele>242.39</ele><time>2012-04-06T05:02:05Z</time></trkpt><trkpt lat="31.8248125445" lon="35.0048993994"><ele>243.35</ele><time>2012-04-06T05:02:17Z</time></trkpt><trkpt lat="31.8246380333" lon="35.0052558817"><ele>246.23</ele><time>2012-04-06T05:02:30Z</time></trkpt><trkpt lat="31.8244605884" lon="35.0055320654"><ele>247.68</ele><time>2012-04-06T05:02:42Z</time></trkpt><trkpt lat="31.8242582493" lon="35.0057737995"><ele>251.04</ele><time>2012-04-06T05:02:56Z</time></trkpt><trkpt lat="31.8240475282" lon="35.0060460437"><ele>251.52</ele><time>2012-04-06T05:03:09Z</time></trkpt><trkpt lat="31.8238327838" lon="35.0063538272"><ele>252.48</ele><time>2012-04-06T05:03:22Z</time></trkpt><trkpt lat="31.8235721905" lon="35.0068184361"><ele>252.48</ele><time>2012-04-06T05:03:35Z</time></trkpt><trkpt lat="31.8233043049" lon="35.0072257128"><ele>252.00</ele><time>2012-04-06T05:03:46Z</time></trkpt><trkpt lat="31.8230266124" lon="35.0077142939"><ele>252.96</ele><time>2012-04-06T05:03:59Z</time></trkpt><trkpt lat="31.8227290548" lon="35.0083459541"><ele>254.41</ele><time>2012-04-06T05:04:16Z</time></trkpt><trkpt lat="31.8225651886" lon="35.0088642910"><ele>256.33</ele><time>2012-04-06T05:04:29Z</time></trkpt><trkpt lat="31.8222843949" lon="35.0092497747"><ele>258.25</ele><time>2012-04-06T05:04:43Z</time></trkpt><trkpt lat="31.8220320996" lon="35.0094330870"><ele>261.14</ele><time>2012-04-06T05:04:55Z</time></trkpt><trkpt lat="31.8217295129" lon="35.0096381083"><ele>263.54</ele><time>2012-04-06T05:05:10Z</time></trkpt><trkpt lat="31.8217133358" lon="35.0096526090"><ele>264.02</ele><time>2012-04-06T05:05:11Z</time></trkpt><trkpt lat="31.8216979131" lon="35.0096641760"><ele>264.02</ele><time>2012-04-06T05:05:12Z</time></trkpt><trkpt lat="31.8216834124" lon="35.0096772518"><ele>264.02</ele><time>2012-04-06T05:05:13Z</time></trkpt><trkpt lat="31.8216705043" lon="35.0096925069"><ele>264.50</ele><time>2012-04-06T05:05:14Z</time></trkpt><trkpt lat="31.8216555845" lon="35.0097070914"><ele>264.02</ele><time>2012-04-06T05:05:15Z</time></trkpt><trkpt lat="31.8216387369" lon="35.0097250286"><ele>264.98</ele><time>2012-04-06T05:05:16Z</time></trkpt><trkpt lat="31.8216241524" lon="35.0097449776"><ele>264.50</ele><time>2012-04-06T05:05:17Z</time></trkpt><trkpt lat="31.8214912154" lon="35.0100794155"><ele>266.90</ele><time>2012-04-06T05:05:32Z</time></trkpt><trkpt lat="31.8215443566" lon="35.0105676614"><ele>266.90</ele><time>2012-04-06T05:05:48Z</time></trkpt><trkpt lat="31.8216720130" lon="35.0108678173"><ele>266.90</ele><time>2012-04-06T05:05:57Z</time></trkpt><trkpt lat="31.8216869328" lon="35.0109148398"><ele>266.42</ele><time>2012-04-06T05:05:58Z</time></trkpt><trkpt lat="31.8217037804" lon="35.0109611079"><ele>265.94</ele><time>2012-04-06T05:05:59Z</time></trkpt><trkpt lat="31.8217222206" lon="35.0110086333"><ele>265.94</ele><time>2012-04-06T05:06:00Z</time></trkpt><trkpt lat="31.8217360508" lon="35.0110637024"><ele>265.94</ele><time>2012-04-06T05:06:01Z</time></trkpt><trkpt lat="31.8217506353" lon="35.0111206155"><ele>265.46</ele><time>2012-04-06T05:06:02Z</time></trkpt><trkpt lat="31.8217633758" lon="35.0111798756"><ele>265.46</ele><time>2012-04-06T05:06:03Z</time></trkpt><trkpt lat="31.8217679858" lon="35.0112414826"><ele>264.98</ele><time>2012-04-06T05:06:04Z</time></trkpt><trkpt lat="31.8217715062" lon="35.0113048498"><ele>264.50</ele><time>2012-04-06T05:06:05Z</time></trkpt><trkpt lat="31.8217796367" lon="35.0113671273"><ele>264.98</ele><time>2012-04-06T05:06:06Z</time></trkpt><trkpt lat="31.8217894435" lon="35.0114265550"><ele>264.98</ele><time>2012-04-06T05:06:07Z</time></trkpt><trkpt lat="31.8218137510" lon="35.0115378667"><ele>264.50</ele><time>2012-04-06T05:06:09Z</time></trkpt><trkpt lat="31.8218330294" lon="35.0115890801"><ele>264.50</ele><time>2012-04-06T05:06:10Z</time></trkpt><trkpt lat="31.8218730949" lon="35.0116830412"><ele>264.50</ele><time>2012-04-06T05:06:12Z</time></trkpt><trkpt lat="31.8219019286" lon="35.0117885694"><ele>264.50</ele><time>2012-04-06T05:06:14Z</time></trkpt><trkpt lat="31.8219799642" lon="35.0120980293"><ele>264.98</ele><time>2012-04-06T05:06:20Z</time></trkpt><trkpt lat="31.8219895195" lon="35.0121500809"><ele>265.46</ele><time>2012-04-06T05:06:21Z</time></trkpt><trkpt lat="31.8219987396" lon="35.0122007914"><ele>264.98</ele><time>2012-04-06T05:06:22Z</time></trkpt><trkpt lat="31.8220063671" lon="35.0122991949"><ele>264.50</ele><time>2012-04-06T05:06:24Z</time></trkpt><trkpt lat="31.8220006675" lon="35.0123483129"><ele>264.98</ele><time>2012-04-06T05:06:25Z</time></trkpt><trkpt lat="31.8219885975" lon="35.0123945810"><ele>264.50</ele><time>2012-04-06T05:06:26Z</time></trkpt><trkpt lat="31.8219739292" lon="35.0124401785"><ele>264.50</ele><time>2012-04-06T05:06:27Z</time></trkpt><trkpt lat="31.8219567463" lon="35.0124851894"><ele>264.98</ele><time>2012-04-06T05:06:28Z</time></trkpt><trkpt lat="31.8219273258" lon="35.0125766359"><ele>264.98</ele><time>2012-04-06T05:06:30Z</time></trkpt><trkpt lat="31.8217684049" lon="35.0132060330"><ele>265.46</ele><time>2012-04-06T05:06:45Z</time></trkpt><trkpt lat="31.8216402456" lon="35.0136415567"><ele>265.94</ele><time>2012-04-06T05:06:57Z</time></trkpt><trkpt lat="31.8216420896" lon="35.0136817899"><ele>265.94</ele><time>2012-04-06T05:06:58Z</time></trkpt><trkpt lat="31.8216392398" lon="35.0137230288"><ele>265.94</ele><time>2012-04-06T05:06:59Z</time></trkpt><trkpt lat="31.8215421773" lon="35.0141270366"><ele>266.42</ele><time>2012-04-06T05:07:09Z</time></trkpt><trkpt lat="31.8213107530" lon="35.0145121850"><ele>268.83</ele><time>2012-04-06T05:07:23Z</time></trkpt><trkpt lat="31.8209332321" lon="35.0148392469"><ele>271.23</ele><time>2012-04-06T05:07:40Z</time></trkpt><trkpt lat="31.8205479998" lon="35.0150860101"><ele>273.63</ele><time>2012-04-06T05:07:56Z</time></trkpt><trkpt lat="31.8203804456" lon="35.0154852401"><ele>275.07</ele><time>2012-04-06T05:08:10Z</time></trkpt><trkpt lat="31.8205954414" lon="35.0158187561"><ele>275.56</ele><time>2012-04-06T05:08:25Z</time></trkpt><trkpt lat="31.8208386842" lon="35.0161470752"><ele>275.56</ele><time>2012-04-06T05:08:37Z</time></trkpt><trkpt lat="31.8207307253" lon="35.0164515898"><ele>276.52</ele><time>2012-04-06T05:08:48Z</time></trkpt><trkpt lat="31.8205048330" lon="35.0166538451"><ele>278.92</ele><time>2012-04-06T05:09:01Z</time></trkpt><trkpt lat="31.8202288169" lon="35.0168333016"><ele>280.84</ele><time>2012-04-06T05:09:16Z</time></trkpt><trkpt lat="31.8200182635" lon="35.0170194637"><ele>281.80</ele><time>2012-04-06T05:09:28Z</time></trkpt><trkpt lat="31.8197621964" lon="35.0172881037"><ele>283.25</ele><time>2012-04-06T05:09:43Z</time></trkpt><trkpt lat="31.8195579294" lon="35.0175723340"><ele>284.21</ele><time>2012-04-06T05:09:58Z</time></trkpt><trkpt lat="31.8195646349" lon="35.0175792910"><ele>284.21</ele><time>2012-04-06T05:10:14Z</time></trkpt><trkpt lat="31.8195769563" lon="35.0175810512"><ele>283.73</ele><time>2012-04-06T05:10:51Z</time></trkpt><trkpt lat="31.8195937201" lon="35.0176002458"><ele>284.21</ele><time>2012-04-06T05:11:13Z</time></trkpt><trkpt lat="31.8196052872" lon="35.0176137406"><ele>284.21</ele><time>2012-04-06T05:11:14Z</time></trkpt><trkpt lat="31.8196235597" lon="35.0176279061"><ele>283.73</ele><time>2012-04-06T05:11:15Z</time></trkpt><trkpt lat="31.8196463585" lon="35.0176408980"><ele>283.73</ele><time>2012-04-06T05:11:16Z</time></trkpt><trkpt lat="31.8196712527" lon="35.0176514592"><ele>283.25</ele><time>2012-04-06T05:11:17Z</time></trkpt><trkpt lat="31.8198337778" lon="35.0177646149"><ele>280.84</ele><time>2012-04-06T05:11:23Z</time></trkpt><trkpt lat="31.8199344445" lon="35.0178142358"><ele>279.88</ele><time>2012-04-06T05:11:26Z</time></trkpt><trkpt lat="31.8199738394" lon="35.0178291555"><ele>278.92</ele><time>2012-04-06T05:11:27Z</time></trkpt><trkpt lat="31.8200106360" lon="35.0178450812"><ele>278.92</ele><time>2012-04-06T05:11:28Z</time></trkpt><trkpt lat="31.8200405594" lon="35.0178692210"><ele>277.96</ele><time>2012-04-06T05:11:29Z</time></trkpt><trkpt lat="31.8200669624" lon="35.0178933609"><ele>277.96</ele><time>2012-04-06T05:11:30Z</time></trkpt><trkpt lat="31.8200951256" lon="35.0179142319"><ele>277.48</ele><time>2012-04-06T05:11:31Z</time></trkpt><trkpt lat="31.8203128874" lon="35.0180491805"><ele>274.11</ele><time>2012-04-06T05:11:38Z</time></trkpt><trkpt lat="31.8203365244" lon="35.0180782657"><ele>273.63</ele><time>2012-04-06T05:11:39Z</time></trkpt><trkpt lat="31.8203848880" lon="35.0182144716"><ele>271.23</ele><time>2012-04-06T05:11:44Z</time></trkpt><trkpt lat="31.8203842174" lon="35.0182448979"><ele>271.23</ele><time>2012-04-06T05:11:45Z</time></trkpt><trkpt lat="31.8203994725" lon="35.0184141286"><ele>270.27</ele><time>2012-04-06T05:11:56Z</time></trkpt><trkpt lat="31.8204010651" lon="35.0184282940"><ele>269.79</ele><time>2012-04-06T05:12:12Z</time></trkpt><trkpt lat="31.8204058427" lon="35.0184455607"><ele>269.79</ele><time>2012-04-06T05:12:13Z</time></trkpt><trkpt lat="31.8204113748" lon="35.0184645038"><ele>270.27</ele><time>2012-04-06T05:12:14Z</time></trkpt><trkpt lat="31.8204164039" lon="35.0184805971"><ele>269.79</ele><time>2012-04-06T05:12:15Z</time></trkpt><trkpt lat="31.8204217684" lon="35.0184957683"><ele>269.79</ele><time>2012-04-06T05:12:16Z</time></trkpt><trkpt lat="31.8204262946" lon="35.0185126159"><ele>269.79</ele><time>2012-04-06T05:12:17Z</time></trkpt><trkpt lat="31.8204296473" lon="35.0185285416"><ele>270.27</ele><time>2012-04-06T05:12:18Z</time></trkpt><trkpt lat="31.8204335030" lon="35.0185448024"><ele>269.79</ele><time>2012-04-06T05:12:19Z</time></trkpt><trkpt lat="31.8204371072" lon="35.0185637455"><ele>270.27</ele><time>2012-04-06T05:12:20Z</time></trkpt><trkpt lat="31.8204317428" lon="35.0185909029"><ele>270.27</ele><time>2012-04-06T05:12:21Z</time></trkpt><trkpt lat="31.8204208463" lon="35.0186396018"><ele>270.27</ele><time>2012-04-06T05:12:22Z</time></trkpt><trkpt lat="31.8204179127" lon="35.0186688546"><ele>270.27</ele><time>2012-04-06T05:12:23Z</time></trkpt><trkpt lat="31.8204594869" lon="35.0186953414"><ele>270.27</ele><time>2012-04-06T05:12:36Z</time></trkpt><trkpt lat="31.8204681203" lon="35.0187017117"><ele>269.79</ele><time>2012-04-06T05:13:05Z</time></trkpt><trkpt lat="31.8204741552" lon="35.0186908152"><ele>270.27</ele><time>2012-04-06T05:13:35Z</time></trkpt><trkpt lat="31.8204680365" lon="35.0186871272"><ele>270.27</ele><time>2012-04-06T05:14:07Z</time></trkpt><trkpt lat="31.8204765022" lon="35.0187399331"><ele>270.27</ele><time>2012-04-06T05:14:15Z</time></trkpt><trkpt lat="31.8204799388" lon="35.0187605526"><ele>270.27</ele><time>2012-04-06T05:14:16Z</time></trkpt><trkpt lat="31.8204895779" lon="35.0187796634"><ele>270.75</ele><time>2012-04-06T05:14:17Z</time></trkpt><trkpt lat="31.8207509257" lon="35.0190975051"><ele>270.27</ele><time>2012-04-06T05:14:31Z</time></trkpt><trkpt lat="31.8208662607" lon="35.0193190388"><ele>271.71</ele><time>2012-04-06T05:14:41Z</time></trkpt><trkpt lat="31.8210866209" lon="35.0193979125"><ele>274.11</ele><time>2012-04-06T05:14:55Z</time></trkpt><trkpt lat="31.8211364094" lon="35.0194104016"><ele>273.63</ele><time>2012-04-06T05:15:06Z</time></trkpt><trkpt lat="31.8211484794" lon="35.0194011815"><ele>273.63</ele><time>2012-04-06T05:15:37Z</time></trkpt><trkpt lat="31.8211453781" lon="35.0194031931"><ele>273.63</ele><time>2012-04-06T05:16:09Z</time></trkpt><trkpt lat="31.8211428635" lon="35.0193996727"><ele>273.15</ele><time>2012-04-06T05:16:41Z</time></trkpt><trkpt lat="31.8211363256" lon="35.0193915423"><ele>273.15</ele><time>2012-04-06T05:17:10Z</time></trkpt><trkpt lat="31.8211398460" lon="35.0193907879"><ele>274.11</ele><time>2012-04-06T05:17:43Z</time></trkpt><trkpt lat="31.8211505748" lon="35.0193855073"><ele>273.63</ele><time>2012-04-06T05:18:16Z</time></trkpt><trkpt lat="31.8211617228" lon="35.0193838309"><ele>274.11</ele><time>2012-04-06T05:18:32Z</time></trkpt><trkpt lat="31.8211684283" lon="35.0193877704"><ele>274.11</ele><time>2012-04-06T05:18:55Z</time></trkpt><trkpt lat="31.8211688474" lon="35.0193876028"><ele>274.11</ele><time>2012-04-06T05:18:56Z</time></trkpt><trkpt lat="31.8211787380" lon="35.0193789694"><ele>274.11</ele><time>2012-04-06T05:18:57Z</time></trkpt><trkpt lat="31.8211930711" lon="35.0193739403"><ele>274.11</ele><time>2012-04-06T05:18:58Z</time></trkpt><trkpt lat="31.8212093320" lon="35.0193652231"><ele>274.11</ele><time>2012-04-06T05:18:59Z</time></trkpt><trkpt lat="31.8212260958" lon="35.0193523150"><ele>273.63</ele><time>2012-04-06T05:19:00Z</time></trkpt><trkpt lat="31.8213814963" lon="35.0191535801"><ele>273.63</ele><time>2012-04-06T05:19:12Z</time></trkpt><trkpt lat="31.8213943206" lon="35.0191200525"><ele>273.15</ele><time>2012-04-06T05:19:25Z</time></trkpt><trkpt lat="31.8214496411" lon="35.0189993531"><ele>273.15</ele><time>2012-04-06T05:19:40Z</time></trkpt><trkpt lat="31.8215747830" lon="35.0184922479"><ele>271.71</ele><time>2012-04-06T05:19:53Z</time></trkpt><trkpt lat="31.8217538204" lon="35.0178559776"><ele>270.27</ele><time>2012-04-06T05:20:08Z</time></trkpt><trkpt lat="31.8219640385" lon="35.0175298378"><ele>269.79</ele><time>2012-04-06T05:20:20Z</time></trkpt><trkpt lat="31.8219858315" lon="35.0175337773"><ele>269.79</ele><time>2012-04-06T05:20:21Z</time></trkpt><trkpt lat="31.8219991587" lon="35.0175426621"><ele>269.79</ele><time>2012-04-06T05:20:22Z</time></trkpt><trkpt lat="31.8220192753" lon="35.0175651256"><ele>269.79</ele><time>2012-04-06T05:20:28Z</time></trkpt><trkpt lat="31.8220388889" lon="35.0175711606"><ele>269.79</ele><time>2012-04-06T05:20:29Z</time></trkpt><trkpt lat="31.8221992347" lon="35.0176217873"><ele>269.31</ele><time>2012-04-06T05:20:36Z</time></trkpt><trkpt lat="31.8222108856" lon="35.0176341925"><ele>269.31</ele><time>2012-04-06T05:20:37Z</time></trkpt><trkpt lat="31.8222186808" lon="35.0176459271"><ele>269.31</ele><time>2012-04-06T05:20:38Z</time></trkpt><trkpt lat="31.8222220335" lon="35.0176574942"><ele>269.31</ele><time>2012-04-06T05:20:39Z</time></trkpt><trkpt lat="31.8222123943" lon="35.0177459233"><ele>269.31</ele><time>2012-04-06T05:20:45Z</time></trkpt><trkpt lat="31.8222191837" lon="35.0177925266"><ele>268.83</ele><time>2012-04-06T05:20:47Z</time></trkpt><trkpt lat="31.8222664576" lon="35.0179968774"><ele>269.79</ele><time>2012-04-06T05:20:54Z</time></trkpt><trkpt lat="31.8221452553" lon="35.0182571355"><ele>269.79</ele><time>2012-04-06T05:21:04Z</time></trkpt><trkpt lat="31.8220454268" lon="35.0186656695"><ele>270.75</ele><time>2012-04-06T05:21:19Z</time></trkpt><trkpt lat="31.8219249789" lon="35.0190530811"><ele>271.71</ele><time>2012-04-06T05:21:33Z</time></trkpt><trkpt lat="31.8217171915" lon="35.0195921212"><ele>272.67</ele><time>2012-04-06T05:21:50Z</time></trkpt><trkpt lat="31.8216353003" lon="35.0198192708"><ele>273.63</ele><time>2012-04-06T05:21:58Z</time></trkpt><trkpt lat="31.8215509783" lon="35.0201294851"><ele>273.15</ele><time>2012-04-06T05:22:07Z</time></trkpt><trkpt lat="31.8213487230" lon="35.0203457382"><ele>274.11</ele><time>2012-04-06T05:22:18Z</time></trkpt><trkpt lat="31.8211567774" lon="35.0205619913"><ele>275.56</ele><time>2012-04-06T05:22:29Z</time></trkpt><trkpt lat="31.8211510777" lon="35.0206611492"><ele>275.07</ele><time>2012-04-06T05:22:32Z</time></trkpt><trkpt lat="31.8211546820" lon="35.0207448006"><ele>274.59</ele><time>2012-04-06T05:22:34Z</time></trkpt><trkpt lat="31.8211533409" lon="35.0207775738"><ele>274.59</ele><time>2012-04-06T05:22:35Z</time></trkpt><trkpt lat="31.8211541791" lon="35.0208121911"><ele>275.07</ele><time>2012-04-06T05:22:36Z</time></trkpt><trkpt lat="31.8211522512" lon="35.0208508316"><ele>274.59</ele><time>2012-04-06T05:22:37Z</time></trkpt><trkpt lat="31.8211404327" lon="35.0208888017"><ele>274.59</ele><time>2012-04-06T05:22:38Z</time></trkpt><trkpt lat="31.8211193103" lon="35.0209178030"><ele>275.07</ele><time>2012-04-06T05:22:39Z</time></trkpt><trkpt lat="31.8210946675" lon="35.0209358241"><ele>275.07</ele><time>2012-04-06T05:22:40Z</time></trkpt><trkpt lat="31.8210684322" lon="35.0209426973"><ele>275.07</ele><time>2012-04-06T05:22:41Z</time></trkpt><trkpt lat="31.8210434541" lon="35.0209406018"><ele>275.07</ele><time>2012-04-06T05:22:42Z</time></trkpt><trkpt lat="31.8210225832" lon="35.0209332258"><ele>275.07</ele><time>2012-04-06T05:22:43Z</time></trkpt><trkpt lat="31.8210046459" lon="35.0209287833"><ele>275.56</ele><time>2012-04-06T05:22:44Z</time></trkpt><trkpt lat="31.8209875468" lon="35.0209287833"><ele>275.56</ele><time>2012-04-06T05:22:45Z</time></trkpt><trkpt lat="31.8209697772" lon="35.0209287833"><ele>275.56</ele><time>2012-04-06T05:22:46Z</time></trkpt><trkpt lat="31.8209508341" lon="35.0209297054"><ele>276.04</ele><time>2012-04-06T05:22:47Z</time></trkpt><trkpt lat="31.8208228424" lon="35.0209824275"><ele>276.04</ele><time>2012-04-06T05:22:54Z</time></trkpt><trkpt lat="31.8208110239" lon="35.0210041367"><ele>276.04</ele><time>2012-04-06T05:22:55Z</time></trkpt><trkpt lat="31.8206675258" lon="35.0212090742"><ele>277.00</ele><time>2012-04-06T05:23:06Z</time></trkpt><trkpt lat="31.8204359338" lon="35.0213968288"><ele>277.48</ele><time>2012-04-06T05:23:19Z</time></trkpt><trkpt lat="31.8203081097" lon="35.0215596054"><ele>278.92</ele><time>2012-04-06T05:23:28Z</time></trkpt><trkpt lat="31.8201074470" lon="35.0216951407"><ele>281.32</ele><time>2012-04-06T05:23:42Z</time></trkpt><trkpt lat="31.8198798783" lon="35.0219184346"><ele>281.80</ele><time>2012-04-06T05:23:56Z</time></trkpt><trkpt lat="31.8198687304" lon="35.0219382998"><ele>282.28</ele><time>2012-04-06T05:23:57Z</time></trkpt><trkpt lat="31.8198596779" lon="35.0219584163"><ele>282.28</ele><time>2012-04-06T05:23:58Z</time></trkpt><trkpt lat="31.8198463507" lon="35.0219764374"><ele>281.80</ele><time>2012-04-06T05:23:59Z</time></trkpt><trkpt lat="31.8198331073" lon="35.0219937880"><ele>282.28</ele><time>2012-04-06T05:24:00Z</time></trkpt><trkpt lat="31.8198191095" lon="35.0220121443"><ele>282.28</ele><time>2012-04-06T05:24:01Z</time></trkpt><trkpt lat="31.8196351267" lon="35.0222011562"><ele>282.77</ele><time>2012-04-06T05:24:12Z</time></trkpt><trkpt lat="31.8194658123" lon="35.0225568004"><ele>282.77</ele><time>2012-04-06T05:24:27Z</time></trkpt><trkpt lat="31.8193563446" lon="35.0226971135"><ele>283.25</ele><time>2012-04-06T05:24:35Z</time></trkpt><trkpt lat="31.8191872817" lon="35.0228718761"><ele>283.25</ele><time>2012-04-06T05:24:46Z</time></trkpt><trkpt lat="31.8191631418" lon="35.0229086727"><ele>283.25</ele><time>2012-04-06T05:24:48Z</time></trkpt><trkpt lat="31.8191545084" lon="35.0229298789"><ele>283.73</ele><time>2012-04-06T05:24:49Z</time></trkpt><trkpt lat="31.8191461265" lon="35.0229524262"><ele>283.73</ele><time>2012-04-06T05:24:50Z</time></trkpt><trkpt lat="31.8191399239" lon="35.0229750574"><ele>283.73</ele><time>2012-04-06T05:24:51Z</time></trkpt><trkpt lat="31.8191338889" lon="35.0229986943"><ele>283.73</ele><time>2012-04-06T05:24:52Z</time></trkpt><trkpt lat="31.8191270158" lon="35.0230238400"><ele>283.25</ele><time>2012-04-06T05:24:53Z</time></trkpt><trkpt lat="31.8191191368" lon="35.0230487343"><ele>283.73</ele><time>2012-04-06T05:24:54Z</time></trkpt><trkpt lat="31.8191079050" lon="35.0230705272"><ele>283.73</ele><time>2012-04-06T05:24:55Z</time></trkpt><trkpt lat="31.8190969247" lon="35.0230911467"><ele>284.21</ele><time>2012-04-06T05:24:56Z</time></trkpt><trkpt lat="31.8190895487" lon="35.0231140293"><ele>284.21</ele><time>2012-04-06T05:24:57Z</time></trkpt><trkpt lat="31.8189833499" lon="35.0233950745"><ele>285.65</ele><time>2012-04-06T05:25:10Z</time></trkpt><trkpt lat="31.8189794105" lon="35.0237068813"><ele>286.61</ele><time>2012-04-06T05:25:23Z</time></trkpt><trkpt lat="31.8189914804" lon="35.0240702368"><ele>288.05</ele><time>2012-04-06T05:25:39Z</time></trkpt><trkpt lat="31.8190174643" lon="35.0243546348"><ele>290.46</ele><time>2012-04-06T05:25:53Z</time></trkpt><trkpt lat="31.8187782448" lon="35.0244509429"><ele>290.46</ele><time>2012-04-06T05:26:06Z</time></trkpt><trkpt lat="31.8184629176" lon="35.0248156395"><ele>289.49</ele><time>2012-04-06T05:26:19Z</time></trkpt><trkpt lat="31.8182413001" lon="35.0251670089"><ele>289.49</ele><time>2012-04-06T05:26:32Z</time></trkpt><trkpt lat="31.8181049265" lon="35.0257138442"><ele>291.90</ele><time>2012-04-06T05:26:50Z</time></trkpt><trkpt lat="31.8180279806" lon="35.0260445103"><ele>292.86</ele><time>2012-04-06T05:27:01Z</time></trkpt><trkpt lat="31.8180085346" lon="35.0260650460"><ele>292.86</ele><time>2012-04-06T05:27:02Z</time></trkpt><trkpt lat="31.8179838080" lon="35.0260845758"><ele>292.86</ele><time>2012-04-06T05:27:03Z</time></trkpt><trkpt lat="31.8179553095" lon="35.0261044409"><ele>292.38</ele><time>2012-04-06T05:27:04Z</time></trkpt><trkpt lat="31.8179246318" lon="35.0261227135"><ele>292.86</ele><time>2012-04-06T05:27:05Z</time></trkpt><trkpt lat="31.8178951275" lon="35.0261352025"><ele>292.38</ele><time>2012-04-06T05:27:06Z</time></trkpt><trkpt lat="31.8178682216" lon="35.0261395611"><ele>292.38</ele><time>2012-04-06T05:27:07Z</time></trkpt><trkpt lat="31.8178435788" lon="35.0261387229"><ele>292.38</ele><time>2012-04-06T05:27:08Z</time></trkpt><trkpt lat="31.8176203687" lon="35.0263195205"><ele>294.30</ele><time>2012-04-06T05:27:20Z</time></trkpt><trkpt lat="31.8175701611" lon="35.0266957004"><ele>296.22</ele><time>2012-04-06T05:27:33Z</time></trkpt><trkpt lat="31.8175224680" lon="35.0271762349"><ele>297.67</ele><time>2012-04-06T05:27:49Z</time></trkpt><trkpt lat="31.8175113201" lon="35.0276478846"><ele>298.63</ele><time>2012-04-06T05:28:04Z</time></trkpt><trkpt lat="31.8175191153" lon="35.0282861665"><ele>298.63</ele><time>2012-04-06T05:28:21Z</time></trkpt><trkpt lat="31.8174380623" lon="35.0287506916"><ele>301.03</ele><time>2012-04-06T05:28:37Z</time></trkpt><trkpt lat="31.8173420895" lon="35.0291347504"><ele>301.99</ele><time>2012-04-06T05:28:51Z</time></trkpt><trkpt lat="31.8172553368" lon="35.0294783246"><ele>303.43</ele><time>2012-04-06T05:29:05Z</time></trkpt><trkpt lat="31.8172510620" lon="35.0299053825"><ele>304.88</ele><time>2012-04-06T05:29:21Z</time></trkpt><trkpt lat="31.8173332047" lon="35.0302594341"><ele>306.32</ele><time>2012-04-06T05:29:35Z</time></trkpt><trkpt lat="31.8173857592" lon="35.0304587558"><ele>307.28</ele><time>2012-04-06T05:29:44Z</time></trkpt><trkpt lat="31.8173912913" lon="35.0304821413"><ele>306.80</ele><time>2012-04-06T05:29:45Z</time></trkpt><trkpt lat="31.8174005952" lon="35.0305071194"><ele>306.80</ele><time>2012-04-06T05:29:46Z</time></trkpt><trkpt lat="31.8174082227" lon="35.0305308402"><ele>307.28</ele><time>2012-04-06T05:29:47Z</time></trkpt><trkpt lat="31.8174164370" lon="35.0305547286"><ele>306.80</ele><time>2012-04-06T05:29:48Z</time></trkpt><trkpt lat="31.8174430914" lon="35.0308061857"><ele>307.76</ele><time>2012-04-06T05:29:59Z</time></trkpt><trkpt lat="31.8174287584" lon="35.0308169983"><ele>307.76</ele><time>2012-04-06T05:30:00Z</time></trkpt><trkpt lat="31.8174149282" lon="35.0308214407"><ele>308.72</ele><time>2012-04-06T05:30:01Z</time></trkpt><trkpt lat="31.8173999246" lon="35.0308213569"><ele>308.24</ele><time>2012-04-06T05:30:02Z</time></trkpt><trkpt lat="31.8173851725" lon="35.0308183394"><ele>308.24</ele><time>2012-04-06T05:30:03Z</time></trkpt><trkpt lat="31.8173725996" lon="35.0308080297"><ele>308.72</ele><time>2012-04-06T05:30:04Z</time></trkpt><trkpt lat="31.8173618708" lon="35.0307940319"><ele>308.72</ele><time>2012-04-06T05:30:05Z</time></trkpt><trkpt lat="31.8172053806" lon="35.0305654574"><ele>310.64</ele><time>2012-04-06T05:30:21Z</time></trkpt><trkpt lat="31.8170588650" lon="35.0304143317"><ele>313.05</ele><time>2012-04-06T05:30:35Z</time></trkpt><trkpt lat="31.8168970104" lon="35.0303534791"><ele>315.45</ele><time>2012-04-06T05:30:48Z</time></trkpt><trkpt lat="31.8166784942" lon="35.0303172693"><ele>317.37</ele><time>2012-04-06T05:31:04Z</time></trkpt><trkpt lat="31.8165059108" lon="35.0303498749"><ele>319.30</ele><time>2012-04-06T05:31:18Z</time></trkpt><trkpt lat="31.8164940085" lon="35.0303561613"><ele>319.78</ele><time>2012-04-06T05:31:19Z</time></trkpt><trkpt lat="31.8164797593" lon="35.0303613581"><ele>319.30</ele><time>2012-04-06T05:31:20Z</time></trkpt><trkpt lat="31.8164653424" lon="35.0303641241"><ele>319.78</ele><time>2012-04-06T05:31:21Z</time></trkpt><trkpt lat="31.8164519314" lon="35.0303670578"><ele>319.78</ele><time>2012-04-06T05:31:22Z</time></trkpt><trkpt lat="31.8164378498" lon="35.0303715002"><ele>319.78</ele><time>2012-04-06T05:31:23Z</time></trkpt><trkpt lat="31.8164232653" lon="35.0303761102"><ele>320.26</ele><time>2012-04-06T05:31:24Z</time></trkpt><trkpt lat="31.8164109439" lon="35.0303813908"><ele>320.26</ele><time>2012-04-06T05:31:25Z</time></trkpt><trkpt lat="31.8163984548" lon="35.0303882640"><ele>320.74</ele><time>2012-04-06T05:31:26Z</time></trkpt><trkpt lat="31.8163848761" lon="35.0303916167"><ele>320.74</ele><time>2012-04-06T05:31:27Z</time></trkpt><trkpt lat="31.8163712136" lon="35.0303964783"><ele>320.74</ele><time>2012-04-06T05:31:28Z</time></trkpt><trkpt lat="31.8163580541" lon="35.0304005016"><ele>321.22</ele><time>2012-04-06T05:31:29Z</time></trkpt><trkpt lat="31.8163443916" lon="35.0304020103"><ele>321.22</ele><time>2012-04-06T05:31:30Z</time></trkpt><trkpt lat="31.8163289689" lon="35.0304045249"><ele>321.22</ele><time>2012-04-06T05:31:31Z</time></trkpt><trkpt lat="31.8163128756" lon="35.0304092187"><ele>321.22</ele><time>2012-04-06T05:31:32Z</time></trkpt><trkpt lat="31.8162979558" lon="35.0304165110"><ele>321.22</ele><time>2012-04-06T05:31:33Z</time></trkpt><trkpt lat="31.8162823655" lon="35.0304228812"><ele>321.70</ele><time>2012-04-06T05:31:34Z</time></trkpt><trkpt lat="31.8162680324" lon="35.0304280780"><ele>321.22</ele><time>2012-04-06T05:31:35Z</time></trkpt><trkpt lat="31.8160169944" lon="35.0304018427"><ele>321.22</ele><time>2012-04-06T05:31:49Z</time></trkpt><trkpt lat="31.8160708901" lon="35.0301368069"><ele>322.66</ele><time>2012-04-06T05:32:01Z</time></trkpt><trkpt lat="31.8162625004" lon="35.0298980065"><ele>324.58</ele><time>2012-04-06T05:32:16Z</time></trkpt><trkpt lat="31.8163859658" lon="35.0296490639"><ele>326.50</ele><time>2012-04-06T05:32:30Z</time></trkpt><trkpt lat="31.8163907435" lon="35.0296315458"><ele>326.99</ele><time>2012-04-06T05:32:31Z</time></trkpt><trkpt lat="31.8163966946" lon="35.0296133570"><ele>326.99</ele><time>2012-04-06T05:32:32Z</time></trkpt><trkpt lat="31.8164034002" lon="35.0295929052"><ele>326.99</ele><time>2012-04-06T05:32:33Z</time></trkpt><trkpt lat="31.8164093513" lon="35.0295706932"><ele>326.99</ele><time>2012-04-06T05:32:34Z</time></trkpt><trkpt lat="31.8164917454" lon="35.0292467326"><ele>329.39</ele><time>2012-04-06T05:32:50Z</time></trkpt><trkpt lat="31.8164941762" lon="35.0292251911"><ele>329.39</ele><time>2012-04-06T05:32:51Z</time></trkpt><trkpt lat="31.8164941762" lon="35.0292023085"><ele>329.39</ele><time>2012-04-06T05:32:52Z</time></trkpt><trkpt lat="31.8164967746" lon="35.0291795935"><ele>329.39</ele><time>2012-04-06T05:32:53Z</time></trkpt><trkpt lat="31.8165793363" lon="35.0288229436"><ele>331.79</ele><time>2012-04-06T05:33:10Z</time></trkpt><trkpt lat="31.8165858742" lon="35.0288066827"><ele>331.79</ele><time>2012-04-06T05:33:11Z</time></trkpt><trkpt lat="31.8165909871" lon="35.0287872367"><ele>331.79</ele><time>2012-04-06T05:33:12Z</time></trkpt><trkpt lat="31.8166438770" lon="35.0284994021"><ele>333.71</ele><time>2012-04-06T05:33:27Z</time></trkpt><trkpt lat="31.8167440407" lon="35.0282125734"><ele>335.64</ele><time>2012-04-06T05:33:43Z</time></trkpt><trkpt lat="31.8167899735" lon="35.0279109087"><ele>337.08</ele><time>2012-04-06T05:33:56Z</time></trkpt><trkpt lat="31.8167868722" lon="35.0277902931"><ele>338.04</ele><time>2012-04-06T05:34:02Z</time></trkpt><trkpt lat="31.8167830165" lon="35.0277716853"><ele>338.04</ele><time>2012-04-06T05:34:03Z</time></trkpt><trkpt lat="31.8167749699" lon="35.0277257524"><ele>339.00</ele><time>2012-04-06T05:34:06Z</time></trkpt><trkpt lat="31.8167693540" lon="35.0277127605"><ele>338.52</ele><time>2012-04-06T05:34:07Z</time></trkpt><trkpt lat="31.8167657498" lon="35.0276980083"><ele>339.00</ele><time>2012-04-06T05:34:08Z</time></trkpt><trkpt lat="31.8167626485" lon="35.0276852679"><ele>339.00</ele><time>2012-04-06T05:34:09Z</time></trkpt><trkpt lat="31.8167578708" lon="35.0276746228"><ele>338.52</ele><time>2012-04-06T05:34:10Z</time></trkpt><trkpt lat="31.8167508300" lon="35.0276578590"><ele>339.00</ele><time>2012-04-06T05:34:11Z</time></trkpt><trkpt lat="31.8167452980" lon="35.0276389997"><ele>339.00</ele><time>2012-04-06T05:34:12Z</time></trkpt><trkpt lat="31.8167393468" lon="35.0276249181"><ele>339.48</ele><time>2012-04-06T05:34:13Z</time></trkpt><trkpt lat="31.8167165481" lon="35.0275695138"><ele>339.48</ele><time>2012-04-06T05:34:17Z</time></trkpt><trkpt lat="31.8166899774" lon="35.0275322981"><ele>340.44</ele><time>2012-04-06T05:34:20Z</time></trkpt><trkpt lat="31.8166825175" lon="35.0275212340"><ele>340.44</ele><time>2012-04-06T05:34:21Z</time></trkpt><trkpt lat="31.8166755605" lon="35.0275084935"><ele>340.92</ele><time>2012-04-06T05:34:22Z</time></trkpt><trkpt lat="31.8165531848" lon="35.0272941682"><ele>343.33</ele><time>2012-04-06T05:34:38Z</time></trkpt><trkpt lat="31.8163964432" lon="35.0270676054"><ele>344.77</ele><time>2012-04-06T05:34:54Z</time></trkpt><trkpt lat="31.8162534479" lon="35.0269019790"><ele>345.73</ele><time>2012-04-06T05:35:08Z</time></trkpt><trkpt lat="31.8162162323" lon="35.0268739834"><ele>346.21</ele><time>2012-04-06T05:35:11Z</time></trkpt><trkpt lat="31.8162013125" lon="35.0268676970"><ele>346.21</ele><time>2012-04-06T05:35:12Z</time></trkpt><trkpt lat="31.8159777671" lon="35.0267412979"><ele>348.13</ele><time>2012-04-06T05:35:29Z</time></trkpt><trkpt lat="31.8158295751" lon="35.0266690459"><ele>349.10</ele><time>2012-04-06T05:35:40Z</time></trkpt><trkpt lat="31.8158186786" lon="35.0266615022"><ele>349.10</ele><time>2012-04-06T05:35:41Z</time></trkpt><trkpt lat="31.8158039264" lon="35.0266565569"><ele>349.10</ele><time>2012-04-06T05:35:42Z</time></trkpt><trkpt lat="31.8155812193" lon="35.0266528688"><ele>351.02</ele><time>2012-04-06T05:35:58Z</time></trkpt><trkpt lat="31.8155484460" lon="35.0266596582"><ele>351.50</ele><time>2012-04-06T05:36:01Z</time></trkpt><trkpt lat="31.8153111544" lon="35.0268013962"><ele>352.46</ele><time>2012-04-06T05:36:16Z</time></trkpt><trkpt lat="31.8151803128" lon="35.0269043259"><ele>354.38</ele><time>2012-04-06T05:36:26Z</time></trkpt><trkpt lat="31.8151652254" lon="35.0269105285"><ele>354.86</ele><time>2012-04-06T05:36:27Z</time></trkpt><trkpt lat="31.8149817456" lon="35.0270644203"><ele>357.27</ele><time>2012-04-06T05:36:43Z</time></trkpt><trkpt lat="31.8148369901" lon="35.0272366684"><ele>358.71</ele><time>2012-04-06T05:36:59Z</time></trkpt><trkpt lat="31.8147323839" lon="35.0274344813"><ele>360.63</ele><time>2012-04-06T05:37:15Z</time></trkpt><trkpt lat="31.8146481458" lon="35.0276887883"><ele>363.04</ele><time>2012-04-06T05:37:32Z</time></trkpt><trkpt lat="31.8146463856" lon="35.0277050491"><ele>363.04</ele><time>2012-04-06T05:37:33Z</time></trkpt><trkpt lat="31.8146009557" lon="35.0279618707"><ele>364.48</ele><time>2012-04-06T05:37:50Z</time></trkpt><trkpt lat="31.8145748042" lon="35.0280762836"><ele>365.44</ele><time>2012-04-06T05:37:57Z</time></trkpt><trkpt lat="31.8144794181" lon="35.0283025950"><ele>367.36</ele><time>2012-04-06T05:38:13Z</time></trkpt><trkpt lat="31.8144535180" lon="35.0283541437"><ele>367.84</ele><time>2012-04-06T05:38:17Z</time></trkpt><trkpt lat="31.8144472316" lon="35.0283690635"><ele>367.84</ele><time>2012-04-06T05:38:18Z</time></trkpt><trkpt lat="31.8143044040" lon="35.0286127254"><ele>370.24</ele><time>2012-04-06T05:38:36Z</time></trkpt><trkpt lat="31.8141117878" lon="35.0287993904"><ele>372.17</ele><time>2012-04-06T05:38:54Z</time></trkpt><trkpt lat="31.8141015619" lon="35.0288078561"><ele>372.65</ele><time>2012-04-06T05:38:55Z</time></trkpt><trkpt lat="31.8140905816" lon="35.0288174953"><ele>373.13</ele><time>2012-04-06T05:38:56Z</time></trkpt><trkpt lat="31.8140800204" lon="35.0288241170"><ele>373.13</ele><time>2012-04-06T05:38:57Z</time></trkpt><trkpt lat="31.8140696269" lon="35.0288288947"><ele>373.13</ele><time>2012-04-06T05:38:58Z</time></trkpt><trkpt lat="31.8138729036" lon="35.0289475825"><ele>375.05</ele><time>2012-04-06T05:39:13Z</time></trkpt><trkpt lat="31.8137387931" lon="35.0292136241"><ele>377.94</ele><time>2012-04-06T05:39:33Z</time></trkpt><trkpt lat="31.8136623502" lon="35.0294827670"><ele>379.38</ele><time>2012-04-06T05:39:51Z</time></trkpt><trkpt lat="31.8136576563" lon="35.0294987764"><ele>379.38</ele><time>2012-04-06T05:39:52Z</time></trkpt><trkpt lat="31.8136020843" lon="35.0297537539"><ele>381.78</ele><time>2012-04-06T05:40:09Z</time></trkpt><trkpt lat="31.8135942891" lon="35.0299974158"><ele>383.22</ele><time>2012-04-06T05:40:25Z</time></trkpt><trkpt lat="31.8135909364" lon="35.0300119165"><ele>383.22</ele><time>2012-04-06T05:40:26Z</time></trkpt><trkpt lat="31.8135874160" lon="35.0300253276"><ele>383.22</ele><time>2012-04-06T05:40:27Z</time></trkpt><trkpt lat="31.8135839794" lon="35.0300387386"><ele>383.22</ele><time>2012-04-06T05:40:28Z</time></trkpt><trkpt lat="31.8135866616" lon="35.0300522335"><ele>383.70</ele><time>2012-04-06T05:40:29Z</time></trkpt><trkpt lat="31.8135900982" lon="35.0300679076"><ele>384.18</ele><time>2012-04-06T05:40:30Z</time></trkpt><trkpt lat="31.8135905173" lon="35.0300846715"><ele>384.18</ele><time>2012-04-06T05:40:31Z</time></trkpt><trkpt lat="31.8136413116" lon="35.0302780420"><ele>385.63</ele><time>2012-04-06T05:40:44Z</time></trkpt><trkpt lat="31.8136882503" lon="35.0304031000"><ele>386.59</ele><time>2012-04-06T05:40:53Z</time></trkpt><trkpt lat="31.8136901781" lon="35.0304194447"><ele>386.59</ele><time>2012-04-06T05:40:54Z</time></trkpt><trkpt lat="31.8136954587" lon="35.0304349512"><ele>387.07</ele><time>2012-04-06T05:40:55Z</time></trkpt><trkpt lat="31.8137014937" lon="35.0304499548"><ele>387.07</ele><time>2012-04-06T05:40:56Z</time></trkpt><trkpt lat="31.8137081992" lon="35.0304621924"><ele>387.07</ele><time>2012-04-06T05:40:57Z</time></trkpt><trkpt lat="31.8137146533" lon="35.0304759387"><ele>387.55</ele><time>2012-04-06T05:40:58Z</time></trkpt><trkpt lat="31.8137309980" lon="35.0305310078"><ele>388.03</ele><time>2012-04-06T05:41:02Z</time></trkpt><trkpt lat="31.8137342669" lon="35.0305462629"><ele>387.55</ele><time>2012-04-06T05:41:03Z</time></trkpt><trkpt lat="31.8137486000" lon="35.0305897649"><ele>388.03</ele><time>2012-04-06T05:41:06Z</time></trkpt><trkpt lat="31.8137531262" lon="35.0306070317"><ele>388.03</ele><time>2012-04-06T05:41:07Z</time></trkpt><trkpt lat="31.8137579877" lon="35.0306236278"><ele>388.03</ele><time>2012-04-06T05:41:08Z</time></trkpt><trkpt lat="31.8137631007" lon="35.0306386314"><ele>388.51</ele><time>2012-04-06T05:41:09Z</time></trkpt><trkpt lat="31.8137667887" lon="35.0306550600"><ele>388.03</ele><time>2012-04-06T05:41:10Z</time></trkpt><trkpt lat="31.8137690518" lon="35.0306707341"><ele>388.51</ele><time>2012-04-06T05:41:11Z</time></trkpt><trkpt lat="31.8137698900" lon="35.0306856539"><ele>388.03</ele><time>2012-04-06T05:41:12Z</time></trkpt><trkpt lat="31.8137709796" lon="35.0306993164"><ele>388.99</ele><time>2012-04-06T05:41:13Z</time></trkpt><trkpt lat="31.8137712311" lon="35.0307144038"><ele>388.99</ele><time>2012-04-06T05:41:14Z</time></trkpt><trkpt lat="31.8137726560" lon="35.0307313353"><ele>388.99</ele><time>2012-04-06T05:41:15Z</time></trkpt><trkpt lat="31.8137754221" lon="35.0307512004"><ele>389.47</ele><time>2012-04-06T05:41:16Z</time></trkpt><trkpt lat="31.8137773499" lon="35.0307706464"><ele>389.47</ele><time>2012-04-06T05:41:17Z</time></trkpt><trkpt lat="31.8137795292" lon="35.0307887513"><ele>389.47</ele><time>2012-04-06T05:41:18Z</time></trkpt><trkpt lat="31.8137826305" lon="35.0308072753"><ele>388.99</ele><time>2012-04-06T05:41:19Z</time></trkpt><trkpt lat="31.8137824629" lon="35.0308242906"><ele>389.47</ele><time>2012-04-06T05:41:20Z</time></trkpt><trkpt lat="31.8137807027" lon="35.0308418088"><ele>389.47</ele><time>2012-04-06T05:41:21Z</time></trkpt><trkpt lat="31.8137789425" lon="35.0308595784"><ele>389.47</ele><time>2012-04-06T05:41:22Z</time></trkpt><trkpt lat="31.8137330096" lon="35.0311352592"><ele>390.91</ele><time>2012-04-06T05:41:37Z</time></trkpt><trkpt lat="31.8137263879" lon="35.0311687868"><ele>390.91</ele><time>2012-04-06T05:41:39Z</time></trkpt><trkpt lat="31.8137187604" lon="35.0311847962"><ele>391.39</ele><time>2012-04-06T05:41:40Z</time></trkpt><trkpt lat="31.8137116358" lon="35.0311998837"><ele>391.39</ele><time>2012-04-06T05:41:41Z</time></trkpt><trkpt lat="31.8137056846" lon="35.0312159769"><ele>391.39</ele><time>2012-04-06T05:41:42Z</time></trkpt><trkpt lat="31.8137011584" lon="35.0312306453"><ele>391.39</ele><time>2012-04-06T05:41:43Z</time></trkpt><trkpt lat="31.8136942852" lon="35.0312442239"><ele>391.39</ele><time>2012-04-06T05:41:44Z</time></trkpt><trkpt lat="31.8136876635" lon="35.0312577188"><ele>391.87</ele><time>2012-04-06T05:41:45Z</time></trkpt><trkpt lat="31.8136346061" lon="35.0313371792"><ele>392.36</ele><time>2012-04-06T05:41:51Z</time></trkpt><trkpt lat="31.8136219494" lon="35.0313495845"><ele>392.36</ele><time>2012-04-06T05:41:52Z</time></trkpt><trkpt lat="31.8136101309" lon="35.0313620735"><ele>392.36</ele><time>2012-04-06T05:41:53Z</time></trkpt><trkpt lat="31.8135986477" lon="35.0313743949"><ele>392.84</ele><time>2012-04-06T05:41:54Z</time></trkpt><trkpt lat="31.8135885056" lon="35.0313834473"><ele>392.84</ele><time>2012-04-06T05:41:55Z</time></trkpt><trkpt lat="31.8135779444" lon="35.0313905720"><ele>392.84</ele><time>2012-04-06T05:41:56Z</time></trkpt><trkpt lat="31.8134496175" lon="35.0314749777"><ele>393.80</ele><time>2012-04-06T05:42:06Z</time></trkpt><trkpt lat="31.8134367932" lon="35.0314784981"><ele>393.80</ele><time>2012-04-06T05:42:07Z</time></trkpt><trkpt lat="31.8134254776" lon="35.0314825214"><ele>394.28</ele><time>2012-04-06T05:42:08Z</time></trkpt><trkpt lat="31.8134142458" lon="35.0314863771"><ele>393.80</ele><time>2012-04-06T05:42:09Z</time></trkpt><trkpt lat="31.8134037685" lon="35.0314907357"><ele>394.28</ele><time>2012-04-06T05:42:10Z</time></trkpt><trkpt lat="31.8133915309" lon="35.0314935856"><ele>394.76</ele><time>2012-04-06T05:42:11Z</time></trkpt><trkpt lat="31.8133412395" lon="35.0315064099"><ele>395.24</ele><time>2012-04-06T05:42:15Z</time></trkpt><trkpt lat="31.8133281637" lon="35.0315090083"><ele>395.24</ele><time>2012-04-06T05:42:16Z</time></trkpt><trkpt lat="31.8133175187" lon="35.0315134507"><ele>395.24</ele><time>2012-04-06T05:42:17Z</time></trkpt><trkpt lat="31.8133069575" lon="35.0315160491"><ele>395.24</ele><time>2012-04-06T05:42:18Z</time></trkpt><trkpt lat="31.8132948875" lon="35.0315174740"><ele>395.24</ele><time>2012-04-06T05:42:19Z</time></trkpt><trkpt lat="31.8132829014" lon="35.0315172225"><ele>395.24</ele><time>2012-04-06T05:42:20Z</time></trkpt><trkpt lat="31.8132280000" lon="35.0315320585"><ele>395.72</ele><time>2012-04-06T05:42:25Z</time></trkpt><trkpt lat="31.8132176064" lon="35.0315320585"><ele>396.20</ele><time>2012-04-06T05:42:26Z</time></trkpt><trkpt lat="31.8132074643" lon="35.0315332320"><ele>396.20</ele><time>2012-04-06T05:42:27Z</time></trkpt><trkpt lat="31.8131202925" lon="35.0315306336"><ele>397.16</ele><time>2012-04-06T05:42:35Z</time></trkpt><trkpt lat="31.8131081387" lon="35.0315294601"><ele>397.64</ele><time>2012-04-06T05:42:36Z</time></trkpt><trkpt lat="31.8130964041" lon="35.0315302145"><ele>397.64</ele><time>2012-04-06T05:42:37Z</time></trkpt><trkpt lat="31.8130856752" lon="35.0315292086"><ele>398.12</ele><time>2012-04-06T05:42:38Z</time></trkpt><trkpt lat="31.8130738568" lon="35.0315292925"><ele>398.12</ele><time>2012-04-06T05:42:39Z</time></trkpt><trkpt lat="31.8130622897" lon="35.0315292925"><ele>397.64</ele><time>2012-04-06T05:42:40Z</time></trkpt><trkpt lat="31.8130504712" lon="35.0315291248"><ele>398.12</ele><time>2012-04-06T05:42:41Z</time></trkpt><trkpt lat="31.8130400777" lon="35.0315265264"><ele>398.12</ele><time>2012-04-06T05:42:42Z</time></trkpt><trkpt lat="31.8130301870" lon="35.0315244310"><ele>398.12</ele><time>2012-04-06T05:42:43Z</time></trkpt><trkpt lat="31.8130184524" lon="35.0315228384"><ele>398.60</ele><time>2012-04-06T05:42:44Z</time></trkpt><trkpt lat="31.8129248265" lon="35.0315194018"><ele>400.05</ele><time>2012-04-06T05:42:53Z</time></trkpt><trkpt lat="31.8127566017" lon="35.0314854551"><ele>401.49</ele><time>2012-04-06T05:43:08Z</time></trkpt><trkpt lat="31.8127423525" lon="35.0314807612"><ele>401.49</ele><time>2012-04-06T05:43:09Z</time></trkpt><trkpt lat="31.8127292767" lon="35.0314791687"><ele>401.49</ele><time>2012-04-06T05:43:10Z</time></trkpt><trkpt lat="31.8127172068" lon="35.0314774085"><ele>401.97</ele><time>2012-04-06T05:43:11Z</time></trkpt><trkpt lat="31.8127053045" lon="35.0314735528"><ele>401.97</ele><time>2012-04-06T05:43:12Z</time></trkpt><trkpt lat="31.8126814160" lon="35.0314693619"><ele>401.97</ele><time>2012-04-06T05:43:14Z</time></trkpt><trkpt lat="31.8126690947" lon="35.0314645842"><ele>402.45</ele><time>2012-04-06T05:43:15Z</time></trkpt><trkpt lat="31.8124598823" lon="35.0314080063"><ele>403.89</ele><time>2012-04-06T05:43:33Z</time></trkpt><trkpt lat="31.8123927433" lon="35.0313902367"><ele>404.85</ele><time>2012-04-06T05:43:39Z</time></trkpt><trkpt lat="31.8122361694" lon="35.0314262789"><ele>406.29</ele><time>2012-04-06T05:43:52Z</time></trkpt><trkpt lat="31.8122257758" lon="35.0314340740"><ele>406.29</ele><time>2012-04-06T05:43:53Z</time></trkpt><trkpt lat="31.8122152146" lon="35.0314404443"><ele>406.29</ele><time>2012-04-06T05:43:54Z</time></trkpt><trkpt lat="31.8122055754" lon="35.0314492453"><ele>406.29</ele><time>2012-04-06T05:43:55Z</time></trkpt><trkpt lat="31.8121974450" lon="35.0314580463"><ele>406.77</ele><time>2012-04-06T05:43:56Z</time></trkpt><trkpt lat="31.8121596426" lon="35.0314984471"><ele>407.26</ele><time>2012-04-06T05:44:01Z</time></trkpt><trkpt lat="31.8121490814" lon="35.0315046497"><ele>407.74</ele><time>2012-04-06T05:44:02Z</time></trkpt><trkpt lat="31.8120892346" lon="35.0315991137"><ele>409.18</ele><time>2012-04-06T05:44:12Z</time></trkpt><trkpt lat="31.8120798469" lon="35.0316083338"><ele>408.70</ele><time>2012-04-06T05:44:13Z</time></trkpt><trkpt lat="31.8120755721" lon="35.0316201523"><ele>409.66</ele><time>2012-04-06T05:44:14Z</time></trkpt><trkpt lat="31.8120410386" lon="35.0318127684"><ele>411.10</ele><time>2012-04-06T05:44:28Z</time></trkpt><trkpt lat="31.8120347522" lon="35.0319282711"><ele>412.06</ele><time>2012-04-06T05:44:36Z</time></trkpt><trkpt lat="31.8120326567" lon="35.0319410954"><ele>412.06</ele><time>2012-04-06T05:44:37Z</time></trkpt><trkpt lat="31.8120309804" lon="35.0319558475"><ele>412.06</ele><time>2012-04-06T05:44:38Z</time></trkpt><trkpt lat="31.8120243587" lon="35.0320453662"><ele>412.54</ele><time>2012-04-06T05:44:44Z</time></trkpt><trkpt lat="31.8120202515" lon="35.0322767068"><ele>413.98</ele><time>2012-04-06T05:44:58Z</time></trkpt><trkpt lat="31.8120161444" lon="35.0323236454"><ele>413.98</ele><time>2012-04-06T05:45:01Z</time></trkpt><trkpt lat="31.8120113667" lon="35.0323393196"><ele>413.98</ele><time>2012-04-06T05:45:02Z</time></trkpt><trkpt lat="31.8120093551" lon="35.0323549937"><ele>414.47</ele><time>2012-04-06T05:45:03Z</time></trkpt><trkpt lat="31.8120068405" lon="35.0323697459"><ele>414.47</ele><time>2012-04-06T05:45:04Z</time></trkpt><trkpt lat="31.8120040745" lon="35.0323877670"><ele>414.47</ele><time>2012-04-06T05:45:05Z</time></trkpt><trkpt lat="31.8119272124" lon="35.0327044353"><ele>415.43</ele><time>2012-04-06T05:45:22Z</time></trkpt><trkpt lat="31.8119224347" lon="35.0327209476"><ele>415.43</ele><time>2012-04-06T05:45:23Z</time></trkpt><trkpt lat="31.8119192496" lon="35.0327373762"><ele>415.43</ele><time>2012-04-06T05:45:24Z</time></trkpt><trkpt lat="31.8119156454" lon="35.0327532180"><ele>415.91</ele><time>2012-04-06T05:45:25Z</time></trkpt><trkpt lat="31.8118806090" lon="35.0328452513"><ele>415.91</ele><time>2012-04-06T05:45:31Z</time></trkpt><trkpt lat="31.8118751608" lon="35.0328628533"><ele>416.39</ele><time>2012-04-06T05:45:32Z</time></trkpt><trkpt lat="31.8117322493" lon="35.0331923459"><ele>417.35</ele><time>2012-04-06T05:45:48Z</time></trkpt><trkpt lat="31.8115627673" lon="35.0335886423"><ele>419.27</ele><time>2012-04-06T05:46:06Z</time></trkpt><trkpt lat="31.8115174212" lon="35.0337057374"><ele>419.75</ele><time>2012-04-06T05:46:12Z</time></trkpt><trkpt lat="31.8115072791" lon="35.0337240100"><ele>420.23</ele><time>2012-04-06T05:46:13Z</time></trkpt><trkpt lat="31.8114983942" lon="35.0337405223"><ele>420.23</ele><time>2012-04-06T05:46:14Z</time></trkpt><trkpt lat="31.8113704026" lon="35.0339702703"><ele>422.16</ele><time>2012-04-06T05:46:30Z</time></trkpt><trkpt lat="31.8113155011" lon="35.0340255909"><ele>423.12</ele><time>2012-04-06T05:46:35Z</time></trkpt><trkpt lat="31.8113049399" lon="35.0340348110"><ele>423.12</ele><time>2012-04-06T05:46:36Z</time></trkpt><trkpt lat="31.8112942111" lon="35.0340466294"><ele>423.12</ele><time>2012-04-06T05:46:37Z</time></trkpt><trkpt lat="31.8112842366" lon="35.0340566877"><ele>423.60</ele><time>2012-04-06T05:46:38Z</time></trkpt><trkpt lat="31.8112769444" lon="35.0340692606"><ele>423.60</ele><time>2012-04-06T05:46:39Z</time></trkpt><trkpt lat="31.8112694006" lon="35.0340825878"><ele>423.60</ele><time>2012-04-06T05:46:40Z</time></trkpt><trkpt lat="31.8112589233" lon="35.0340902992"><ele>423.60</ele><time>2012-04-06T05:46:41Z</time></trkpt><trkpt lat="31.8112465180" lon="35.0340968370"><ele>424.08</ele><time>2012-04-06T05:46:42Z</time></trkpt><trkpt lat="31.8112334423" lon="35.0341069791"><ele>424.08</ele><time>2012-04-06T05:46:43Z</time></trkpt><trkpt lat="31.8111555744" lon="35.0341718551"><ele>425.52</ele><time>2012-04-06T05:46:52Z</time></trkpt><trkpt lat="31.8111443426" lon="35.0341779739"><ele>425.52</ele><time>2012-04-06T05:46:53Z</time></trkpt><trkpt lat="31.8111305963" lon="35.0341825001"><ele>426.00</ele><time>2012-04-06T05:46:54Z</time></trkpt><trkpt lat="31.8111195322" lon="35.0341897085"><ele>425.52</ele><time>2012-04-06T05:46:55Z</time></trkpt><trkpt lat="31.8111093901" lon="35.0341983419"><ele>426.00</ele><time>2012-04-06T05:46:56Z</time></trkpt><trkpt lat="31.8110611103" lon="35.0342275947"><ele>426.48</ele><time>2012-04-06T05:47:01Z</time></trkpt><trkpt lat="31.8110505491" lon="35.0342353899"><ele>426.96</ele><time>2012-04-06T05:47:02Z</time></trkpt><trkpt lat="31.8110189494" lon="35.0342459511"><ele>427.44</ele><time>2012-04-06T05:47:05Z</time></trkpt><trkpt lat="31.8109624553" lon="35.0342658162"><ele>427.92</ele><time>2012-04-06T05:47:11Z</time></trkpt><trkpt lat="31.8108988367" lon="35.0342768803"><ele>428.40</ele><time>2012-04-06T05:47:17Z</time></trkpt><trkpt lat="31.8108891975" lon="35.0342728570"><ele>428.40</ele><time>2012-04-06T05:47:18Z</time></trkpt><trkpt lat="31.8108782172" lon="35.0342751201"><ele>428.89</ele><time>2012-04-06T05:47:19Z</time></trkpt><trkpt lat="31.8108669017" lon="35.0342781376"><ele>428.89</ele><time>2012-04-06T05:47:20Z</time></trkpt><trkpt lat="31.8108560890" lon="35.0342801493"><ele>428.89</ele><time>2012-04-06T05:47:21Z</time></trkpt><trkpt lat="31.8108458631" lon="35.0342838373"><ele>429.37</ele><time>2012-04-06T05:47:22Z</time></trkpt><trkpt lat="31.8108363915" lon="35.0342894532"><ele>428.89</ele><time>2012-04-06T05:47:23Z</time></trkpt><trkpt lat="31.8108266685" lon="35.0342917163"><ele>429.37</ele><time>2012-04-06T05:47:24Z</time></trkpt><trkpt lat="31.8108150177" lon="35.0342918001"><ele>429.37</ele><time>2012-04-06T05:47:25Z</time></trkpt><trkpt lat="31.8106751237" lon="35.0342772994"><ele>430.81</ele><time>2012-04-06T05:47:38Z</time></trkpt><trkpt lat="31.8106294423" lon="35.0342689175"><ele>430.81</ele><time>2012-04-06T05:47:42Z</time></trkpt><trkpt lat="31.8106198031" lon="35.0342700910"><ele>431.29</ele><time>2012-04-06T05:47:43Z</time></trkpt><trkpt lat="31.8106089067" lon="35.0342713483"><ele>431.29</ele><time>2012-04-06T05:47:44Z</time></trkpt><trkpt lat="31.8105716910" lon="35.0342824962"><ele>431.29</ele><time>2012-04-06T05:47:47Z</time></trkpt><trkpt lat="31.8104158714" lon="35.0342609547"><ele>431.77</ele><time>2012-04-06T05:47:59Z</time></trkpt><trkpt lat="31.8104039691" lon="35.0342591107"><ele>431.77</ele><time>2012-04-06T05:48:00Z</time></trkpt><trkpt lat="31.8103895523" lon="35.0342531595"><ele>432.25</ele><time>2012-04-06T05:48:01Z</time></trkpt><trkpt lat="31.8103748839" lon="35.0342504773"><ele>432.25</ele><time>2012-04-06T05:48:02Z</time></trkpt><trkpt lat="31.8103624787" lon="35.0342477951"><ele>432.25</ele><time>2012-04-06T05:48:03Z</time></trkpt><trkpt lat="31.8103491515" lon="35.0342426822"><ele>432.25</ele><time>2012-04-06T05:48:04Z</time></trkpt><trkpt lat="31.8103344832" lon="35.0342389103"><ele>432.25</ele><time>2012-04-06T05:48:05Z</time></trkpt><trkpt lat="31.8103203177" lon="35.0342361443"><ele>432.25</ele><time>2012-04-06T05:48:06Z</time></trkpt><trkpt lat="31.8103038054" lon="35.0342350546"><ele>432.25</ele><time>2012-04-06T05:48:07Z</time></trkpt><trkpt lat="31.8102882151" lon="35.0342355575"><ele>432.25</ele><time>2012-04-06T05:48:08Z</time></trkpt><trkpt lat="31.8102730438" lon="35.0342347194"><ele>432.73</ele><time>2012-04-06T05:48:09Z</time></trkpt><trkpt lat="31.8102154601" lon="35.0342314504"><ele>433.21</ele><time>2012-04-06T05:48:13Z</time></trkpt><trkpt lat="31.8101489916" lon="35.0342152733"><ele>433.69</ele><time>2012-04-06T05:48:18Z</time></trkpt><trkpt lat="31.8101355806" lon="35.0342165306"><ele>433.69</ele><time>2012-04-06T05:48:19Z</time></trkpt><trkpt lat="31.8100483250" lon="35.0342254993"><ele>434.17</ele><time>2012-04-06T05:48:26Z</time></trkpt><trkpt lat="31.8100361712" lon="35.0342222303"><ele>434.65</ele><time>2012-04-06T05:48:27Z</time></trkpt><trkpt lat="31.8100227602" lon="35.0342204701"><ele>434.65</ele><time>2012-04-06T05:48:28Z</time></trkpt><trkpt lat="31.8100090139" lon="35.0342209730"><ele>434.65</ele><time>2012-04-06T05:48:29Z</time></trkpt><trkpt lat="31.8099964410" lon="35.0342239067"><ele>434.65</ele><time>2012-04-06T05:48:30Z</time></trkpt><trkpt lat="31.8099847902" lon="35.0342268404"><ele>434.65</ele><time>2012-04-06T05:48:31Z</time></trkpt><trkpt lat="31.8099735584" lon="35.0342296902"><ele>434.65</ele><time>2012-04-06T05:48:32Z</time></trkpt><trkpt lat="31.8098708801" lon="35.0342488009"><ele>436.10</ele><time>2012-04-06T05:48:41Z</time></trkpt><trkpt lat="31.8098594807" lon="35.0342488009"><ele>436.10</ele><time>2012-04-06T05:48:42Z</time></trkpt><trkpt lat="31.8098496739" lon="35.0342486333"><ele>436.10</ele><time>2012-04-06T05:48:43Z</time></trkpt><trkpt lat="31.8098392803" lon="35.0342501421"><ele>436.58</ele><time>2012-04-06T05:48:44Z</time></trkpt><trkpt lat="31.8098280486" lon="35.0342534948"><ele>436.58</ele><time>2012-04-06T05:48:45Z</time></trkpt><trkpt lat="31.8096483406" lon="35.0343177002"><ele>438.02</ele><time>2012-04-06T05:49:00Z</time></trkpt><trkpt lat="31.8095798604" lon="35.0343550835"><ele>438.98</ele><time>2012-04-06T05:49:06Z</time></trkpt><trkpt lat="31.8095711432" lon="35.0343641359"><ele>438.98</ele><time>2012-04-06T05:49:07Z</time></trkpt><trkpt lat="31.8094316684" lon="35.0344978273"><ele>439.94</ele><time>2012-04-06T05:49:21Z</time></trkpt><trkpt lat="31.8093960453" lon="35.0345347915"><ele>440.42</ele><time>2012-04-06T05:49:25Z</time></trkpt><trkpt lat="31.8093868252" lon="35.0345435925"><ele>440.42</ele><time>2012-04-06T05:49:26Z</time></trkpt><trkpt lat="31.8092762679" lon="35.0346772838"><ele>441.86</ele><time>2012-04-06T05:49:40Z</time></trkpt><trkpt lat="31.8092684727" lon="35.0346869230"><ele>441.86</ele><time>2012-04-06T05:49:41Z</time></trkpt><trkpt lat="31.8092613481" lon="35.0346993282"><ele>442.34</ele><time>2012-04-06T05:49:42Z</time></trkpt><trkpt lat="31.8092517089" lon="35.0347092189"><ele>441.86</ele><time>2012-04-06T05:49:43Z</time></trkpt><trkpt lat="31.8092441652" lon="35.0347217917"><ele>441.86</ele><time>2012-04-06T05:49:44Z</time></trkpt><trkpt lat="31.8092365377" lon="35.0347341970"><ele>442.34</ele><time>2012-04-06T05:49:45Z</time></trkpt><trkpt lat="31.8092286587" lon="35.0347470213"><ele>442.34</ele><time>2012-04-06T05:49:46Z</time></trkpt><trkpt lat="31.8092159182" lon="35.0347683113"><ele>442.82</ele><time>2012-04-06T05:49:48Z</time></trkpt><trkpt lat="31.8091994058" lon="35.0347808842"><ele>442.34</ele><time>2012-04-06T05:49:50Z</time></trkpt><trkpt lat="31.8091817200" lon="35.0348105561"><ele>443.31</ele><time>2012-04-06T05:49:53Z</time></trkpt><trkpt lat="31.8091271538" lon="35.0349054392"><ele>444.27</ele><time>2012-04-06T05:50:02Z</time></trkpt><trkpt lat="31.8091217056" lon="35.0349180959"><ele>444.27</ele><time>2012-04-06T05:50:03Z</time></trkpt><trkpt lat="31.8091153353" lon="35.0349289086"><ele>444.27</ele><time>2012-04-06T05:50:04Z</time></trkpt><trkpt lat="31.8091093842" lon="35.0349412300"><ele>444.75</ele><time>2012-04-06T05:50:05Z</time></trkpt><trkpt lat="31.8091033492" lon="35.0349539705"><ele>444.27</ele><time>2012-04-06T05:50:06Z</time></trkpt><trkpt lat="31.8090968113" lon="35.0349658728"><ele>444.75</ele><time>2012-04-06T05:50:07Z</time></trkpt><trkpt lat="31.8090913631" lon="35.0349793676"><ele>444.75</ele><time>2012-04-06T05:50:08Z</time></trkpt><trkpt lat="31.8089575041" lon="35.0352784339"><ele>446.19</ele><time>2012-04-06T05:50:29Z</time></trkpt><trkpt lat="31.8088719249" lon="35.0355231855"><ele>448.11</ele><time>2012-04-06T05:50:45Z</time></trkpt><trkpt lat="31.8087916262" lon="35.0357503351"><ele>448.59</ele><time>2012-04-06T05:50:58Z</time></trkpt><trkpt lat="31.8087409995" lon="35.0359395146"><ele>451.00</ele><time>2012-04-06T05:51:12Z</time></trkpt><trkpt lat="31.8086571805" lon="35.0361465476"><ele>453.88</ele><time>2012-04-06T05:51:31Z</time></trkpt><trkpt lat="31.8086048774" lon="35.0362628046"><ele>454.84</ele><time>2012-04-06T05:51:41Z</time></trkpt><trkpt lat="31.8085865211" lon="35.0362930633"><ele>455.32</ele><time>2012-04-06T05:51:44Z</time></trkpt><trkpt lat="31.8085798156" lon="35.0363011938"><ele>455.32</ele><time>2012-04-06T05:51:45Z</time></trkpt><trkpt lat="31.8084576912" lon="35.0364870206"><ele>456.76</ele><time>2012-04-06T05:52:03Z</time></trkpt><trkpt lat="31.8084261753" lon="35.0365399104"><ele>457.24</ele><time>2012-04-06T05:52:07Z</time></trkpt><trkpt lat="31.8084183801" lon="35.0365541596"><ele>457.24</ele><time>2012-04-06T05:52:08Z</time></trkpt><trkpt lat="31.8084089085" lon="35.0365679897"><ele>457.24</ele><time>2012-04-06T05:52:09Z</time></trkpt><trkpt lat="31.8083998561" lon="35.0365822390"><ele>457.24</ele><time>2012-04-06T05:52:10Z</time></trkpt><trkpt lat="31.8083904684" lon="35.0365989190"><ele>457.24</ele><time>2012-04-06T05:52:11Z</time></trkpt><trkpt lat="31.8082835153" lon="35.0368399825"><ele>458.21</ele><time>2012-04-06T05:52:25Z</time></trkpt><trkpt lat="31.8082804140" lon="35.0368531421"><ele>458.69</ele><time>2012-04-06T05:52:26Z</time></trkpt><trkpt lat="31.8082766421" lon="35.0368660502"><ele>458.69</ele><time>2012-04-06T05:52:27Z</time></trkpt><trkpt lat="31.8082727864" lon="35.0368789583"><ele>459.17</ele><time>2012-04-06T05:52:28Z</time></trkpt><trkpt lat="31.8082682602" lon="35.0368906092"><ele>459.17</ele><time>2012-04-06T05:52:29Z</time></trkpt><trkpt lat="31.8082633149" lon="35.0369015895"><ele>459.65</ele><time>2012-04-06T05:52:30Z</time></trkpt><trkpt lat="31.8082584534" lon="35.0369128212"><ele>459.65</ele><time>2012-04-06T05:52:31Z</time></trkpt><trkpt lat="31.8082324695" lon="35.0370223727"><ele>461.09</ele><time>2012-04-06T05:52:40Z</time></trkpt><trkpt lat="31.8082278594" lon="35.0370341074"><ele>461.09</ele><time>2012-04-06T05:52:41Z</time></trkpt><trkpt lat="31.8082268536" lon="35.0370464288"><ele>461.09</ele><time>2012-04-06T05:52:42Z</time></trkpt><trkpt lat="31.8082240038" lon="35.0370610971"><ele>461.57</ele><time>2012-04-06T05:52:43Z</time></trkpt><trkpt lat="31.8082188070" lon="35.0370732509"><ele>461.57</ele><time>2012-04-06T05:52:44Z</time></trkpt><trkpt lat="31.8082152028" lon="35.0370839797"><ele>461.57</ele><time>2012-04-06T05:52:45Z</time></trkpt><trkpt lat="31.8082099222" lon="35.0370963849"><ele>461.57</ele><time>2012-04-06T05:52:46Z</time></trkpt><trkpt lat="31.8082071561" lon="35.0371087901"><ele>461.57</ele><time>2012-04-06T05:52:47Z</time></trkpt><trkpt lat="31.8082058150" lon="35.0371243805"><ele>462.05</ele><time>2012-04-06T05:52:48Z</time></trkpt><trkpt lat="31.8082021270" lon="35.0371400546"><ele>462.05</ele><time>2012-04-06T05:52:49Z</time></trkpt><trkpt lat="31.8081636541" lon="35.0373810343"><ele>463.49</ele><time>2012-04-06T05:53:07Z</time></trkpt><trkpt lat="31.8081565294" lon="35.0374815334"><ele>464.45</ele><time>2012-04-06T05:53:15Z</time></trkpt><trkpt lat="31.8081567809" lon="35.0375126302"><ele>464.45</ele><time>2012-04-06T05:53:18Z</time></trkpt><trkpt lat="31.8081578705" lon="35.0375490915"><ele>464.93</ele><time>2012-04-06T05:53:21Z</time></trkpt><trkpt lat="31.8081594631" lon="35.0375708006"><ele>465.42</ele><time>2012-04-06T05:53:23Z</time></trkpt><trkpt lat="31.8081623130" lon="35.0375829544"><ele>464.93</ele><time>2012-04-06T05:53:24Z</time></trkpt><trkpt lat="31.8081711140" lon="35.0376946013"><ele>465.90</ele><time>2012-04-06T05:53:32Z</time></trkpt><trkpt lat="31.8081732094" lon="35.0377096049"><ele>465.90</ele><time>2012-04-06T05:53:33Z</time></trkpt><trkpt lat="31.8081734609" lon="35.0377241056"><ele>465.90</ele><time>2012-04-06T05:53:34Z</time></trkpt><trkpt lat="31.8081720360" lon="35.0377382711"><ele>465.90</ele><time>2012-04-06T05:53:35Z</time></trkpt><trkpt lat="31.8081732094" lon="35.0377519336"><ele>466.38</ele><time>2012-04-06T05:53:36Z</time></trkpt><trkpt lat="31.8081751373" lon="35.0377643388"><ele>466.38</ele><time>2012-04-06T05:53:37Z</time></trkpt><trkpt lat="31.8081833515" lon="35.0379615650"><ele>466.86</ele><time>2012-04-06T05:53:51Z</time></trkpt><trkpt lat="31.8082093354" lon="35.0381598808"><ele>468.30</ele><time>2012-04-06T05:54:04Z</time></trkpt><trkpt lat="31.8082118500" lon="35.0381777342"><ele>468.78</ele><time>2012-04-06T05:54:05Z</time></trkpt><trkpt lat="31.8082156219" lon="35.0381902233"><ele>468.30</ele><time>2012-04-06T05:54:06Z</time></trkpt><trkpt lat="31.8082218245" lon="35.0382027123"><ele>468.78</ele><time>2012-04-06T05:54:07Z</time></trkpt><trkpt lat="31.8082267698" lon="35.0382167939"><ele>468.78</ele><time>2012-04-06T05:54:08Z</time></trkpt><trkpt lat="31.8082327209" lon="35.0382314622"><ele>468.78</ele><time>2012-04-06T05:54:09Z</time></trkpt><trkpt lat="31.8082370795" lon="35.0382462144"><ele>468.78</ele><time>2012-04-06T05:54:10Z</time></trkpt><trkpt lat="31.8083120976" lon="35.0384514872"><ele>470.22</ele><time>2012-04-06T05:54:25Z</time></trkpt><trkpt lat="31.8083183002" lon="35.0384791475"><ele>470.70</ele><time>2012-04-06T05:54:27Z</time></trkpt><trkpt lat="31.8083258439" lon="35.0384877808"><ele>470.70</ele><time>2012-04-06T05:54:28Z</time></trkpt><trkpt lat="31.8083333876" lon="35.0384967495"><ele>470.70</ele><time>2012-04-06T05:54:29Z</time></trkpt><trkpt lat="31.8083397578" lon="35.0385103282"><ele>470.70</ele><time>2012-04-06T05:54:30Z</time></trkpt><trkpt lat="31.8083426077" lon="35.0385231525"><ele>470.70</ele><time>2012-04-06T05:54:31Z</time></trkpt><trkpt lat="31.8083453737" lon="35.0385360606"><ele>471.18</ele><time>2012-04-06T05:54:32Z</time></trkpt><trkpt lat="31.8083509058" lon="35.0385474600"><ele>471.18</ele><time>2012-04-06T05:54:33Z</time></trkpt><trkpt lat="31.8083555158" lon="35.0385629665"><ele>471.66</ele><time>2012-04-06T05:54:34Z</time></trkpt><trkpt lat="31.8083603773" lon="35.0385789759"><ele>472.14</ele><time>2012-04-06T05:54:35Z</time></trkpt><trkpt lat="31.8083664123" lon="35.0385925546"><ele>472.14</ele><time>2012-04-06T05:54:36Z</time></trkpt><trkpt lat="31.8083748780" lon="35.0386042893"><ele>471.66</ele><time>2012-04-06T05:54:37Z</time></trkpt><trkpt lat="31.8083829246" lon="35.0386163592"><ele>471.66</ele><time>2012-04-06T05:54:38Z</time></trkpt><trkpt lat="31.8083901331" lon="35.0386277586"><ele>471.66</ele><time>2012-04-06T05:54:39Z</time></trkpt><trkpt lat="31.8083970062" lon="35.0386397447"><ele>472.14</ele><time>2012-04-06T05:54:40Z</time></trkpt><trkpt lat="31.8084040470" lon="35.0386518985"><ele>472.14</ele><time>2012-04-06T05:54:41Z</time></trkpt><trkpt lat="31.8084125128" lon="35.0386627950"><ele>472.63</ele><time>2012-04-06T05:54:42Z</time></trkpt><trkpt lat="31.8084198888" lon="35.0386757031"><ele>472.63</ele><time>2012-04-06T05:54:43Z</time></trkpt><trkpt lat="31.8084386643" lon="35.0387133379"><ele>473.11</ele><time>2012-04-06T05:54:46Z</time></trkpt><trkpt lat="31.8084443640" lon="35.0387273356"><ele>472.63</ele><time>2012-04-06T05:54:47Z</time></trkpt><trkpt lat="31.8084501475" lon="35.0387406629"><ele>472.63</ele><time>2012-04-06T05:54:48Z</time></trkpt><trkpt lat="31.8085082341" lon="35.0388267450"><ele>474.07</ele><time>2012-04-06T05:54:56Z</time></trkpt><trkpt lat="31.8085881975" lon="35.0389932096"><ele>475.51</ele><time>2012-04-06T05:55:09Z</time></trkpt><trkpt lat="31.8086126726" lon="35.0390486978"><ele>475.99</ele><time>2012-04-06T05:55:14Z</time></trkpt><trkpt lat="31.8086154386" lon="35.0390604325"><ele>475.99</ele><time>2012-04-06T05:55:15Z</time></trkpt><trkpt lat="31.8086216412" lon="35.0390706584"><ele>475.99</ele><time>2012-04-06T05:55:16Z</time></trkpt><trkpt lat="31.8086292688" lon="35.0390787050"><ele>475.99</ele><time>2012-04-06T05:55:17Z</time></trkpt><trkpt lat="31.8086370640" lon="35.0390885118"><ele>476.47</ele><time>2012-04-06T05:55:18Z</time></trkpt><trkpt lat="31.8086434342" lon="35.0390988216"><ele>476.95</ele><time>2012-04-06T05:55:19Z</time></trkpt><trkpt lat="31.8086502235" lon="35.0391091313"><ele>476.47</ele><time>2012-04-06T05:55:20Z</time></trkpt><trkpt lat="31.8087371439" lon="35.0393014122"><ele>477.91</ele><time>2012-04-06T05:55:35Z</time></trkpt><trkpt lat="31.8088434264" lon="35.0395262986"><ele>479.35</ele><time>2012-04-06T05:55:49Z</time></trkpt><trkpt lat="31.8089839909" lon="35.0397867244"><ele>481.28</ele><time>2012-04-06T05:56:03Z</time></trkpt><trkpt lat="31.8091795407" lon="35.0401586294"><ele>481.76</ele><time>2012-04-06T05:56:20Z</time></trkpt><trkpt lat="31.8092627730" lon="35.0404753815"><ele>482.72</ele><time>2012-04-06T05:56:33Z</time></trkpt><trkpt lat="31.8092691433" lon="35.0406381581"><ele>484.64</ele><time>2012-04-06T05:56:43Z</time></trkpt><trkpt lat="31.8092749268" lon="35.0406522397"><ele>484.64</ele><time>2012-04-06T05:56:44Z</time></trkpt><trkpt lat="31.8092796206" lon="35.0406655669"><ele>484.64</ele><time>2012-04-06T05:56:45Z</time></trkpt><trkpt lat="31.8092816323" lon="35.0406804029"><ele>484.64</ele><time>2012-04-06T05:56:46Z</time></trkpt><trkpt lat="31.8092754297" lon="35.0406934787"><ele>484.64</ele><time>2012-04-06T05:56:47Z</time></trkpt><trkpt lat="31.8092674669" lon="35.0407062192"><ele>484.64</ele><time>2012-04-06T05:56:48Z</time></trkpt><trkpt lat="31.8091522995" lon="35.0409125816"><ele>486.56</ele><time>2012-04-06T05:57:03Z</time></trkpt><trkpt lat="31.8090445921" lon="35.0410367176"><ele>488.49</ele><time>2012-04-06T05:57:17Z</time></trkpt><trkpt lat="31.8090061191" lon="35.0410813093"><ele>488.97</ele><time>2012-04-06T05:57:22Z</time></trkpt><trkpt lat="31.8089978211" lon="35.0410906132"><ele>488.97</ele><time>2012-04-06T05:57:23Z</time></trkpt><trkpt lat="31.8089887686" lon="35.0411005039"><ele>488.97</ele><time>2012-04-06T05:57:24Z</time></trkpt><trkpt lat="31.8089629523" lon="35.0411383901"><ele>489.45</ele><time>2012-04-06T05:57:28Z</time></trkpt><trkpt lat="31.8089536484" lon="35.0411460176"><ele>489.45</ele><time>2012-04-06T05:57:29Z</time></trkpt><trkpt lat="31.8088710867" lon="35.0412538089"><ele>490.89</ele><time>2012-04-06T05:57:40Z</time></trkpt><trkpt lat="31.8088660575" lon="35.0412644539"><ele>491.37</ele><time>2012-04-06T05:57:41Z</time></trkpt><trkpt lat="31.8088599388" lon="35.0412756018"><ele>491.37</ele><time>2012-04-06T05:57:42Z</time></trkpt><trkpt lat="31.8088528141" lon="35.0412881747"><ele>491.85</ele><time>2012-04-06T05:57:43Z</time></trkpt><trkpt lat="31.8088443484" lon="35.0413008314"><ele>491.85</ele><time>2012-04-06T05:57:44Z</time></trkpt><trkpt lat="31.8088361342" lon="35.0413129013"><ele>491.37</ele><time>2012-04-06T05:57:45Z</time></trkpt><trkpt lat="31.8088147603" lon="35.0413512066"><ele>491.85</ele><time>2012-04-06T05:57:48Z</time></trkpt><trkpt lat="31.8088064622" lon="35.0413620193"><ele>492.33</ele><time>2012-04-06T05:57:49Z</time></trkpt><trkpt lat="31.8087990861" lon="35.0413722452"><ele>492.33</ele><time>2012-04-06T05:57:50Z</time></trkpt><trkpt lat="31.8087896984" lon="35.0413826387"><ele>491.85</ele><time>2012-04-06T05:57:51Z</time></trkpt><trkpt lat="31.8087808136" lon="35.0413917750"><ele>492.33</ele><time>2012-04-06T05:57:52Z</time></trkpt><trkpt lat="31.8087731022" lon="35.0414029229"><ele>492.33</ele><time>2012-04-06T05:57:53Z</time></trkpt><trkpt lat="31.8087664805" lon="35.0414149929"><ele>492.33</ele><time>2012-04-06T05:57:54Z</time></trkpt><trkpt lat="31.8087575957" lon="35.0414261408"><ele>492.81</ele><time>2012-04-06T05:57:55Z</time></trkpt><trkpt lat="31.8087497167" lon="35.0414372887"><ele>492.81</ele><time>2012-04-06T05:57:56Z</time></trkpt><trkpt lat="31.8087427597" lon="35.0414490234"><ele>492.81</ele><time>2012-04-06T05:57:57Z</time></trkpt><trkpt lat="31.8087369762" lon="35.0414615124"><ele>492.81</ele><time>2012-04-06T05:57:58Z</time></trkpt><trkpt lat="31.8087128364" lon="35.0415034220"><ele>493.29</ele><time>2012-04-06T05:58:02Z</time></trkpt><trkpt lat="31.8087026943" lon="35.0415061042"><ele>493.29</ele><time>2012-04-06T05:58:03Z</time></trkpt><trkpt lat="31.8086932227" lon="35.0415103789"><ele>493.29</ele><time>2012-04-06T05:58:04Z</time></trkpt><trkpt lat="31.8086845055" lon="35.0415208563"><ele>493.29</ele><time>2012-04-06T05:58:05Z</time></trkpt><trkpt lat="31.8086752854" lon="35.0415310822"><ele>493.77</ele><time>2012-04-06T05:58:06Z</time></trkpt><trkpt lat="31.8086647242" lon="35.0415376201"><ele>493.29</ele><time>2012-04-06T05:58:07Z</time></trkpt><trkpt lat="31.8086529896" lon="35.0415421464"><ele>493.77</ele><time>2012-04-06T05:58:08Z</time></trkpt><trkpt lat="31.8086399976" lon="35.0415482651"><ele>493.77</ele><time>2012-04-06T05:58:09Z</time></trkpt><trkpt lat="31.8086240720" lon="35.0415587425"><ele>493.77</ele><time>2012-04-06T05:58:10Z</time></trkpt><trkpt lat="31.8086078949" lon="35.0415713992"><ele>493.77</ele><time>2012-04-06T05:58:11Z</time></trkpt><trkpt lat="31.8084229063" lon="35.0416606665"><ele>495.70</ele><time>2012-04-06T05:58:25Z</time></trkpt><trkpt lat="31.8083613832" lon="35.0416814536"><ele>496.18</ele><time>2012-04-06T05:58:30Z</time></trkpt><trkpt lat="31.8083467986" lon="35.0416891649"><ele>496.66</ele><time>2012-04-06T05:58:31Z</time></trkpt><trkpt lat="31.8082012888" lon="35.0417873170"><ele>498.10</ele><time>2012-04-06T05:58:44Z</time></trkpt><trkpt lat="31.8081416097" lon="35.0419177394"><ele>498.58</ele><time>2012-04-06T05:58:54Z</time></trkpt><trkpt lat="31.8081407715" lon="35.0419340841"><ele>499.06</ele><time>2012-04-06T05:58:55Z</time></trkpt><trkpt lat="31.8081381731" lon="35.0419501774"><ele>499.06</ele><time>2012-04-06T05:58:56Z</time></trkpt><trkpt lat="31.8081339821" lon="35.0419645105"><ele>499.06</ele><time>2012-04-06T05:58:57Z</time></trkpt><trkpt lat="31.8081297074" lon="35.0419800170"><ele>499.06</ele><time>2012-04-06T05:58:58Z</time></trkpt><trkpt lat="31.8081275281" lon="35.0419954397"><ele>499.06</ele><time>2012-04-06T05:58:59Z</time></trkpt><trkpt lat="31.8081098422" lon="35.0421474036"><ele>500.50</ele><time>2012-04-06T05:59:09Z</time></trkpt><trkpt lat="31.8081088364" lon="35.0421628263"><ele>500.50</ele><time>2012-04-06T05:59:10Z</time></trkpt><trkpt lat="31.8081100937" lon="35.0421779975"><ele>500.98</ele><time>2012-04-06T05:59:11Z</time></trkpt><trkpt lat="31.8081042264" lon="35.0422532670"><ele>500.98</ele><time>2012-04-06T05:59:16Z</time></trkpt><trkpt lat="31.8081048131" lon="35.0422698632"><ele>501.46</ele><time>2012-04-06T05:59:17Z</time></trkpt><trkpt lat="31.8081033044" lon="35.0422859564"><ele>501.46</ele><time>2012-04-06T05:59:18Z</time></trkpt><trkpt lat="31.8081007060" lon="35.0424944982"><ele>503.39</ele><time>2012-04-06T05:59:33Z</time></trkpt><trkpt lat="31.8081121892" lon="35.0425488129"><ele>504.35</ele><time>2012-04-06T05:59:38Z</time></trkpt><trkpt lat="31.8081178050" lon="35.0425590388"><ele>503.87</ele><time>2012-04-06T05:59:39Z</time></trkpt><trkpt lat="31.8081213254" lon="35.0425675884"><ele>504.35</ele><time>2012-04-06T05:59:40Z</time></trkpt><trkpt lat="31.8081205711" lon="35.0425809994"><ele>504.35</ele><time>2012-04-06T05:59:41Z</time></trkpt><trkpt lat="31.8081176374" lon="35.0425929017"><ele>504.83</ele><time>2012-04-06T05:59:42Z</time></trkpt><trkpt lat="31.8081141170" lon="35.0426076539"><ele>504.83</ele><time>2012-04-06T05:59:43Z</time></trkpt><trkpt lat="31.8081149552" lon="35.0426227413"><ele>504.83</ele><time>2012-04-06T05:59:44Z</time></trkpt><trkpt lat="31.8081160448" lon="35.0426392537"><ele>504.83</ele><time>2012-04-06T05:59:45Z</time></trkpt><trkpt lat="31.8081154581" lon="35.0426553469"><ele>505.31</ele><time>2012-04-06T05:59:46Z</time></trkpt><trkpt lat="31.8081172183" lon="35.0426710211"><ele>505.31</ele><time>2012-04-06T05:59:47Z</time></trkpt><trkpt lat="31.8081204034" lon="35.0426885393"><ele>505.31</ele><time>2012-04-06T05:59:48Z</time></trkpt><trkpt lat="31.8081224989" lon="35.0427058898"><ele>505.31</ele><time>2012-04-06T05:59:49Z</time></trkpt><trkpt lat="31.8081229180" lon="35.0427207258"><ele>505.31</ele><time>2012-04-06T05:59:50Z</time></trkpt><trkpt lat="31.8081245106" lon="35.0427353103"><ele>505.79</ele><time>2012-04-06T05:59:51Z</time></trkpt><trkpt lat="31.8081282824" lon="35.0427476317"><ele>505.79</ele><time>2012-04-06T05:59:52Z</time></trkpt><trkpt lat="31.8081338983" lon="35.0427581929"><ele>505.79</ele><time>2012-04-06T05:59:53Z</time></trkpt><trkpt lat="31.8081406876" lon="35.0428366475"><ele>506.75</ele><time>2012-04-06T06:00:01Z</time></trkpt><trkpt lat="31.8081398495" lon="35.0428488851"><ele>506.75</ele><time>2012-04-06T06:00:02Z</time></trkpt><trkpt lat="31.8081377540" lon="35.0428612903"><ele>507.23</ele><time>2012-04-06T06:00:03Z</time></trkpt><trkpt lat="31.8081368320" lon="35.0428754557"><ele>507.23</ele><time>2012-04-06T06:00:04Z</time></trkpt><trkpt lat="31.8081343174" lon="35.0428892858"><ele>507.23</ele><time>2012-04-06T06:00:05Z</time></trkpt><trkpt lat="31.8081306294" lon="35.0429031160"><ele>507.23</ele><time>2012-04-06T06:00:06Z</time></trkpt><trkpt lat="31.8081199005" lon="35.0430254918"><ele>508.67</ele><time>2012-04-06T06:00:17Z</time></trkpt><trkpt lat="31.8081296235" lon="35.0431944709"><ele>510.60</ele><time>2012-04-06T06:00:32Z</time></trkpt><trkpt lat="31.8081312161" lon="35.0432079658"><ele>510.12</ele><time>2012-04-06T06:00:33Z</time></trkpt><trkpt lat="31.8081295397" lon="35.0432219636"><ele>510.60</ele><time>2012-04-06T06:00:34Z</time></trkpt><trkpt lat="31.8081282824" lon="35.0432372186"><ele>510.60</ele><time>2012-04-06T06:00:35Z</time></trkpt><trkpt lat="31.8081269413" lon="35.0434213690"><ele>512.52</ele><time>2012-04-06T06:00:49Z</time></trkpt><trkpt lat="31.8081270251" lon="35.0434425753"><ele>513.00</ele><time>2012-04-06T06:00:51Z</time></trkpt><trkpt lat="31.8081204873" lon="35.0434950460"><ele>513.48</ele><time>2012-04-06T06:00:55Z</time></trkpt><trkpt lat="31.8081180565" lon="35.0435078703"><ele>513.48</ele><time>2012-04-06T06:00:56Z</time></trkpt><trkpt lat="31.8081192300" lon="35.0435190182"><ele>513.48</ele><time>2012-04-06T06:00:57Z</time></trkpt><trkpt lat="31.8081157096" lon="35.0435824692"><ele>513.96</ele><time>2012-04-06T06:01:02Z</time></trkpt><trkpt lat="31.8080877140" lon="35.0437149871"><ele>515.40</ele><time>2012-04-06T06:01:14Z</time></trkpt><trkpt lat="31.8080894742" lon="35.0437853951"><ele>515.88</ele><time>2012-04-06T06:01:20Z</time></trkpt><trkpt lat="31.8080853671" lon="35.0438887440"><ele>517.33</ele><time>2012-04-06T06:01:30Z</time></trkpt><trkpt lat="31.8080844451" lon="35.0439032447"><ele>517.81</ele><time>2012-04-06T06:01:31Z</time></trkpt><trkpt lat="31.8080838583" lon="35.0439143926"><ele>517.33</ele><time>2012-04-06T06:01:32Z</time></trkpt><trkpt lat="31.8080561142" lon="35.0441242754"><ele>519.25</ele><time>2012-04-06T06:01:47Z</time></trkpt><trkpt lat="31.8080414459" lon="35.0442852080"><ele>520.21</ele><time>2012-04-06T06:01:59Z</time></trkpt><trkpt lat="31.8080444634" lon="35.0443267822"><ele>521.17</ele><time>2012-04-06T06:02:03Z</time></trkpt><trkpt lat="31.8080420326" lon="35.0444537681"><ele>522.61</ele><time>2012-04-06T06:02:14Z</time></trkpt><trkpt lat="31.8080285378" lon="35.0445095915"><ele>523.09</ele><time>2012-04-06T06:02:18Z</time></trkpt><trkpt lat="31.8080315553" lon="35.0445214100"><ele>522.61</ele><time>2012-04-06T06:02:19Z</time></trkpt><trkpt lat="31.8080350757" lon="35.0445316359"><ele>523.09</ele><time>2012-04-06T06:02:20Z</time></trkpt><trkpt lat="31.8080396857" lon="35.0445424486"><ele>523.09</ele><time>2012-04-06T06:02:21Z</time></trkpt><trkpt lat="31.8080437928" lon="35.0445549376"><ele>523.09</ele><time>2012-04-06T06:02:22Z</time></trkpt><trkpt lat="31.8080446310" lon="35.0445676781"><ele>523.58</ele><time>2012-04-06T06:02:23Z</time></trkpt><trkpt lat="31.8080426194" lon="35.0445807539"><ele>523.58</ele><time>2012-04-06T06:02:24Z</time></trkpt><trkpt lat="31.8080427870" lon="35.0445949193"><ele>524.06</ele><time>2012-04-06T06:02:25Z</time></trkpt><trkpt lat="31.8080448825" lon="35.0446085818"><ele>524.06</ele><time>2012-04-06T06:02:26Z</time></trkpt><trkpt lat="31.8080442119" lon="35.0446245912"><ele>524.54</ele><time>2012-04-06T06:02:27Z</time></trkpt><trkpt lat="31.8080453016" lon="35.0446752179"><ele>524.06</ele><time>2012-04-06T06:02:30Z</time></trkpt><trkpt lat="31.8080486543" lon="35.0446899701"><ele>524.54</ele><time>2012-04-06T06:02:31Z</time></trkpt><trkpt lat="31.8080487382" lon="35.0448757969"><ele>526.46</ele><time>2012-04-06T06:02:46Z</time></trkpt><trkpt lat="31.8080511689" lon="35.0448881183"><ele>526.46</ele><time>2012-04-06T06:02:47Z</time></trkpt><trkpt lat="31.8080523424" lon="35.0450873561"><ele>528.38</ele><time>2012-04-06T06:03:02Z</time></trkpt><trkpt lat="31.8080493249" lon="35.0451003481"><ele>528.38</ele><time>2012-04-06T06:03:03Z</time></trkpt><trkpt lat="31.8080465589" lon="35.0451139268"><ele>528.38</ele><time>2012-04-06T06:03:04Z</time></trkpt><trkpt lat="31.8080442958" lon="35.0451276731"><ele>528.86</ele><time>2012-04-06T06:03:05Z</time></trkpt><trkpt lat="31.8080461398" lon="35.0451415870"><ele>528.38</ele><time>2012-04-06T06:03:06Z</time></trkpt><trkpt lat="31.8080497440" lon="35.0451575126"><ele>528.38</ele><time>2012-04-06T06:03:07Z</time></trkpt><trkpt lat="31.8080510851" lon="35.0451749470"><ele>528.86</ele><time>2012-04-06T06:03:08Z</time></trkpt><trkpt lat="31.8080471456" lon="35.0451955665"><ele>528.38</ele><time>2012-04-06T06:03:09Z</time></trkpt><trkpt lat="31.8080420326" lon="35.0452148449"><ele>528.86</ele><time>2012-04-06T06:03:10Z</time></trkpt><trkpt lat="31.8080405239" lon="35.0452326983"><ele>529.34</ele><time>2012-04-06T06:03:11Z</time></trkpt><trkpt lat="31.8080412783" lon="35.0452496298"><ele>529.34</ele><time>2012-04-06T06:03:12Z</time></trkpt><trkpt lat="31.8080401886" lon="35.0452644657"><ele>529.34</ele><time>2012-04-06T06:03:13Z</time></trkpt><trkpt lat="31.8080406077" lon="35.0453057047"><ele>530.30</ele><time>2012-04-06T06:03:16Z</time></trkpt><trkpt lat="31.8080409430" lon="35.0453202892"><ele>530.30</ele><time>2012-04-06T06:03:17Z</time></trkpt><trkpt lat="31.8080378417" lon="35.0453355443"><ele>530.30</ele><time>2012-04-06T06:03:18Z</time></trkpt><trkpt lat="31.8080313038" lon="35.0453491230"><ele>530.30</ele><time>2012-04-06T06:03:19Z</time></trkpt><trkpt lat="31.8080271129" lon="35.0453615282"><ele>530.79</ele><time>2012-04-06T06:03:20Z</time></trkpt><trkpt lat="31.8080262747" lon="35.0453758612"><ele>530.79</ele><time>2012-04-06T06:03:21Z</time></trkpt><trkpt lat="31.8080209941" lon="35.0454792939"><ele>531.27</ele><time>2012-04-06T06:03:28Z</time></trkpt><trkpt lat="31.8080183957" lon="35.0454943813"><ele>531.75</ele><time>2012-04-06T06:03:29Z</time></trkpt><trkpt lat="31.8079883046" lon="35.0457579084"><ele>532.71</ele><time>2012-04-06T06:03:46Z</time></trkpt><trkpt lat="31.8079745583" lon="35.0459188409"><ele>533.67</ele><time>2012-04-06T06:03:55Z</time></trkpt><trkpt lat="31.8079724628" lon="35.0459340122"><ele>533.67</ele><time>2012-04-06T06:03:56Z</time></trkpt><trkpt lat="31.8079717923" lon="35.0459509436"><ele>533.67</ele><time>2012-04-06T06:03:57Z</time></trkpt><trkpt lat="31.8079710379" lon="35.0459684618"><ele>534.15</ele><time>2012-04-06T06:03:58Z</time></trkpt><trkpt lat="31.8079680204" lon="35.0459846389"><ele>534.15</ele><time>2012-04-06T06:03:59Z</time></trkpt><trkpt lat="31.8079383485" lon="35.0462883152"><ele>535.59</ele><time>2012-04-06T06:04:17Z</time></trkpt><trkpt lat="31.8078945950" lon="35.0464591384"><ele>537.03</ele><time>2012-04-06T06:04:27Z</time></trkpt><trkpt lat="31.8078937568" lon="35.0464747287"><ele>536.55</ele><time>2012-04-06T06:04:28Z</time></trkpt><trkpt lat="31.8078723829" lon="35.0465878844"><ele>537.51</ele><time>2012-04-06T06:04:35Z</time></trkpt><trkpt lat="31.8078649230" lon="35.0466023013"><ele>537.99</ele><time>2012-04-06T06:04:36Z</time></trkpt><trkpt lat="31.8078601453" lon="35.0466168858"><ele>537.99</ele><time>2012-04-06T06:04:37Z</time></trkpt><trkpt lat="31.8078557029" lon="35.0466323085"><ele>537.99</ele><time>2012-04-06T06:04:38Z</time></trkpt><trkpt lat="31.8078540266" lon="35.0466496591"><ele>537.99</ele><time>2012-04-06T06:04:39Z</time></trkpt><trkpt lat="31.8078236002" lon="35.0468715280"><ele>539.92</ele><time>2012-04-06T06:04:53Z</time></trkpt><trkpt lat="31.8078121170" lon="35.0471093226"><ele>541.36</ele><time>2012-04-06T06:05:09Z</time></trkpt><trkpt lat="31.8078027293" lon="35.0472937245"><ele>542.80</ele><time>2012-04-06T06:05:23Z</time></trkpt><trkpt lat="31.8078026455" lon="35.0473167747"><ele>543.28</ele><time>2012-04-06T06:05:25Z</time></trkpt><trkpt lat="31.8078047410" lon="35.0473305210"><ele>543.28</ele><time>2012-04-06T06:05:26Z</time></trkpt><trkpt lat="31.8078200798" lon="35.0475500431"><ele>544.72</ele><time>2012-04-06T06:05:41Z</time></trkpt><trkpt lat="31.8078257795" lon="35.0476236362"><ele>545.69</ele><time>2012-04-06T06:05:46Z</time></trkpt><trkpt lat="31.8078301381" lon="35.0476355385"><ele>546.17</ele><time>2012-04-06T06:05:47Z</time></trkpt><trkpt lat="31.8078308087" lon="35.0476499554"><ele>546.17</ele><time>2012-04-06T06:05:48Z</time></trkpt><trkpt lat="31.8078323174" lon="35.0476640370"><ele>546.17</ele><time>2012-04-06T06:05:49Z</time></trkpt><trkpt lat="31.8078364246" lon="35.0476760231"><ele>546.65</ele><time>2012-04-06T06:05:50Z</time></trkpt><trkpt lat="31.8078405317" lon="35.0476891827"><ele>546.65</ele><time>2012-04-06T06:05:51Z</time></trkpt><trkpt lat="31.8078857102" lon="35.0478891749"><ele>548.09</ele><time>2012-04-06T06:06:05Z</time></trkpt><trkpt lat="31.8078865483" lon="35.0479056872"><ele>548.09</ele><time>2012-04-06T06:06:06Z</time></trkpt><trkpt lat="31.8078904040" lon="35.0479183439"><ele>548.57</ele><time>2012-04-06T06:06:07Z</time></trkpt><trkpt lat="31.8078976125" lon="35.0479324255"><ele>548.57</ele><time>2012-04-06T06:06:08Z</time></trkpt><trkpt lat="31.8079049885" lon="35.0479450822"><ele>549.05</ele><time>2012-04-06T06:06:09Z</time></trkpt><trkpt lat="31.8079087604" lon="35.0479583256"><ele>548.57</ele><time>2012-04-06T06:06:10Z</time></trkpt><trkpt lat="31.8079102691" lon="35.0479736645"><ele>549.05</ele><time>2012-04-06T06:06:11Z</time></trkpt><trkpt lat="31.8079137057" lon="35.0479901768"><ele>549.53</ele><time>2012-04-06T06:06:12Z</time></trkpt><trkpt lat="31.8079179805" lon="35.0480029173"><ele>549.53</ele><time>2012-04-06T06:06:13Z</time></trkpt><trkpt lat="31.8079224229" lon="35.0480166636"><ele>549.53</ele><time>2012-04-06T06:06:14Z</time></trkpt><trkpt lat="31.8079262786" lon="35.0480291527"><ele>549.53</ele><time>2012-04-06T06:06:15Z</time></trkpt><trkpt lat="31.8079266138" lon="35.0480411388"><ele>550.01</ele><time>2012-04-06T06:06:16Z</time></trkpt><trkpt lat="31.8079291284" lon="35.0480569806"><ele>549.53</ele><time>2012-04-06T06:06:17Z</time></trkpt><trkpt lat="31.8079324812" lon="35.0480725709"><ele>550.49</ele><time>2012-04-06T06:06:18Z</time></trkpt><trkpt lat="31.8079383485" lon="35.0481009856"><ele>550.49</ele><time>2012-04-06T06:06:20Z</time></trkpt><trkpt lat="31.8079440482" lon="35.0481148157"><ele>550.49</ele><time>2012-04-06T06:06:21Z</time></trkpt><trkpt lat="31.8079486582" lon="35.0481290650"><ele>550.97</ele><time>2012-04-06T06:06:22Z</time></trkpt><trkpt lat="31.8079531007" lon="35.0481454935"><ele>550.97</ele><time>2012-04-06T06:06:23Z</time></trkpt><trkpt lat="31.8079556152" lon="35.0481601618"><ele>550.97</ele><time>2012-04-06T06:06:24Z</time></trkpt><trkpt lat="31.8079595547" lon="35.0481765065"><ele>550.97</ele><time>2012-04-06T06:06:25Z</time></trkpt><trkpt lat="31.8079643324" lon="35.0481900852"><ele>550.97</ele><time>2012-04-06T06:06:26Z</time></trkpt><trkpt lat="31.8079678528" lon="35.0482028257"><ele>551.45</ele><time>2012-04-06T06:06:27Z</time></trkpt><trkpt lat="31.8079719599" lon="35.0482150633"><ele>551.45</ele><time>2012-04-06T06:06:28Z</time></trkpt><trkpt lat="31.8079776596" lon="35.0482252892"><ele>550.97</ele><time>2012-04-06T06:06:29Z</time></trkpt><trkpt lat="31.8079811800" lon="35.0482393708"><ele>551.45</ele><time>2012-04-06T06:06:30Z</time></trkpt><trkpt lat="31.8079831079" lon="35.0482528657"><ele>551.45</ele><time>2012-04-06T06:06:31Z</time></trkpt><trkpt lat="31.8079895619" lon="35.0482646842"><ele>551.93</ele><time>2012-04-06T06:06:32Z</time></trkpt><trkpt lat="31.8079923280" lon="35.0482793525"><ele>551.93</ele><time>2012-04-06T06:06:33Z</time></trkpt><trkpt lat="31.8079956807" lon="35.0482946914"><ele>551.93</ele><time>2012-04-06T06:06:34Z</time></trkpt><trkpt lat="31.8080002908" lon="35.0483088568"><ele>552.41</ele><time>2012-04-06T06:06:35Z</time></trkpt><trkpt lat="31.8080019671" lon="35.0483251177"><ele>552.41</ele><time>2012-04-06T06:06:36Z</time></trkpt><trkpt lat="31.8080054037" lon="35.0483412109"><ele>552.41</ele><time>2012-04-06T06:06:37Z</time></trkpt><trkpt lat="31.8080081698" lon="35.0483553763"><ele>552.90</ele><time>2012-04-06T06:06:38Z</time></trkpt><trkpt lat="31.8080515880" lon="35.0485142972"><ele>553.38</ele><time>2012-04-06T06:06:49Z</time></trkpt><trkpt lat="31.8080518395" lon="35.0485279597"><ele>553.86</ele><time>2012-04-06T06:06:50Z</time></trkpt><trkpt lat="31.8080556113" lon="35.0485413708"><ele>553.86</ele><time>2012-04-06T06:06:51Z</time></trkpt><trkpt lat="31.8080624845" lon="35.0485546980"><ele>553.86</ele><time>2012-04-06T06:06:52Z</time></trkpt><trkpt lat="31.8080683518" lon="35.0485691987"><ele>554.34</ele><time>2012-04-06T06:06:53Z</time></trkpt><trkpt lat="31.8080746382" lon="35.0485842861"><ele>554.82</ele><time>2012-04-06T06:06:54Z</time></trkpt><trkpt lat="31.8081272766" lon="35.0487816799"><ele>556.26</ele><time>2012-04-06T06:07:08Z</time></trkpt><trkpt lat="31.8081470579" lon="35.0488219131"><ele>555.30</ele><time>2012-04-06T06:07:11Z</time></trkpt><trkpt lat="31.8081513327" lon="35.0488363300"><ele>555.30</ele><time>2012-04-06T06:07:12Z</time></trkpt><trkpt lat="31.8081661686" lon="35.0488784071"><ele>557.22</ele><time>2012-04-06T06:07:15Z</time></trkpt><trkpt lat="31.8081880454" lon="35.0489401817"><ele>557.22</ele><time>2012-04-06T06:07:20Z</time></trkpt><trkpt lat="31.8081948347" lon="35.0489524193"><ele>557.22</ele><time>2012-04-06T06:07:21Z</time></trkpt><trkpt lat="31.8081983551" lon="35.0489650760"><ele>557.22</ele><time>2012-04-06T06:07:22Z</time></trkpt><trkpt lat="31.8082012888" lon="35.0489791576"><ele>557.22</ele><time>2012-04-06T06:07:23Z</time></trkpt><trkpt lat="31.8082083296" lon="35.0489927363"><ele>557.22</ele><time>2012-04-06T06:07:24Z</time></trkpt><trkpt lat="31.8082158733" lon="35.0490051415"><ele>558.18</ele><time>2012-04-06T06:07:25Z</time></trkpt><trkpt lat="31.8082200643" lon="35.0490188878"><ele>558.66</ele><time>2012-04-06T06:07:26Z</time></trkpt><trkpt lat="31.8082202319" lon="35.0490322988"><ele>558.66</ele><time>2012-04-06T06:07:27Z</time></trkpt><trkpt lat="31.8082210701" lon="35.0490432791"><ele>558.66</ele><time>2012-04-06T06:07:28Z</time></trkpt><trkpt lat="31.8082222436" lon="35.0490561035"><ele>558.66</ele><time>2012-04-06T06:07:29Z</time></trkpt><trkpt lat="31.8082266860" lon="35.0490676705"><ele>558.66</ele><time>2012-04-06T06:07:30Z</time></trkpt><trkpt lat="31.8082324695" lon="35.0490802433"><ele>558.66</ele><time>2012-04-06T06:07:31Z</time></trkpt><trkpt lat="31.8083386682" lon="35.0492837559"><ele>560.59</ele><time>2012-04-06T06:07:47Z</time></trkpt><trkpt lat="31.8083403446" lon="35.0492985081"><ele>560.59</ele><time>2012-04-06T06:07:48Z</time></trkpt><trkpt lat="31.8083441164" lon="35.0493097398"><ele>561.07</ele><time>2012-04-06T06:07:49Z</time></trkpt><trkpt lat="31.8083500676" lon="35.0493208878"><ele>561.07</ele><time>2012-04-06T06:07:50Z</time></trkpt><trkpt lat="31.8083581980" lon="35.0493330415"><ele>561.07</ele><time>2012-04-06T06:07:51Z</time></trkpt><trkpt lat="31.8083661608" lon="35.0493452791"><ele>561.55</ele><time>2012-04-06T06:07:52Z</time></trkpt><trkpt lat="31.8083713576" lon="35.0493595283"><ele>561.55</ele><time>2012-04-06T06:07:53Z</time></trkpt><trkpt lat="31.8083742075" lon="35.0493714307"><ele>562.03</ele><time>2012-04-06T06:07:54Z</time></trkpt><trkpt lat="31.8083808292" lon="35.0493830815"><ele>562.03</ele><time>2012-04-06T06:07:55Z</time></trkpt><trkpt lat="31.8084926438" lon="35.0495633762"><ele>563.47</ele><time>2012-04-06T06:08:10Z</time></trkpt><trkpt lat="31.8085585255" lon="35.0496494584"><ele>564.43</ele><time>2012-04-06T06:08:18Z</time></trkpt><trkpt lat="31.8085659016" lon="35.0496609416"><ele>564.43</ele><time>2012-04-06T06:08:19Z</time></trkpt><trkpt lat="31.8085705955" lon="35.0496745203"><ele>564.91</ele><time>2012-04-06T06:08:20Z</time></trkpt><trkpt lat="31.8085700087" lon="35.0496898592"><ele>564.91</ele><time>2012-04-06T06:08:21Z</time></trkpt><trkpt lat="31.8085742835" lon="35.0497325230"><ele>565.39</ele><time>2012-04-06T06:08:25Z</time></trkpt><trkpt lat="31.8085816596" lon="35.0497392286"><ele>565.39</ele><time>2012-04-06T06:08:26Z</time></trkpt><trkpt lat="31.8085895386" lon="35.0497487001"><ele>565.39</ele><time>2012-04-06T06:08:27Z</time></trkpt><trkpt lat="31.8086015247" lon="35.0497559085"><ele>565.39</ele><time>2012-04-06T06:08:28Z</time></trkpt><trkpt lat="31.8086171988" lon="35.0497581717"><ele>565.39</ele><time>2012-04-06T06:08:29Z</time></trkpt><trkpt lat="31.8086339626" lon="35.0497556571"><ele>565.39</ele><time>2012-04-06T06:08:30Z</time></trkpt><trkpt lat="31.8086452782" lon="35.0497450121"><ele>565.39</ele><time>2012-04-06T06:08:31Z</time></trkpt><trkpt lat="31.8086498044" lon="35.0497275777"><ele>565.87</ele><time>2012-04-06T06:08:32Z</time></trkpt><trkpt lat="31.8086527381" lon="35.0497109815"><ele>565.87</ele><time>2012-04-06T06:08:33Z</time></trkpt><trkpt lat="31.8086581025" lon="35.0496950559"><ele>565.87</ele><time>2012-04-06T06:08:34Z</time></trkpt><trkpt lat="31.8086654786" lon="35.0496823993"><ele>565.87</ele><time>2012-04-06T06:08:35Z</time></trkpt><trkpt lat="31.8086906243" lon="35.0496750232"><ele>565.87</ele><time>2012-04-06T06:08:45Z</time></trkpt><trkpt lat="31.8086953182" lon="35.0496706646"><ele>564.91</ele><time>2012-04-06T06:09:16Z</time></trkpt><trkpt lat="31.8087052088" lon="35.0496688206"><ele>565.39</ele><time>2012-04-06T06:09:46Z</time></trkpt><trkpt lat="31.8087106571" lon="35.0496688206"><ele>565.39</ele><time>2012-04-06T06:10:19Z</time></trkpt><trkpt lat="31.8087109085" lon="35.0496697426"><ele>565.87</ele><time>2012-04-06T06:10:48Z</time></trkpt><trkpt lat="31.8087109923" lon="35.0496701617"><ele>565.87</ele><time>2012-04-06T06:11:12Z</time></trkpt><trkpt lat="31.8087085616" lon="35.0496717542"><ele>565.87</ele><time>2012-04-06T06:11:39Z</time></trkpt><trkpt lat="31.8087125011" lon="35.0496723410"><ele>565.87</ele><time>2012-04-06T06:12:10Z</time></trkpt><trkpt lat="31.8087311089" lon="35.0496749394"><ele>566.35</ele><time>2012-04-06T06:12:42Z</time></trkpt><trkpt lat="31.8087362219" lon="35.0496727601"><ele>565.87</ele><time>2012-04-06T06:13:17Z</time></trkpt><trkpt lat="31.8087355513" lon="35.0496760290"><ele>566.35</ele><time>2012-04-06T06:13:46Z</time></trkpt><trkpt lat="31.8087327015" lon="35.0496755261"><ele>566.35</ele><time>2012-04-06T06:14:10Z</time></trkpt><trkpt lat="31.8087303545" lon="35.0496679824"><ele>565.87</ele><time>2012-04-06T06:14:39Z</time></trkpt><trkpt lat="31.8087288458" lon="35.0496611930"><ele>566.35</ele><time>2012-04-06T06:15:05Z</time></trkpt><trkpt lat="31.8087274209" lon="35.0496639591"><ele>566.35</ele><time>2012-04-06T06:15:35Z</time></trkpt><trkpt lat="31.8087205477" lon="35.0496587623"><ele>566.35</ele><time>2012-04-06T06:16:05Z</time></trkpt><trkpt lat="31.8087192066" lon="35.0496555772"><ele>566.35</ele><time>2012-04-06T06:16:35Z</time></trkpt><trkpt lat="31.8087176140" lon="35.0496487040"><ele>566.35</ele><time>2012-04-06T06:17:06Z</time></trkpt><trkpt lat="31.8087136745" lon="35.0496559963"><ele>566.83</ele><time>2012-04-06T06:17:35Z</time></trkpt><trkpt lat="31.8087084778" lon="35.0496624503"><ele>565.87</ele><time>2012-04-06T06:18:06Z</time></trkpt><trkpt lat="31.8087127525" lon="35.0496582594"><ele>566.35</ele><time>2012-04-06T06:18:38Z</time></trkpt><trkpt lat="31.8087296002" lon="35.0496658031"><ele>566.83</ele><time>2012-04-06T06:19:15Z</time></trkpt><trkpt lat="31.8087429274" lon="35.0496687368"><ele>566.83</ele><time>2012-04-06T06:19:55Z</time></trkpt><trkpt lat="31.8087383173" lon="35.0496673957"><ele>566.83</ele><time>2012-04-06T06:20:29Z</time></trkpt><trkpt lat="31.8087329529" lon="35.0496681500"><ele>566.35</ele><time>2012-04-06T06:20:59Z</time></trkpt><trkpt lat="31.8087331206" lon="35.0496647973"><ele>566.35</ele><time>2012-04-06T06:21:30Z</time></trkpt><trkpt lat="31.8087353837" lon="35.0496572535"><ele>566.83</ele><time>2012-04-06T06:22:06Z</time></trkpt><trkpt lat="31.8087368924" lon="35.0496494584"><ele>566.35</ele><time>2012-04-06T06:22:44Z</time></trkpt><trkpt lat="31.8087356351" lon="35.0496419985"><ele>566.83</ele><time>2012-04-06T06:23:18Z</time></trkpt><trkpt lat="31.8087350484" lon="35.0496459380"><ele>566.83</ele><time>2012-04-06T06:23:50Z</time></trkpt><trkpt lat="31.8087249063" lon="35.0496407412"><ele>567.32</ele><time>2012-04-06T06:24:29Z</time></trkpt><trkpt lat="31.8087244034" lon="35.0496437587"><ele>566.83</ele><time>2012-04-06T06:25:07Z</time></trkpt><trkpt lat="31.8087240681" lon="35.0496436749"><ele>567.32</ele><time>2012-04-06T06:25:33Z</time></trkpt><trkpt lat="31.8087166920" lon="35.0496502966"><ele>566.83</ele><time>2012-04-06T06:26:04Z</time></trkpt><trkpt lat="31.8087130878" lon="35.0496543199"><ele>567.32</ele><time>2012-04-06T06:26:28Z</time></trkpt><trkpt lat="31.8087123334" lon="35.0496538170"><ele>567.32</ele><time>2012-04-06T06:26:57Z</time></trkpt><trkpt lat="31.8087155186" lon="35.0496440940"><ele>567.32</ele><time>2012-04-06T06:27:30Z</time></trkpt><trkpt lat="31.8087179493" lon="35.0496461056"><ele>567.32</ele><time>2012-04-06T06:28:04Z</time></trkpt><trkpt lat="31.8087202962" lon="35.0496521406"><ele>567.32</ele><time>2012-04-06T06:28:35Z</time></trkpt><trkpt lat="31.8087149318" lon="35.0496506318"><ele>567.80</ele><time>2012-04-06T06:29:09Z</time></trkpt><trkpt lat="31.8087153509" lon="35.0496482011"><ele>566.83</ele><time>2012-04-06T06:29:37Z</time></trkpt><trkpt lat="31.8087243196" lon="35.0496445969"><ele>567.32</ele><time>2012-04-06T06:30:09Z</time></trkpt><trkpt lat="31.8087233137" lon="35.0496463571"><ele>567.32</ele><time>2012-04-06T06:30:39Z</time></trkpt><trkpt lat="31.8087315280" lon="35.0496566668"><ele>567.32</ele><time>2012-04-06T06:31:14Z</time></trkpt><trkpt lat="31.8087351322" lon="35.0496604387"><ele>567.32</ele><time>2012-04-06T06:31:43Z</time></trkpt><trkpt lat="31.8087318633" lon="35.0496563315"><ele>567.80</ele><time>2012-04-06T06:32:12Z</time></trkpt><trkpt lat="31.8087297678" lon="35.0496524759"><ele>567.80</ele><time>2012-04-06T06:32:43Z</time></trkpt><trkpt lat="31.8087259121" lon="35.0496570021"><ele>567.32</ele><time>2012-04-06T06:33:14Z</time></trkpt><trkpt lat="31.8087262474" lon="35.0496622827"><ele>567.32</ele><time>2012-04-06T06:33:42Z</time></trkpt><trkpt lat="31.8087231461" lon="35.0496684015"><ele>567.80</ele><time>2012-04-06T06:34:12Z</time></trkpt><trkpt lat="31.8087219726" lon="35.0496614445"><ele>567.80</ele><time>2012-04-06T06:34:44Z</time></trkpt><trkpt lat="31.8087191228" lon="35.0496522244"><ele>567.80</ele><time>2012-04-06T06:35:18Z</time></trkpt><trkpt lat="31.8087200448" lon="35.0496495422"><ele>567.80</ele><time>2012-04-06T06:35:50Z</time></trkpt><trkpt lat="31.8087191228" lon="35.0496562477"><ele>567.32</ele><time>2012-04-06T06:36:17Z</time></trkpt><trkpt lat="31.8086854275" lon="35.0496674795"><ele>568.28</ele><time>2012-04-06T06:36:35Z</time></trkpt><trkpt lat="31.8086577673" lon="35.0496834889"><ele>568.28</ele><time>2012-04-06T06:36:44Z</time></trkpt><trkpt lat="31.8086431827" lon="35.0496984925"><ele>567.80</ele><time>2012-04-06T06:36:45Z</time></trkpt><trkpt lat="31.8086259998" lon="35.0497204531"><ele>567.80</ele><time>2012-04-06T06:36:46Z</time></trkpt><trkpt lat="31.8086141814" lon="35.0497449283"><ele>567.80</ele><time>2012-04-06T06:36:47Z</time></trkpt><trkpt lat="31.8086148519" lon="35.0497641228"><ele>567.80</ele><time>2012-04-06T06:36:48Z</time></trkpt><trkpt lat="31.8086195458" lon="35.0497835688"><ele>568.76</ele><time>2012-04-06T06:36:49Z</time></trkpt><trkpt lat="31.8086238205" lon="35.0498003326"><ele>568.76</ele><time>2012-04-06T06:36:50Z</time></trkpt><trkpt lat="31.8086270057" lon="35.0498210359"><ele>568.28</ele><time>2012-04-06T06:36:51Z</time></trkpt><trkpt lat="31.8086294364" lon="35.0498410687"><ele>568.76</ele><time>2012-04-06T06:36:52Z</time></trkpt><trkpt lat="31.8086295202" lon="35.0498594251"><ele>568.28</ele><time>2012-04-06T06:36:53Z</time></trkpt><trkpt lat="31.8086273409" lon="35.0498769432"><ele>568.28</ele><time>2012-04-06T06:36:54Z</time></trkpt><trkpt lat="31.8086217251" lon="35.0498932041"><ele>568.28</ele><time>2012-04-06T06:36:55Z</time></trkpt><trkpt lat="31.8086135946" lon="35.0499078725"><ele>568.28</ele><time>2012-04-06T06:36:56Z</time></trkpt><trkpt lat="31.8086058833" lon="35.0499222055"><ele>568.76</ele><time>2012-04-06T06:36:57Z</time></trkpt><trkpt lat="31.8085950706" lon="35.0499341078"><ele>568.76</ele><time>2012-04-06T06:36:58Z</time></trkpt><trkpt lat="31.8085830845" lon="35.0499469321"><ele>569.24</ele><time>2012-04-06T06:36:59Z</time></trkpt><trkpt lat="31.8085734453" lon="35.0499626063"><ele>568.76</ele><time>2012-04-06T06:37:00Z</time></trkpt><trkpt lat="31.8083768897" lon="35.0500843115"><ele>569.72</ele><time>2012-04-06T06:37:12Z</time></trkpt><trkpt lat="31.8080287054" lon="35.0502276421"><ele>570.68</ele><time>2012-04-06T06:37:25Z</time></trkpt><trkpt lat="31.8076939322" lon="35.0503437314"><ele>570.68</ele><time>2012-04-06T06:37:35Z</time></trkpt><trkpt lat="31.8076559622" lon="35.0503677037"><ele>570.68</ele><time>2012-04-06T06:37:36Z</time></trkpt><trkpt lat="31.8076185789" lon="35.0503923465"><ele>570.68</ele><time>2012-04-06T06:37:37Z</time></trkpt><trkpt lat="31.8074478395" lon="35.0505186617"><ele>570.20</ele><time>2012-04-06T06:37:42Z</time></trkpt><trkpt lat="31.8074216880" lon="35.0505533628"><ele>570.20</ele><time>2012-04-06T06:37:43Z</time></trkpt><trkpt lat="31.8073967937" lon="35.0505903270"><ele>570.20</ele><time>2012-04-06T06:37:44Z</time></trkpt><trkpt lat="31.8072905950" lon="35.0508859567"><ele>569.72</ele><time>2012-04-06T06:37:51Z</time></trkpt><trkpt lat="31.8072884157" lon="35.0509364158"><ele>569.24</ele><time>2012-04-06T06:37:52Z</time></trkpt><trkpt lat="31.8072876614" lon="35.0509890541"><ele>569.24</ele><time>2012-04-06T06:37:53Z</time></trkpt><trkpt lat="31.8072882481" lon="35.0510430336"><ele>569.24</ele><time>2012-04-06T06:37:54Z</time></trkpt><trkpt lat="31.8072915170" lon="35.0510991085"><ele>568.76</ele><time>2012-04-06T06:37:55Z</time></trkpt><trkpt lat="31.8072978035" lon="35.0512734521"><ele>568.28</ele><time>2012-04-06T06:37:58Z</time></trkpt><trkpt lat="31.8073698040" lon="35.0516275037"><ele>567.32</ele><time>2012-04-06T06:38:04Z</time></trkpt><trkpt lat="31.8074100371" lon="35.0517331995"><ele>566.83</ele><time>2012-04-06T06:38:06Z</time></trkpt><trkpt lat="31.8074232806" lon="35.0517746061"><ele>566.83</ele><time>2012-04-06T06:38:07Z</time></trkpt><trkpt lat="31.8074348476" lon="35.0518011767"><ele>566.83</ele><time>2012-04-06T06:38:08Z</time></trkpt><trkpt lat="31.8074416369" lon="35.0518195331"><ele>566.35</ele><time>2012-04-06T06:38:09Z</time></trkpt><trkpt lat="31.8074448220" lon="35.0518369675"><ele>566.83</ele><time>2012-04-06T06:38:10Z</time></trkpt><trkpt lat="31.8074498512" lon="35.0518534798"><ele>566.83</ele><time>2012-04-06T06:38:11Z</time></trkpt><trkpt lat="31.8074603286" lon="35.0518675614"><ele>566.83</ele><time>2012-04-06T06:38:25Z</time></trkpt><trkpt lat="31.8074632622" lon="35.0518790446"><ele>566.83</ele><time>2012-04-06T06:38:46Z</time></trkpt><trkpt lat="31.8074755836" lon="35.0518911984"><ele>566.83</ele><time>2012-04-06T06:38:47Z</time></trkpt><trkpt lat="31.8074868992" lon="35.0519071240"><ele>566.83</ele><time>2012-04-06T06:38:48Z</time></trkpt><trkpt lat="31.8074987177" lon="35.0519306771"><ele>567.32</ele><time>2012-04-06T06:38:49Z</time></trkpt><trkpt lat="31.8075143080" lon="35.0519581698"><ele>566.83</ele><time>2012-04-06T06:38:50Z</time></trkpt><trkpt lat="31.8078621570" lon="35.0525298994"><ele>565.39</ele><time>2012-04-06T06:39:03Z</time></trkpt><trkpt lat="31.8080971856" lon="35.0529111084"><ele>562.99</ele><time>2012-04-06T06:39:09Z</time></trkpt><trkpt lat="31.8082770612" lon="35.0532970950"><ele>561.07</ele><time>2012-04-06T06:39:14Z</time></trkpt><trkpt lat="31.8085187953" lon="35.0540055335"><ele>559.62</ele><time>2012-04-06T06:39:23Z</time></trkpt><trkpt lat="31.8085254170" lon="35.0540853292"><ele>558.66</ele><time>2012-04-06T06:39:24Z</time></trkpt><trkpt lat="31.8085260876" lon="35.0541682262"><ele>558.66</ele><time>2012-04-06T06:39:25Z</time></trkpt><trkpt lat="31.8085223157" lon="35.0542499498"><ele>558.66</ele><time>2012-04-06T06:39:26Z</time></trkpt><trkpt lat="31.8085136823" lon="35.0543332659"><ele>558.18</ele><time>2012-04-06T06:39:27Z</time></trkpt><trkpt lat="31.8084562663" lon="35.0551936682"><ele>560.59</ele><time>2012-04-06T06:39:39Z</time></trkpt><trkpt lat="31.8085057195" lon="35.0559491292"><ele>559.14</ele><time>2012-04-06T06:39:53Z</time></trkpt><trkpt lat="31.8085067254" lon="35.0559812319"><ele>558.66</ele><time>2012-04-06T06:40:02Z</time></trkpt><trkpt lat="31.8085110001" lon="35.0559888594"><ele>558.66</ele><time>2012-04-06T06:40:28Z</time></trkpt><trkpt lat="31.8085148558" lon="35.0560093112"><ele>558.66</ele><time>2012-04-06T06:40:29Z</time></trkpt><trkpt lat="31.8085190468" lon="35.0560380612"><ele>558.18</ele><time>2012-04-06T06:40:30Z</time></trkpt><trkpt lat="31.8086152710" lon="35.0565841421"><ele>557.22</ele><time>2012-04-06T06:40:39Z</time></trkpt><trkpt lat="31.8088725954" lon="35.0578203890"><ele>556.26</ele><time>2012-04-06T06:40:54Z</time></trkpt><trkpt lat="31.8089163490" lon="35.0588363595"><ele>555.78</ele><time>2012-04-06T06:41:05Z</time></trkpt><trkpt lat="31.8089074641" lon="35.0590005610"><ele>556.26</ele><time>2012-04-06T06:41:07Z</time></trkpt><trkpt lat="31.8088581786" lon="35.0594900642"><ele>559.14</ele><time>2012-04-06T06:41:16Z</time></trkpt><trkpt lat="31.8088449351" lon="35.0595759787"><ele>560.11</ele><time>2012-04-06T06:41:21Z</time></trkpt><trkpt lat="31.8088344578" lon="35.0595837738"><ele>560.59</ele><time>2012-04-06T06:41:22Z</time></trkpt><trkpt lat="31.8088255730" lon="35.0595982745"><ele>560.59</ele><time>2012-04-06T06:41:23Z</time></trkpt><trkpt lat="31.8088186998" lon="35.0596141163"><ele>560.59</ele><time>2012-04-06T06:41:24Z</time></trkpt><trkpt lat="31.8088161852" lon="35.0596315507"><ele>560.59</ele><time>2012-04-06T06:41:25Z</time></trkpt><trkpt lat="31.8088155147" lon="35.0596507452"><ele>561.07</ele><time>2012-04-06T06:41:26Z</time></trkpt><trkpt lat="31.8088120781" lon="35.0596676767"><ele>561.07</ele><time>2012-04-06T06:41:27Z</time></trkpt><trkpt lat="31.8088067137" lon="35.0596816745"><ele>561.55</ele><time>2012-04-06T06:41:28Z</time></trkpt><trkpt lat="31.8088036124" lon="35.0596948341"><ele>561.55</ele><time>2012-04-06T06:41:29Z</time></trkpt><trkpt lat="31.8087536562" lon="35.0598646514"><ele>563.47</ele><time>2012-04-06T06:41:41Z</time></trkpt><trkpt lat="31.8087464478" lon="35.0598878693"><ele>563.95</ele><time>2012-04-06T06:41:43Z</time></trkpt><trkpt lat="31.8086842541" lon="35.0600595307"><ele>565.87</ele><time>2012-04-06T06:41:57Z</time></trkpt><trkpt lat="31.8085994292" lon="35.0602848362"><ele>568.28</ele><time>2012-04-06T06:42:13Z</time></trkpt><trkpt lat="31.8085124251" lon="35.0604790449"><ele>570.68</ele><time>2012-04-06T06:42:27Z</time></trkpt><trkpt lat="31.8083972577" lon="35.0607390516"><ele>572.12</ele><time>2012-04-06T06:42:43Z</time></trkpt><trkpt lat="31.8082487304" lon="35.0610625092"><ele>573.56</ele><time>2012-04-06T06:43:01Z</time></trkpt><trkpt lat="31.8080364168" lon="35.0614412874"><ele>575.49</ele><time>2012-04-06T06:43:15Z</time></trkpt><trkpt lat="31.8076963630" lon="35.0619208161"><ele>577.41</ele><time>2012-04-06T06:43:33Z</time></trkpt><trkpt lat="31.8074636813" lon="35.0622406695"><ele>579.33</ele><time>2012-04-06T06:43:47Z</time></trkpt><trkpt lat="31.8071258906" lon="35.0626662187"><ele>580.29</ele><time>2012-04-06T06:44:03Z</time></trkpt><trkpt lat="31.8067370541" lon="35.0630978867"><ele>579.81</ele><time>2012-04-06T06:44:16Z</time></trkpt><trkpt lat="31.8062492274" lon="35.0637800060"><ele>579.81</ele><time>2012-04-06T06:44:32Z</time></trkpt><trkpt lat="31.8056513462" lon="35.0647282507"><ele>578.85</ele><time>2012-04-06T06:44:48Z</time></trkpt><trkpt lat="31.8051848933" lon="35.0653744955"><ele>579.81</ele><time>2012-04-06T06:45:00Z</time></trkpt><trkpt lat="31.8051586580" lon="35.0654121302"><ele>579.81</ele><time>2012-04-06T06:45:01Z</time></trkpt><trkpt lat="31.8049833924" lon="35.0657250267"><ele>582.22</ele><time>2012-04-06T06:45:13Z</time></trkpt><trkpt lat="31.8048509583" lon="35.0660808384"><ele>585.10</ele><time>2012-04-06T06:45:30Z</time></trkpt><trkpt lat="31.8047917821" lon="35.0664973352"><ele>587.02</ele><time>2012-04-06T06:45:46Z</time></trkpt><trkpt lat="31.8046345375" lon="35.0668554939"><ele>589.43</ele><time>2012-04-06T06:46:01Z</time></trkpt><trkpt lat="31.8046233058" lon="35.0668684859"><ele>589.91</ele><time>2012-04-06T06:46:02Z</time></trkpt><trkpt lat="31.8046105653" lon="35.0668829866"><ele>589.43</ele><time>2012-04-06T06:46:03Z</time></trkpt><trkpt lat="31.8045956455" lon="35.0668967329"><ele>589.91</ele><time>2012-04-06T06:46:04Z</time></trkpt><trkpt lat="31.8045801390" lon="35.0669108145"><ele>589.91</ele><time>2012-04-06T06:46:05Z</time></trkpt><trkpt lat="31.8045648839" lon="35.0669265725"><ele>590.39</ele><time>2012-04-06T06:46:06Z</time></trkpt><trkpt lat="31.8045487069" lon="35.0669444259"><ele>590.39</ele><time>2012-04-06T06:46:07Z</time></trkpt><trkpt lat="31.8043319508" lon="35.0672508683"><ele>591.83</ele><time>2012-04-06T06:46:23Z</time></trkpt><trkpt lat="31.8042749539" lon="35.0676798541"><ele>593.27</ele><time>2012-04-06T06:46:39Z</time></trkpt><trkpt lat="31.8042368162" lon="35.0682053994"><ele>592.79</ele><time>2012-04-06T06:46:50Z</time></trkpt><trkpt lat="31.8042119220" lon="35.0682675932"><ele>592.31</ele><time>2012-04-06T06:46:51Z</time></trkpt><trkpt lat="31.8037664238" lon="35.0691594277"><ele>589.91</ele><time>2012-04-06T06:47:05Z</time></trkpt><trkpt lat="31.8034914974" lon="35.0695280638"><ele>588.95</ele><time>2012-04-06T06:47:13Z</time></trkpt><trkpt lat="31.8034556229" lon="35.0695750024"><ele>588.95</ele><time>2012-04-06T06:47:14Z</time></trkpt><trkpt lat="31.8029628508" lon="35.0703449640"><ele>586.54</ele><time>2012-04-06T06:47:26Z</time></trkpt><trkpt lat="31.8024075497" lon="35.0712487008"><ele>583.66</ele><time>2012-04-06T06:47:38Z</time></trkpt><trkpt lat="31.8023422547" lon="35.0713765249"><ele>583.66</ele><time>2012-04-06T06:47:40Z</time></trkpt><trkpt lat="31.8023216352" lon="35.0714359526"><ele>584.14</ele><time>2012-04-06T06:47:41Z</time></trkpt><trkpt lat="31.8023109064" lon="35.0714914408"><ele>584.14</ele><time>2012-04-06T06:47:42Z</time></trkpt><trkpt lat="31.8023091462" lon="35.0715423189"><ele>584.14</ele><time>2012-04-06T06:47:43Z</time></trkpt><trkpt lat="31.8023114093" lon="35.0715840608"><ele>584.62</ele><time>2012-04-06T06:47:44Z</time></trkpt><trkpt lat="31.8023194559" lon="35.0716163311"><ele>585.10</ele><time>2012-04-06T06:47:45Z</time></trkpt><trkpt lat="31.8023301847" lon="35.0716425665"><ele>584.62</ele><time>2012-04-06T06:47:46Z</time></trkpt><trkpt lat="31.8023492116" lon="35.0717449933"><ele>585.58</ele><time>2012-04-06T06:47:52Z</time></trkpt><trkpt lat="31.8023502175" lon="35.0717612542"><ele>585.58</ele><time>2012-04-06T06:47:53Z</time></trkpt><trkpt lat="31.8023507204" lon="35.0717758387"><ele>585.58</ele><time>2012-04-06T06:47:54Z</time></trkpt><trkpt lat="31.8023627065" lon="35.0718536228"><ele>586.06</ele><time>2012-04-06T06:48:06Z</time></trkpt><trkpt lat="31.8023645505" lon="35.0718586519"><ele>585.58</ele><time>2012-04-06T06:48:38Z</time></trkpt><trkpt lat="31.8023606949" lon="35.0718711410"><ele>586.06</ele><time>2012-04-06T06:49:12Z</time></trkpt><trkpt lat="31.8023573421" lon="35.0718703866"><ele>585.58</ele><time>2012-04-06T06:49:40Z</time></trkpt><trkpt lat="31.8023451883" lon="35.0718690455"><ele>586.06</ele><time>2012-04-06T06:50:10Z</time></trkpt><trkpt lat="31.8023596890" lon="35.0718992203"><ele>586.06</ele><time>2012-04-06T06:50:31Z</time></trkpt><trkpt lat="31.8023645505" lon="35.0719476677"><ele>586.06</ele><time>2012-04-06T06:50:33Z</time></trkpt><trkpt lat="31.8023544922" lon="35.0719776750"><ele>586.06</ele><time>2012-04-06T06:50:34Z</time></trkpt><trkpt lat="31.8023353815" lon="35.0720125437"><ele>585.58</ele><time>2012-04-06T06:50:35Z</time></trkpt><trkpt lat="31.8023083918" lon="35.0720500108"><ele>585.58</ele><time>2012-04-06T06:50:36Z</time></trkpt><trkpt lat="31.8022763729" lon="35.0720899086"><ele>585.10</ele><time>2012-04-06T06:50:37Z</time></trkpt><trkpt lat="31.8018488958" lon="35.0727385003"><ele>584.14</ele><time>2012-04-06T06:50:51Z</time></trkpt><trkpt lat="31.8017456308" lon="35.0729172863"><ele>584.62</ele><time>2012-04-06T06:50:55Z</time></trkpt><trkpt lat="31.8017238379" lon="35.0729676615"><ele>584.14</ele><time>2012-04-06T06:50:56Z</time></trkpt><trkpt lat="31.8014696985" lon="35.0736618508"><ele>583.66</ele><time>2012-04-06T06:51:09Z</time></trkpt><trkpt lat="31.8013808504" lon="35.0739770103"><ele>583.66</ele><time>2012-04-06T06:51:15Z</time></trkpt><trkpt lat="31.8013623264" lon="35.0740292296"><ele>583.66</ele><time>2012-04-06T06:51:16Z</time></trkpt><trkpt lat="31.8012612406" lon="35.0743159745"><ele>583.18</ele><time>2012-04-06T06:51:22Z</time></trkpt><trkpt lat="31.8010989670" lon="35.0748384185"><ele>583.66</ele><time>2012-04-06T06:51:31Z</time></trkpt><trkpt lat="31.8011240289" lon="35.0753574260"><ele>586.06</ele><time>2012-04-06T06:51:44Z</time></trkpt><trkpt lat="31.8013359234" lon="35.0757029280"><ele>586.06</ele><time>2012-04-06T06:51:57Z</time></trkpt><trkpt lat="31.8013743963" lon="35.0757038500"><ele>586.06</ele><time>2012-04-06T06:51:58Z</time></trkpt><trkpt lat="31.8014092650" lon="35.0756958034"><ele>586.06</ele><time>2012-04-06T06:51:59Z</time></trkpt><trkpt lat="31.8014424574" lon="35.0756811351"><ele>586.54</ele><time>2012-04-06T06:52:00Z</time></trkpt><trkpt lat="31.8014739733" lon="35.0756603479"><ele>586.54</ele><time>2012-04-06T06:52:01Z</time></trkpt><trkpt lat="31.8015047349" lon="35.0756366272"><ele>586.54</ele><time>2012-04-06T06:52:02Z</time></trkpt><trkpt lat="31.8016797490" lon="35.0754681509"><ele>586.54</ele><time>2012-04-06T06:52:08Z</time></trkpt><trkpt lat="31.8017136957" lon="35.0754399039"><ele>586.54</ele><time>2012-04-06T06:52:09Z</time></trkpt><trkpt lat="31.8017463852" lon="35.0754123274"><ele>586.06</ele><time>2012-04-06T06:52:10Z</time></trkpt><trkpt lat="31.8017790746" lon="35.0753851701"><ele>586.54</ele><time>2012-04-06T06:52:11Z</time></trkpt><trkpt lat="31.8018120155" lon="35.0753631257"><ele>587.02</ele><time>2012-04-06T06:52:12Z</time></trkpt><trkpt lat="31.8022130057" lon="35.0752748642"><ele>587.50</ele><time>2012-04-06T06:52:23Z</time></trkpt><trkpt lat="31.8025544845" lon="35.0753881037"><ele>589.43</ele><time>2012-04-06T06:52:35Z</time></trkpt><trkpt lat="31.8027872499" lon="35.0755716674"><ele>591.35</ele><time>2012-04-06T06:52:46Z</time></trkpt><trkpt lat="31.8028143235" lon="35.0756020937"><ele>591.35</ele><time>2012-04-06T06:52:49Z</time></trkpt><trkpt lat="31.8028226215" lon="35.0756155048"><ele>592.31</ele><time>2012-04-06T06:52:50Z</time></trkpt><trkpt lat="31.8028354459" lon="35.0756289996"><ele>591.83</ele><time>2012-04-06T06:52:51Z</time></trkpt><trkpt lat="31.8028507847" lon="35.0756439194"><ele>592.31</ele><time>2012-04-06T06:52:52Z</time></trkpt><trkpt lat="31.8028657045" lon="35.0756599288"><ele>592.79</ele><time>2012-04-06T06:52:53Z</time></trkpt><trkpt lat="31.8029765971" lon="35.0758113060"><ele>594.23</ele><time>2012-04-06T06:53:02Z</time></trkpt><trkpt lat="31.8029893376" lon="35.0758262258"><ele>594.23</ele><time>2012-04-06T06:53:03Z</time></trkpt><trkpt lat="31.8030035868" lon="35.0758420676"><ele>594.23</ele><time>2012-04-06T06:53:04Z</time></trkpt><trkpt lat="31.8032240309" lon="35.0761571433"><ele>594.71</ele><time>2012-04-06T06:53:18Z</time></trkpt><trkpt lat="31.8033704627" lon="35.0764083490"><ele>596.64</ele><time>2012-04-06T06:53:30Z</time></trkpt><trkpt lat="31.8037095107" lon="35.0769360736"><ele>594.71</ele><time>2012-04-06T06:53:46Z</time></trkpt><trkpt lat="31.8039383367" lon="35.0773891993"><ele>595.19</ele><time>2012-04-06T06:53:59Z</time></trkpt><trkpt lat="31.8040480558" lon="35.0777955540"><ele>598.08</ele><time>2012-04-06T06:54:13Z</time></trkpt><trkpt lat="31.8040700164" lon="35.0781076122"><ele>600.96</ele><time>2012-04-06T06:54:28Z</time></trkpt><trkpt lat="31.8040707707" lon="35.0782809500"><ele>601.92</ele><time>2012-04-06T06:54:38Z</time></trkpt><trkpt lat="31.8040688429" lon="35.0783002283"><ele>602.40</ele><time>2012-04-06T06:54:39Z</time></trkpt><trkpt lat="31.8040700164" lon="35.0783189200"><ele>601.92</ele><time>2012-04-06T06:54:40Z</time></trkpt><trkpt lat="31.8040725309" lon="35.0785826147"><ele>603.85</ele><time>2012-04-06T06:54:56Z</time></trkpt><trkpt lat="31.8040486425" lon="35.0788443815"><ele>606.25</ele><time>2012-04-06T06:55:13Z</time></trkpt><trkpt lat="31.8040317949" lon="35.0790052302"><ele>608.65</ele><time>2012-04-06T06:55:26Z</time></trkpt><trkpt lat="31.8040164560" lon="35.0790684298"><ele>608.65</ele><time>2012-04-06T06:55:32Z</time></trkpt><trkpt lat="31.8039890472" lon="35.0791959185"><ele>610.09</ele><time>2012-04-06T06:55:42Z</time></trkpt><trkpt lat="31.8039867841" lon="35.0792079046"><ele>610.09</ele><time>2012-04-06T06:55:43Z</time></trkpt><trkpt lat="31.8039635662" lon="35.0793403387"><ele>611.54</ele><time>2012-04-06T06:55:55Z</time></trkpt><trkpt lat="31.8039128557" lon="35.0795031153"><ele>613.94</ele><time>2012-04-06T06:56:09Z</time></trkpt><trkpt lat="31.8039092515" lon="35.0795130059"><ele>613.46</ele><time>2012-04-06T06:56:10Z</time></trkpt><trkpt lat="31.8038613908" lon="35.0796747766"><ele>614.90</ele><time>2012-04-06T06:56:23Z</time></trkpt><trkpt lat="31.8038136978" lon="35.0798671413"><ele>617.30</ele><time>2012-04-06T06:56:38Z</time></trkpt><trkpt lat="31.8037696090" lon="35.0800427422"><ele>619.71</ele><time>2012-04-06T06:56:53Z</time></trkpt><trkpt lat="31.8037377577" lon="35.0801518746"><ele>620.67</ele><time>2012-04-06T06:57:01Z</time></trkpt><trkpt lat="31.8037318904" lon="35.0801627710"><ele>620.19</ele><time>2012-04-06T06:57:02Z</time></trkpt><trkpt lat="31.8037290405" lon="35.0801774394"><ele>620.67</ele><time>2012-04-06T06:57:03Z</time></trkpt><trkpt lat="31.8037244305" lon="35.0801926944"><ele>620.67</ele><time>2012-04-06T06:57:04Z</time></trkpt><trkpt lat="31.8037218321" lon="35.0802086201"><ele>620.67</ele><time>2012-04-06T06:57:05Z</time></trkpt><trkpt lat="31.8036508374" lon="35.0804588199"><ele>623.07</ele><time>2012-04-06T06:57:22Z</time></trkpt><trkpt lat="31.8036029767" lon="35.0806448143"><ele>624.03</ele><time>2012-04-06T06:57:35Z</time></trkpt><trkpt lat="31.8035147153" lon="35.0808725506"><ele>625.47</ele><time>2012-04-06T06:57:50Z</time></trkpt><trkpt lat="31.8034594785" lon="35.0809729658"><ele>625.96</ele><time>2012-04-06T06:57:59Z</time></trkpt><trkpt lat="31.8034533598" lon="35.0809828565"><ele>626.44</ele><time>2012-04-06T06:58:00Z</time></trkpt><trkpt lat="31.8033758271" lon="35.0810877979"><ele>627.88</ele><time>2012-04-06T06:58:12Z</time></trkpt><trkpt lat="31.8033220153" lon="35.0811601337"><ele>629.32</ele><time>2012-04-06T06:58:21Z</time></trkpt><trkpt lat="31.8033148069" lon="35.0811715331"><ele>629.32</ele><time>2012-04-06T06:58:22Z</time></trkpt><trkpt lat="31.8032120448" lon="35.0813299511"><ele>630.76</ele><time>2012-04-06T06:58:37Z</time></trkpt><trkpt lat="31.8031398766" lon="35.0815192983"><ele>632.20</ele><time>2012-04-06T06:58:52Z</time></trkpt><trkpt lat="31.8030504417" lon="35.0817106571"><ele>633.65</ele><time>2012-04-06T06:59:08Z</time></trkpt><trkpt lat="31.8029853143" lon="35.0819357950"><ele>635.57</ele><time>2012-04-06T06:59:23Z</time></trkpt><trkpt lat="31.8029118050" lon="35.0820767786"><ele>637.01</ele><time>2012-04-06T06:59:36Z</time></trkpt><trkpt lat="31.8028412294" lon="35.0821352005"><ele>638.93</ele><time>2012-04-06T06:59:45Z</time></trkpt><trkpt lat="31.8027946260" lon="35.0820953026"><ele>639.89</ele><time>2012-04-06T06:59:51Z</time></trkpt><trkpt lat="31.8027901836" lon="35.0820559915"><ele>638.93</ele><time>2012-04-06T07:00:03Z</time></trkpt><trkpt lat="31.8027939554" lon="35.0820219610"><ele>639.89</ele><time>2012-04-06T07:00:20Z</time></trkpt><trkpt lat="31.8027954642" lon="35.0820163451"><ele>640.38</ele><time>2012-04-06T07:00:46Z</time></trkpt><trkpt lat="31.8027936202" lon="35.0820161775"><ele>640.38</ele><time>2012-04-06T07:01:18Z</time></trkpt><trkpt lat="31.8027964700" lon="35.0820108131"><ele>639.41</ele><time>2012-04-06T07:01:43Z</time></trkpt><trkpt lat="31.8028015830" lon="35.0817227270"><ele>639.89</ele><time>2012-04-06T07:01:58Z</time></trkpt><trkpt lat="31.8026170973" lon="35.0814297795"><ele>642.78</ele><time>2012-04-06T07:02:14Z</time></trkpt><trkpt lat="31.8023370579" lon="35.0812953338"><ele>645.18</ele><time>2012-04-06T07:02:30Z</time></trkpt><trkpt lat="31.8021372333" lon="35.0811333116"><ele>645.66</ele><time>2012-04-06T07:02:44Z</time></trkpt><trkpt lat="31.8019296974" lon="35.0808075070"><ele>644.70</ele><time>2012-04-06T07:02:59Z</time></trkpt><trkpt lat="31.8017820921" lon="35.0806709658"><ele>644.22</ele><time>2012-04-06T07:03:04Z</time></trkpt><trkpt lat="31.8017448764" lon="35.0806499273"><ele>644.22</ele><time>2012-04-06T07:03:05Z</time></trkpt><trkpt lat="31.8017032184" lon="35.0806330796"><ele>644.22</ele><time>2012-04-06T07:03:06Z</time></trkpt><trkpt lat="31.8015004601" lon="35.0805432256"><ele>642.30</ele><time>2012-04-06T07:03:11Z</time></trkpt><trkpt lat="31.8014536891" lon="35.0805196725"><ele>641.82</ele><time>2012-04-06T07:03:12Z</time></trkpt><trkpt lat="31.8014130369" lon="35.0805013161"><ele>641.34</ele><time>2012-04-06T07:03:13Z</time></trkpt><trkpt lat="31.8013780005" lon="35.0804877374"><ele>640.86</ele><time>2012-04-06T07:03:14Z</time></trkpt><trkpt lat="31.8013478257" lon="35.0804772601"><ele>640.38</ele><time>2012-04-06T07:03:15Z</time></trkpt><trkpt lat="31.8013228476" lon="35.0804651901"><ele>640.38</ele><time>2012-04-06T07:03:16Z</time></trkpt><trkpt lat="31.8013031501" lon="35.0804525334"><ele>639.89</ele><time>2012-04-06T07:03:17Z</time></trkpt><trkpt lat="31.8012874760" lon="35.0804418884"><ele>639.41</ele><time>2012-04-06T07:03:18Z</time></trkpt><trkpt lat="31.8012680300" lon="35.0804317463"><ele>639.89</ele><time>2012-04-06T07:03:29Z</time></trkpt><trkpt lat="31.8012415431" lon="35.0804272201"><ele>639.89</ele><time>2012-04-06T07:03:40Z</time></trkpt><trkpt lat="31.8012122065" lon="35.0804361887"><ele>639.89</ele><time>2012-04-06T07:03:46Z</time></trkpt><trkpt lat="31.8012003880" lon="35.0804397091"><ele>638.93</ele><time>2012-04-06T07:04:01Z</time></trkpt><trkpt lat="31.8011962809" lon="35.0804131385"><ele>639.41</ele><time>2012-04-06T07:04:11Z</time></trkpt><trkpt lat="31.8011998013" lon="35.0803915970"><ele>639.41</ele><time>2012-04-06T07:04:12Z</time></trkpt><trkpt lat="31.8012062553" lon="35.0803684629"><ele>639.41</ele><time>2012-04-06T07:04:13Z</time></trkpt><trkpt lat="31.8012294732" lon="35.0799415726"><ele>637.49</ele><time>2012-04-06T07:04:22Z</time></trkpt><trkpt lat="31.8012018129" lon="35.0798792113"><ele>637.01</ele><time>2012-04-06T07:04:23Z</time></trkpt><trkpt lat="31.8011608254" lon="35.0798220467"><ele>636.53</ele><time>2012-04-06T07:04:24Z</time></trkpt><trkpt lat="31.8011151440" lon="35.0797637925"><ele>636.05</ele><time>2012-04-06T07:04:25Z</time></trkpt><trkpt lat="31.8010742404" lon="35.0796999224"><ele>636.05</ele><time>2012-04-06T07:04:26Z</time></trkpt><trkpt lat="31.8010483403" lon="35.0796283409"><ele>635.57</ele><time>2012-04-06T07:04:27Z</time></trkpt><trkpt lat="31.8010319117" lon="35.0795520656"><ele>635.57</ele><time>2012-04-06T07:04:28Z</time></trkpt><trkpt lat="31.8010212667" lon="35.0794736948"><ele>635.57</ele><time>2012-04-06T07:04:29Z</time></trkpt><trkpt lat="31.8010120466" lon="35.0793971680"><ele>635.57</ele><time>2012-04-06T07:04:30Z</time></trkpt><trkpt lat="31.8009916786" lon="35.0792372413"><ele>634.13</ele><time>2012-04-06T07:04:32Z</time></trkpt><trkpt lat="31.8009650242" lon="35.0789778214"><ele>633.17</ele><time>2012-04-06T07:04:35Z</time></trkpt><trkpt lat="31.8009216897" lon="35.0781843066"><ele>629.80</ele><time>2012-04-06T07:04:43Z</time></trkpt><trkpt lat="31.8009191751" lon="35.0780719891"><ele>629.32</ele><time>2012-04-06T07:04:44Z</time></trkpt><trkpt lat="31.8009230308" lon="35.0775667280"><ele>625.96</ele><time>2012-04-06T07:04:48Z</time></trkpt><trkpt lat="31.8009449914" lon="35.0771456212"><ele>621.63</ele><time>2012-04-06T07:04:51Z</time></trkpt><trkpt lat="31.8009681255" lon="35.0768481474"><ele>617.30</ele><time>2012-04-06T07:04:54Z</time></trkpt><trkpt lat="31.8009824585" lon="35.0767795835"><ele>615.86</ele><time>2012-04-06T07:04:55Z</time></trkpt><trkpt lat="31.8010130525" lon="35.0767184794"><ele>615.38</ele><time>2012-04-06T07:04:56Z</time></trkpt><trkpt lat="31.8010867294" lon="35.0766019709"><ele>614.42</ele><time>2012-04-06T07:04:58Z</time></trkpt><trkpt lat="31.8011010624" lon="35.0765373465"><ele>613.94</ele><time>2012-04-06T07:04:59Z</time></trkpt><trkpt lat="31.8010923453" lon="35.0764712133"><ele>613.94</ele><time>2012-04-06T07:05:00Z</time></trkpt><trkpt lat="31.8010605779" lon="35.0764122047"><ele>612.98</ele><time>2012-04-06T07:05:01Z</time></trkpt><trkpt lat="31.8010136392" lon="35.0763702113"><ele>612.50</ele><time>2012-04-06T07:05:02Z</time></trkpt><trkpt lat="31.8009647727" lon="35.0763526931"><ele>612.50</ele><time>2012-04-06T07:05:03Z</time></trkpt><trkpt lat="31.8009190913" lon="35.0763595663"><ele>612.50</ele><time>2012-04-06T07:05:04Z</time></trkpt><trkpt lat="31.8008790258" lon="35.0763744861"><ele>612.02</ele><time>2012-04-06T07:05:05Z</time></trkpt><trkpt lat="31.8008383736" lon="35.0763812754"><ele>612.50</ele><time>2012-04-06T07:05:06Z</time></trkpt><trkpt lat="31.8007974699" lon="35.0763746537"><ele>612.02</ele><time>2012-04-06T07:05:07Z</time></trkpt><trkpt lat="31.8007548060" lon="35.0763568841"><ele>612.02</ele><time>2012-04-06T07:05:08Z</time></trkpt><trkpt lat="31.8007086217" lon="35.0763321575"><ele>612.50</ele><time>2012-04-06T07:05:09Z</time></trkpt><trkpt lat="31.8006580789" lon="35.0763096940"><ele>612.02</ele><time>2012-04-06T07:05:10Z</time></trkpt><trkpt lat="31.8005453423" lon="35.0762601569"><ele>610.57</ele><time>2012-04-06T07:05:12Z</time></trkpt><trkpt lat="31.8004875071" lon="35.0762228575"><ele>610.57</ele><time>2012-04-06T07:05:13Z</time></trkpt><trkpt lat="31.8003646284" lon="35.0761444028"><ele>609.61</ele><time>2012-04-06T07:05:15Z</time></trkpt><trkpt lat="31.7994978558" lon="35.0757622719"><ele>609.61</ele><time>2012-04-06T07:05:27Z</time></trkpt><trkpt lat="31.7994660884" lon="35.0757277384"><ele>610.09</ele><time>2012-04-06T07:05:28Z</time></trkpt><trkpt lat="31.7994241789" lon="35.0757182669"><ele>611.06</ele><time>2012-04-06T07:05:29Z</time></trkpt><trkpt lat="31.7993888073" lon="35.0757112261"><ele>611.54</ele><time>2012-04-06T07:05:30Z</time></trkpt><trkpt lat="31.7993582971" lon="35.0756947976"><ele>612.02</ele><time>2012-04-06T07:05:31Z</time></trkpt><trkpt lat="31.7993075866" lon="35.0756823085"><ele>612.50</ele><time>2012-04-06T07:05:33Z</time></trkpt><trkpt lat="31.7992866319" lon="35.0756816380"><ele>612.50</ele><time>2012-04-06T07:05:34Z</time></trkpt><trkpt lat="31.7992665991" lon="35.0756744295"><ele>612.98</ele><time>2012-04-06T07:05:35Z</time></trkpt><trkpt lat="31.7992461473" lon="35.0756603479"><ele>613.46</ele><time>2012-04-06T07:05:36Z</time></trkpt><trkpt lat="31.7992256954" lon="35.0756472722"><ele>613.94</ele><time>2012-04-06T07:05:37Z</time></trkpt><trkpt lat="31.7992056627" lon="35.0756353699"><ele>613.46</ele><time>2012-04-06T07:05:38Z</time></trkpt><trkpt lat="31.7991855461" lon="35.0756237190"><ele>613.94</ele><time>2012-04-06T07:05:39Z</time></trkpt><trkpt lat="31.7991654295" lon="35.0756108947"><ele>613.94</ele><time>2012-04-06T07:05:40Z</time></trkpt><trkpt lat="31.7988982145" lon="35.0754880160"><ele>615.86</ele><time>2012-04-06T07:05:54Z</time></trkpt><trkpt lat="31.7985544726" lon="35.0754124951"><ele>617.78</ele><time>2012-04-06T07:06:09Z</time></trkpt><trkpt lat="31.7981026880" lon="35.0753887743"><ele>618.26</ele><time>2012-04-06T07:06:23Z</time></trkpt><trkpt lat="31.7979891133" lon="35.0755146705"><ele>618.75</ele><time>2012-04-06T07:06:27Z</time></trkpt><trkpt lat="31.7979874369" lon="35.0755709130"><ele>618.75</ele><time>2012-04-06T07:06:28Z</time></trkpt><trkpt lat="31.7979964893" lon="35.0756238867"><ele>619.23</ele><time>2012-04-06T07:06:29Z</time></trkpt><trkpt lat="31.7980156001" lon="35.0756751839"><ele>619.23</ele><time>2012-04-06T07:06:30Z</time></trkpt><trkpt lat="31.7980366386" lon="35.0757189374"><ele>619.23</ele><time>2012-04-06T07:06:31Z</time></trkpt><trkpt lat="31.7980637960" lon="35.0757471006"><ele>618.26</ele><time>2012-04-06T07:06:32Z</time></trkpt><trkpt lat="31.7980915401" lon="35.0757698156"><ele>618.75</ele><time>2012-04-06T07:06:33Z</time></trkpt><trkpt lat="31.7984151654" lon="35.0759594981"><ele>618.26</ele><time>2012-04-06T07:06:44Z</time></trkpt><trkpt lat="31.7984382156" lon="35.0759402197"><ele>618.75</ele><time>2012-04-06T07:06:45Z</time></trkpt><trkpt lat="31.7984549794" lon="35.0759256352"><ele>618.75</ele><time>2012-04-06T07:06:46Z</time></trkpt><trkpt lat="31.7984749284" lon="35.0759154093"><ele>618.75</ele><time>2012-04-06T07:06:47Z</time></trkpt><trkpt lat="31.7984892614" lon="35.0759042613"><ele>618.75</ele><time>2012-04-06T07:06:48Z</time></trkpt><trkpt lat="31.7985003255" lon="35.0758934487"><ele>619.23</ele><time>2012-04-06T07:06:49Z</time></trkpt><trkpt lat="31.7985126469" lon="35.0758425705"><ele>619.23</ele><time>2012-04-06T07:06:59Z</time></trkpt><trkpt lat="31.7984710727" lon="35.0758652017"><ele>618.75</ele><time>2012-04-06T07:07:15Z</time></trkpt><trkpt lat="31.7984657083" lon="35.0758672133"><ele>619.23</ele><time>2012-04-06T07:07:40Z</time></trkpt><trkpt lat="31.7984668817" lon="35.0758719910"><ele>619.23</ele><time>2012-04-06T07:08:10Z</time></trkpt><trkpt lat="31.7984631937" lon="35.0758776907"><ele>619.23</ele><time>2012-04-06T07:08:46Z</time></trkpt><trkpt lat="31.7984657921" lon="35.0758795347"><ele>619.71</ele><time>2012-04-06T07:09:21Z</time></trkpt><trkpt lat="31.7984657083" lon="35.0758858211"><ele>619.71</ele><time>2012-04-06T07:09:58Z</time></trkpt><trkpt lat="31.7984573264" lon="35.0759006571"><ele>619.71</ele><time>2012-04-06T07:10:34Z</time></trkpt><trkpt lat="31.7984520458" lon="35.0758973882"><ele>619.23</ele><time>2012-04-06T07:11:05Z</time></trkpt><trkpt lat="31.7984539736" lon="35.0758864079"><ele>619.71</ele><time>2012-04-06T07:11:39Z</time></trkpt><trkpt lat="31.7984467652" lon="35.0758925267"><ele>619.23</ele><time>2012-04-06T07:12:16Z</time></trkpt><trkpt lat="31.7984457593" lon="35.0758941192"><ele>619.71</ele><time>2012-04-06T07:12:56Z</time></trkpt><trkpt lat="31.7984505370" lon="35.0758900121"><ele>620.19</ele><time>2012-04-06T07:13:30Z</time></trkpt><trkpt lat="31.7984568235" lon="35.0758916046"><ele>620.19</ele><time>2012-04-06T07:14:00Z</time></trkpt><trkpt lat="31.7984543927" lon="35.0758973043"><ele>620.19</ele><time>2012-04-06T07:14:38Z</time></trkpt><trkpt lat="31.7984621879" lon="35.0758876652"><ele>619.71</ele><time>2012-04-06T07:15:16Z</time></trkpt><trkpt lat="31.7984631099" lon="35.0758817978"><ele>619.71</ele><time>2012-04-06T07:15:46Z</time></trkpt><trkpt lat="31.7984528840" lon="35.0758828036"><ele>620.19</ele><time>2012-04-06T07:16:18Z</time></trkpt><trkpt lat="31.7984414008" lon="35.0758890063"><ele>620.19</ele><time>2012-04-06T07:16:49Z</time></trkpt><trkpt lat="31.7984363716" lon="35.0758812111"><ele>620.19</ele><time>2012-04-06T07:17:23Z</time></trkpt><trkpt lat="31.7984379642" lon="35.0758702308"><ele>620.67</ele><time>2012-04-06T07:17:56Z</time></trkpt><trkpt lat="31.7984449212" lon="35.0758747570"><ele>620.67</ele><time>2012-04-06T07:18:33Z</time></trkpt><trkpt lat="31.7984553147" lon="35.0758750923"><ele>620.67</ele><time>2012-04-06T07:19:07Z</time></trkpt><trkpt lat="31.7984508723" lon="35.0758921914"><ele>620.67</ele><time>2012-04-06T07:19:50Z</time></trkpt><trkpt lat="31.7984566558" lon="35.0758983940"><ele>620.67</ele><time>2012-04-06T07:20:28Z</time></trkpt><trkpt lat="31.7984590027" lon="35.0759102125"><ele>621.15</ele><time>2012-04-06T07:21:09Z</time></trkpt><trkpt lat="31.7984647024" lon="35.0759039260"><ele>621.15</ele><time>2012-04-06T07:21:44Z</time></trkpt><trkpt lat="31.7984544765" lon="35.0759033393"><ele>621.15</ele><time>2012-04-06T07:22:26Z</time></trkpt><trkpt lat="31.7984603439" lon="35.0759017467"><ele>621.63</ele><time>2012-04-06T07:23:04Z</time></trkpt><trkpt lat="31.7984610982" lon="35.0759063568"><ele>621.63</ele><time>2012-04-06T07:23:39Z</time></trkpt><trkpt lat="31.7984601762" lon="35.0759058539"><ele>621.15</ele><time>2012-04-06T07:24:12Z</time></trkpt><trkpt lat="31.7984562367" lon="35.0759058539"><ele>621.63</ele><time>2012-04-06T07:24:45Z</time></trkpt><trkpt lat="31.7984595057" lon="35.0759033393"><ele>621.63</ele><time>2012-04-06T07:25:17Z</time></trkpt><trkpt lat="31.7984559014" lon="35.0758973882"><ele>621.63</ele><time>2012-04-06T07:25:45Z</time></trkpt><trkpt lat="31.7984503694" lon="35.0759066921"><ele>622.11</ele><time>2012-04-06T07:26:07Z</time></trkpt><trkpt lat="31.7984419037" lon="35.0758992322"><ele>622.11</ele><time>2012-04-06T07:26:38Z</time></trkpt><trkpt lat="31.7984524649" lon="35.0759070273"><ele>622.11</ele><time>2012-04-06T07:27:13Z</time></trkpt><trkpt lat="31.7984439153" lon="35.0759079494"><ele>622.59</ele><time>2012-04-06T07:27:51Z</time></trkpt><trkpt lat="31.7984456755" lon="35.0759062730"><ele>622.11</ele><time>2012-04-06T07:28:06Z</time></trkpt><trkpt lat="31.7984263971" lon="35.0758913532"><ele>622.59</ele><time>2012-04-06T07:28:10Z</time></trkpt><trkpt lat="31.7984116450" lon="35.0759038422"><ele>623.07</ele><time>2012-04-06T07:28:12Z</time></trkpt><trkpt lat="31.7981670611" lon="35.0760474242"><ele>621.63</ele><time>2012-04-06T07:28:22Z</time></trkpt><trkpt lat="31.7981129140" lon="35.0761423074"><ele>621.63</ele><time>2012-04-06T07:28:26Z</time></trkpt><trkpt lat="31.7978089862" lon="35.0763979554"><ele>620.19</ele><time>2012-04-06T07:28:39Z</time></trkpt><trkpt lat="31.7977498099" lon="35.0764572993"><ele>620.19</ele><time>2012-04-06T07:28:41Z</time></trkpt><trkpt lat="31.7977114208" lon="35.0764769129"><ele>620.19</ele><time>2012-04-06T07:28:42Z</time></trkpt><trkpt lat="31.7976701818" lon="35.0764909107"><ele>619.71</ele><time>2012-04-06T07:28:43Z</time></trkpt><trkpt lat="31.7976291943" lon="35.0764961913"><ele>619.23</ele><time>2012-04-06T07:28:44Z</time></trkpt><trkpt lat="31.7975830100" lon="35.0764953531"><ele>618.75</ele><time>2012-04-06T07:28:45Z</time></trkpt><trkpt lat="31.7975306232" lon="35.0764924195"><ele>618.26</ele><time>2012-04-06T07:28:46Z</time></trkpt><trkpt lat="31.7974758893" lon="35.0764940120"><ele>617.30</ele><time>2012-04-06T07:28:47Z</time></trkpt><trkpt lat="31.7972973548" lon="35.0765258633"><ele>615.86</ele><time>2012-04-06T07:28:50Z</time></trkpt><trkpt lat="31.7972248513" lon="35.0765352510"><ele>614.90</ele><time>2012-04-06T07:28:51Z</time></trkpt><trkpt lat="31.7968878988" lon="35.0765613187"><ele>612.02</ele><time>2012-04-06T07:28:55Z</time></trkpt><trkpt lat="31.7966163252" lon="35.0765912421"><ele>608.65</ele><time>2012-04-06T07:28:58Z</time></trkpt><trkpt lat="31.7964533810" lon="35.0766222551"><ele>607.69</ele><time>2012-04-06T07:29:00Z</time></trkpt><trkpt lat="31.7963890918" lon="35.0766434614"><ele>606.25</ele><time>2012-04-06T07:29:01Z</time></trkpt><trkpt lat="31.7963382136" lon="35.0766671821"><ele>605.29</ele><time>2012-04-06T07:29:02Z</time></trkpt><trkpt lat="31.7963065300" lon="35.0766960997"><ele>604.33</ele><time>2012-04-06T07:29:03Z</time></trkpt><trkpt lat="31.7962879222" lon="35.0767331477"><ele>603.85</ele><time>2012-04-06T07:29:04Z</time></trkpt><trkpt lat="31.7962776124" lon="35.0767810084"><ele>603.36</ele><time>2012-04-06T07:29:05Z</time></trkpt><trkpt lat="31.7962803785" lon="35.0768309645"><ele>603.36</ele><time>2012-04-06T07:29:06Z</time></trkpt><trkpt lat="31.7962999921" lon="35.0768789928"><ele>602.88</ele><time>2012-04-06T07:29:07Z</time></trkpt><trkpt lat="31.7963304184" lon="35.0769224111"><ele>603.36</ele><time>2012-04-06T07:29:08Z</time></trkpt><trkpt lat="31.7963698972" lon="35.0769623090"><ele>602.88</ele><time>2012-04-06T07:29:09Z</time></trkpt><trkpt lat="31.7964201048" lon="35.0769944955"><ele>601.92</ele><time>2012-04-06T07:29:10Z</time></trkpt><trkpt lat="31.7964773532" lon="35.0770206470"><ele>602.40</ele><time>2012-04-06T07:29:11Z</time></trkpt><trkpt lat="31.7967251223" lon="35.0771219004"><ele>599.04</ele><time>2012-04-06T07:29:15Z</time></trkpt><trkpt lat="31.7970277090" lon="35.0773089007"><ele>595.67</ele><time>2012-04-06T07:29:21Z</time></trkpt><trkpt lat="31.7970743123" lon="35.0773583539"><ele>595.67</ele><time>2012-04-06T07:29:22Z</time></trkpt><trkpt lat="31.7971162219" lon="35.0774109084"><ele>595.19</ele><time>2012-04-06T07:29:23Z</time></trkpt><trkpt lat="31.7971534375" lon="35.0774673186"><ele>594.71</ele><time>2012-04-06T07:29:24Z</time></trkpt><trkpt lat="31.7971866298" lon="35.0775248185"><ele>594.23</ele><time>2012-04-06T07:29:25Z</time></trkpt><trkpt lat="31.7972145416" lon="35.0775824022"><ele>593.75</ele><time>2012-04-06T07:29:26Z</time></trkpt><trkpt lat="31.7972376756" lon="35.0776409078"><ele>593.27</ele><time>2012-04-06T07:29:27Z</time></trkpt><trkpt lat="31.7972566187" lon="35.0776979886"><ele>592.79</ele><time>2012-04-06T07:29:28Z</time></trkpt><trkpt lat="31.7972691916" lon="35.0777565781"><ele>592.31</ele><time>2012-04-06T07:29:29Z</time></trkpt><trkpt lat="31.7972795013" lon="35.0778200291"><ele>592.31</ele><time>2012-04-06T07:29:30Z</time></trkpt><trkpt lat="31.7973131128" lon="35.0780089572"><ele>591.35</ele><time>2012-04-06T07:29:33Z</time></trkpt><trkpt lat="31.7973520048" lon="35.0783046708"><ele>589.91</ele><time>2012-04-06T07:29:37Z</time></trkpt><trkpt lat="31.7973609734" lon="35.0783868972"><ele>588.95</ele><time>2012-04-06T07:29:38Z</time></trkpt><trkpt lat="31.7973743007" lon="35.0784634240"><ele>588.95</ele><time>2012-04-06T07:29:39Z</time></trkpt><trkpt lat="31.7975134403" lon="35.0791383348"><ele>587.02</ele><time>2012-04-06T07:29:50Z</time></trkpt><trkpt lat="31.7975067347" lon="35.0792575255"><ele>586.06</ele><time>2012-04-06T07:29:53Z</time></trkpt><trkpt lat="31.7974973470" lon="35.0794042088"><ele>585.10</ele><time>2012-04-06T07:29:56Z</time></trkpt><trkpt lat="31.7975009512" lon="35.0794536620"><ele>585.10</ele><time>2012-04-06T07:29:57Z</time></trkpt><trkpt lat="31.7976032943" lon="35.0799165946"><ele>582.22</ele><time>2012-04-06T07:30:08Z</time></trkpt><trkpt lat="31.7976143584" lon="35.0799707416"><ele>582.70</ele><time>2012-04-06T07:30:09Z</time></trkpt><trkpt lat="31.7976266798" lon="35.0800231285"><ele>581.73</ele><time>2012-04-06T07:30:10Z</time></trkpt><trkpt lat="31.7976396717" lon="35.0800798740"><ele>581.25</ele><time>2012-04-06T07:30:11Z</time></trkpt><trkpt lat="31.7976564355" lon="35.0801293273"><ele>581.25</ele><time>2012-04-06T07:30:12Z</time></trkpt><trkpt lat="31.7976793181" lon="35.0801734161"><ele>580.77</ele><time>2012-04-06T07:30:13Z</time></trkpt><trkpt lat="31.7977035418" lon="35.0802154094"><ele>580.29</ele><time>2012-04-06T07:30:14Z</time></trkpt><trkpt lat="31.7977151927" lon="35.0802557264"><ele>580.29</ele><time>2012-04-06T07:30:15Z</time></trkpt><trkpt lat="31.7977106664" lon="35.0802881643"><ele>579.81</ele><time>2012-04-06T07:30:16Z</time></trkpt><trkpt lat="31.7976932321" lon="35.0803127233"><ele>579.81</ele><time>2012-04-06T07:30:17Z</time></trkpt><trkpt lat="31.7976693437" lon="35.0803320017"><ele>579.81</ele><time>2012-04-06T07:30:18Z</time></trkpt><trkpt lat="31.7976418510" lon="35.0803450774"><ele>579.33</ele><time>2012-04-06T07:30:19Z</time></trkpt><trkpt lat="31.7976153642" lon="35.0803412218"><ele>579.33</ele><time>2012-04-06T07:30:20Z</time></trkpt><trkpt lat="31.7975900508" lon="35.0803213567"><ele>579.33</ele><time>2012-04-06T07:30:21Z</time></trkpt><trkpt lat="31.7975653242" lon="35.0802890863"><ele>578.85</ele><time>2012-04-06T07:30:22Z</time></trkpt><trkpt lat="31.7975426093" lon="35.0802549720"><ele>578.37</ele><time>2012-04-06T07:30:23Z</time></trkpt><trkpt lat="31.7973955907" lon="35.0799432490"><ele>575.49</ele><time>2012-04-06T07:30:31Z</time></trkpt><trkpt lat="31.7973668408" lon="35.0798961427"><ele>575.01</ele><time>2012-04-06T07:30:32Z</time></trkpt><trkpt lat="31.7973345704" lon="35.0798490364"><ele>574.53</ele><time>2012-04-06T07:30:33Z</time></trkpt><trkpt lat="31.7973063234" lon="35.0797964819"><ele>574.04</ele><time>2012-04-06T07:30:34Z</time></trkpt><trkpt lat="31.7972547747" lon="35.0796887744"><ele>574.04</ele><time>2012-04-06T07:30:36Z</time></trkpt><trkpt lat="31.7971387692" lon="35.0794914644"><ele>573.08</ele><time>2012-04-06T07:30:40Z</time></trkpt><trkpt lat="31.7971209157" lon="35.0794368144"><ele>573.08</ele><time>2012-04-06T07:30:41Z</time></trkpt><trkpt lat="31.7971036490" lon="35.0793830026"><ele>572.60</ele><time>2012-04-06T07:30:42Z</time></trkpt><trkpt lat="31.7970824428" lon="35.0793347228"><ele>572.60</ele><time>2012-04-06T07:30:43Z</time></trkpt><trkpt lat="31.7970633321" lon="35.0792919751"><ele>573.08</ele><time>2012-04-06T07:30:44Z</time></trkpt><trkpt lat="31.7970503401" lon="35.0792518258"><ele>573.56</ele><time>2012-04-06T07:30:45Z</time></trkpt><trkpt lat="31.7970385216" lon="35.0792139396"><ele>573.56</ele><time>2012-04-06T07:30:46Z</time></trkpt><trkpt lat="31.7970253620" lon="35.0791747123"><ele>573.56</ele><time>2012-04-06T07:30:47Z</time></trkpt><trkpt lat="31.7969910800" lon="35.0790496543"><ele>573.56</ele><time>2012-04-06T07:30:50Z</time></trkpt><trkpt lat="31.7968982924" lon="35.0785496738"><ele>575.01</ele><time>2012-04-06T07:31:02Z</time></trkpt><trkpt lat="31.7968787625" lon="35.0783924293"><ele>575.01</ele><time>2012-04-06T07:31:06Z</time></trkpt><trkpt lat="31.7968534492" lon="35.0783600751"><ele>574.53</ele><time>2012-04-06T07:31:07Z</time></trkpt><trkpt lat="31.7968193348" lon="35.0783366896"><ele>573.56</ele><time>2012-04-06T07:31:08Z</time></trkpt><trkpt lat="31.7967770901" lon="35.0783198420"><ele>573.56</ele><time>2012-04-06T07:31:09Z</time></trkpt><trkpt lat="31.7967262119" lon="35.0783089455"><ele>572.60</ele><time>2012-04-06T07:31:10Z</time></trkpt><trkpt lat="31.7966659460" lon="35.0783040840"><ele>572.12</ele><time>2012-04-06T07:31:11Z</time></trkpt><trkpt lat="31.7965370324" lon="35.0783012342"><ele>570.68</ele><time>2012-04-06T07:31:13Z</time></trkpt><trkpt lat="31.7964118067" lon="35.0782799441"><ele>570.20</ele><time>2012-04-06T07:31:15Z</time></trkpt><trkpt lat="31.7959818989" lon="35.0781545509"><ele>567.80</ele><time>2012-04-06T07:31:21Z</time></trkpt><trkpt lat="31.7958254926" lon="35.0781314168"><ele>566.35</ele><time>2012-04-06T07:31:23Z</time></trkpt><trkpt lat="31.7957472056" lon="35.0781319197"><ele>565.87</ele><time>2012-04-06T07:31:24Z</time></trkpt><trkpt lat="31.7955984268" lon="35.0781349372"><ele>565.87</ele><time>2012-04-06T07:31:26Z</time></trkpt><trkpt lat="31.7954601254" lon="35.0781092048"><ele>565.87</ele><time>2012-04-06T07:31:28Z</time></trkpt><trkpt lat="31.7952080816" lon="35.0780237094"><ele>567.32</ele><time>2012-04-06T07:31:34Z</time></trkpt><trkpt lat="31.7951886356" lon="35.0780071132"><ele>567.32</ele><time>2012-04-06T07:31:35Z</time></trkpt><trkpt lat="31.7951661721" lon="35.0779937860"><ele>567.80</ele><time>2012-04-06T07:31:36Z</time></trkpt><trkpt lat="31.7951401882" lon="35.0779837277"><ele>567.80</ele><time>2012-04-06T07:31:37Z</time></trkpt><trkpt lat="31.7951148748" lon="35.0779779442"><ele>567.80</ele><time>2012-04-06T07:31:38Z</time></trkpt><trkpt lat="31.7950896453" lon="35.0779724959"><ele>567.80</ele><time>2012-04-06T07:31:39Z</time></trkpt><trkpt lat="31.7950656731" lon="35.0779649522"><ele>568.28</ele><time>2012-04-06T07:31:40Z</time></trkpt><trkpt lat="31.7950404435" lon="35.0779584982"><ele>568.76</ele><time>2012-04-06T07:31:41Z</time></trkpt><trkpt lat="31.7950148787" lon="35.0779563189"><ele>568.76</ele><time>2012-04-06T07:31:42Z</time></trkpt><trkpt lat="31.7949904874" lon="35.0779542234"><ele>568.76</ele><time>2012-04-06T07:31:43Z</time></trkpt><trkpt lat="31.7949701194" lon="35.0779506192"><ele>568.76</ele><time>2012-04-06T07:31:44Z</time></trkpt><trkpt lat="31.7949489970" lon="35.0779455900"><ele>569.24</ele><time>2012-04-06T07:31:45Z</time></trkpt><trkpt lat="31.7949306406" lon="35.0779406447"><ele>569.24</ele><time>2012-04-06T07:31:46Z</time></trkpt><trkpt lat="31.7949117813" lon="35.0779367052"><ele>569.24</ele><time>2012-04-06T07:31:47Z</time></trkpt><trkpt lat="31.7946550436" lon="35.0779134035"><ele>567.32</ele><time>2012-04-06T07:31:55Z</time></trkpt><trkpt lat="31.7943631858" lon="35.0777886808"><ele>567.80</ele><time>2012-04-06T07:32:04Z</time></trkpt><trkpt lat="31.7939989921" lon="35.0776912831"><ele>567.80</ele><time>2012-04-06T07:32:15Z</time></trkpt><trkpt lat="31.7938587628" lon="35.0776695739"><ele>567.80</ele><time>2012-04-06T07:32:20Z</time></trkpt><trkpt lat="31.7938262410" lon="35.0776797999"><ele>567.80</ele><time>2012-04-06T07:32:21Z</time></trkpt><trkpt lat="31.7937916238" lon="35.0776940491"><ele>567.80</ele><time>2012-04-06T07:32:22Z</time></trkpt><trkpt lat="31.7936619557" lon="35.0777131598"><ele>566.83</ele><time>2012-04-06T07:32:25Z</time></trkpt><trkpt lat="31.7934378237" lon="35.0776941329"><ele>566.35</ele><time>2012-04-06T07:32:30Z</time></trkpt><trkpt lat="31.7933958303" lon="35.0776817277"><ele>566.35</ele><time>2012-04-06T07:32:31Z</time></trkpt><trkpt lat="31.7933529150" lon="35.0776714180"><ele>566.35</ele><time>2012-04-06T07:32:32Z</time></trkpt><trkpt lat="31.7933141068" lon="35.0776502956"><ele>566.35</ele><time>2012-04-06T07:32:33Z</time></trkpt><trkpt lat="31.7932785675" lon="35.0776316039"><ele>566.35</ele><time>2012-04-06T07:32:34Z</time></trkpt><trkpt lat="31.7931038048" lon="35.0775028579"><ele>565.87</ele><time>2012-04-06T07:32:41Z</time></trkpt><trkpt lat="31.7928705364" lon="35.0772402529"><ele>565.39</ele><time>2012-04-06T07:32:52Z</time></trkpt><trkpt lat="31.7927456461" lon="35.0770601258"><ele>563.47</ele><time>2012-04-06T07:32:56Z</time></trkpt><trkpt lat="31.7927206680" lon="35.0770010334"><ele>562.99</ele><time>2012-04-06T07:32:57Z</time></trkpt><trkpt lat="31.7927024793" lon="35.0769388396"><ele>562.99</ele><time>2012-04-06T07:32:58Z</time></trkpt><trkpt lat="31.7926913314" lon="35.0768738799"><ele>562.99</ele><time>2012-04-06T07:32:59Z</time></trkpt><trkpt lat="31.7926818598" lon="35.0768079143"><ele>562.51</ele><time>2012-04-06T07:33:00Z</time></trkpt><trkpt lat="31.7926743999" lon="35.0767449662"><ele>562.99</ele><time>2012-04-06T07:33:01Z</time></trkpt><trkpt lat="31.7926744837" lon="35.0766836107"><ele>562.99</ele><time>2012-04-06T07:33:02Z</time></trkpt><trkpt lat="31.7926785070" lon="35.0766216684"><ele>562.99</ele><time>2012-04-06T07:33:03Z</time></trkpt><trkpt lat="31.7926918343" lon="35.0765054114"><ele>562.03</ele><time>2012-04-06T07:33:05Z</time></trkpt><trkpt lat="31.7927110288" lon="35.0764467381"><ele>562.03</ele><time>2012-04-06T07:33:06Z</time></trkpt><trkpt lat="31.7927344982" lon="35.0763875619"><ele>561.55</ele><time>2012-04-06T07:33:07Z</time></trkpt><trkpt lat="31.7927999608" lon="35.0762122124"><ele>561.07</ele><time>2012-04-06T07:33:10Z</time></trkpt><trkpt lat="31.7928183172" lon="35.0761528686"><ele>560.59</ele><time>2012-04-06T07:33:11Z</time></trkpt><trkpt lat="31.7928432114" lon="35.0760896690"><ele>560.59</ele><time>2012-04-06T07:33:12Z</time></trkpt><trkpt lat="31.7928939220" lon="35.0759562291"><ele>559.62</ele><time>2012-04-06T07:33:14Z</time></trkpt><trkpt lat="31.7930336483" lon="35.0755768642"><ele>558.18</ele><time>2012-04-06T07:33:20Z</time></trkpt><trkpt lat="31.7930600513" lon="35.0755219627"><ele>557.22</ele><time>2012-04-06T07:33:21Z</time></trkpt><trkpt lat="31.7931074928" lon="35.0754057895"><ele>557.70</ele><time>2012-04-06T07:33:23Z</time></trkpt><trkpt lat="31.7931471393" lon="35.0752389897"><ele>557.22</ele><time>2012-04-06T07:33:26Z</time></trkpt><trkpt lat="31.7931481451" lon="35.0751800649"><ele>556.74</ele><time>2012-04-06T07:33:27Z</time></trkpt><trkpt lat="31.7931424454" lon="35.0751229003"><ele>556.74</ele><time>2012-04-06T07:33:28Z</time></trkpt><trkpt lat="31.7931260169" lon="35.0750733633"><ele>556.74</ele><time>2012-04-06T07:33:29Z</time></trkpt><trkpt lat="31.7931041401" lon="35.0750310346"><ele>556.26</ele><time>2012-04-06T07:33:30Z</time></trkpt><trkpt lat="31.7930810060" lon="35.0749919750"><ele>556.26</ele><time>2012-04-06T07:33:31Z</time></trkpt><trkpt lat="31.7930556089" lon="35.0749536697"><ele>555.30</ele><time>2012-04-06T07:33:32Z</time></trkpt><trkpt lat="31.7929786630" lon="35.0748361554"><ele>553.38</ele><time>2012-04-06T07:33:35Z</time></trkpt><trkpt lat="31.7928634956" lon="35.0746774860"><ele>551.45</ele><time>2012-04-06T07:33:39Z</time></trkpt><trkpt lat="31.7927448917" lon="35.0744740572"><ele>549.53</ele><time>2012-04-06T07:33:44Z</time></trkpt><trkpt lat="31.7926015612" lon="35.0742576364"><ele>547.61</ele><time>2012-04-06T07:33:49Z</time></trkpt><trkpt lat="31.7925734818" lon="35.0742042437"><ele>547.61</ele><time>2012-04-06T07:33:50Z</time></trkpt><trkpt lat="31.7925414629" lon="35.0741504319"><ele>547.61</ele><time>2012-04-06T07:33:51Z</time></trkpt><trkpt lat="31.7921722401" lon="35.0736995693"><ele>544.24</ele><time>2012-04-06T07:33:59Z</time></trkpt><trkpt lat="31.7917852476" lon="35.0733263232"><ele>543.28</ele><time>2012-04-06T07:34:09Z</time></trkpt><trkpt lat="31.7917515524" lon="35.0732969865"><ele>543.28</ele><time>2012-04-06T07:34:10Z</time></trkpt><trkpt lat="31.7914380692" lon="35.0729286857"><ele>544.24</ele><time>2012-04-06T07:34:22Z</time></trkpt><trkpt lat="31.7912147753" lon="35.0725053996"><ele>546.65</ele><time>2012-04-06T07:34:36Z</time></trkpt><trkpt lat="31.7909984384" lon="35.0721805170"><ele>548.57</ele><time>2012-04-06T07:34:48Z</time></trkpt><trkpt lat="31.7907909863" lon="35.0718578137"><ele>550.01</ele><time>2012-04-06T07:35:01Z</time></trkpt><trkpt lat="31.7906108592" lon="35.0715603400"><ele>550.97</ele><time>2012-04-06T07:35:14Z</time></trkpt><trkpt lat="31.7905116174" lon="35.0712492038"><ele>552.41</ele><time>2012-04-06T07:35:27Z</time></trkpt><trkpt lat="31.7905067559" lon="35.0709487125"><ele>554.34</ele><time>2012-04-06T07:35:39Z</time></trkpt><trkpt lat="31.7905111983" lon="35.0708504766"><ele>554.82</ele><time>2012-04-06T07:35:43Z</time></trkpt><trkpt lat="31.7905174848" lon="35.0708267558"><ele>554.82</ele><time>2012-04-06T07:35:44Z</time></trkpt><trkpt lat="31.7905196641" lon="35.0708019454"><ele>554.82</ele><time>2012-04-06T07:35:45Z</time></trkpt><trkpt lat="31.7905470729" lon="35.0704172160"><ele>556.26</ele><time>2012-04-06T07:36:00Z</time></trkpt><trkpt lat="31.7904896569" lon="35.0699721370"><ele>557.22</ele><time>2012-04-06T07:36:16Z</time></trkpt><trkpt lat="31.7903765850" lon="35.0696454104"><ele>558.18</ele><time>2012-04-06T07:36:30Z</time></trkpt><trkpt lat="31.7903639283" lon="35.0696280599"><ele>558.18</ele><time>2012-04-06T07:36:31Z</time></trkpt><trkpt lat="31.7903536186" lon="35.0696060993"><ele>558.66</ele><time>2012-04-06T07:36:32Z</time></trkpt><trkpt lat="31.7903438956" lon="35.0695838872"><ele>558.66</ele><time>2012-04-06T07:36:33Z</time></trkpt><trkpt lat="31.7903321609" lon="35.0695596635"><ele>558.66</ele><time>2012-04-06T07:36:34Z</time></trkpt><trkpt lat="31.7903169058" lon="35.0695362780"><ele>558.66</ele><time>2012-04-06T07:36:35Z</time></trkpt><trkpt lat="31.7902997229" lon="35.0695155747"><ele>558.66</ele><time>2012-04-06T07:36:36Z</time></trkpt><trkpt lat="31.7902844679" lon="35.0694968831"><ele>558.66</ele><time>2012-04-06T07:36:37Z</time></trkpt><trkpt lat="31.7902677879" lon="35.0694810413"><ele>558.66</ele><time>2012-04-06T07:36:38Z</time></trkpt><trkpt lat="31.7902536225" lon="35.0694639422"><ele>558.66</ele><time>2012-04-06T07:36:39Z</time></trkpt><trkpt lat="31.7902392894" lon="35.0694473460"><ele>558.66</ele><time>2012-04-06T07:36:40Z</time></trkpt><trkpt lat="31.7902233638" lon="35.0694322586"><ele>558.66</ele><time>2012-04-06T07:36:41Z</time></trkpt><trkpt lat="31.7902082764" lon="35.0694154110"><ele>558.66</ele><time>2012-04-06T07:36:42Z</time></trkpt><trkpt lat="31.7901937757" lon="35.0693980604"><ele>559.14</ele><time>2012-04-06T07:36:43Z</time></trkpt><trkpt lat="31.7899786960" lon="35.0691356231"><ele>559.62</ele><time>2012-04-06T07:36:56Z</time></trkpt><trkpt lat="31.7897175159" lon="35.0688517280"><ele>561.07</ele><time>2012-04-06T07:37:09Z</time></trkpt><trkpt lat="31.7894812301" lon="35.0686213933"><ele>562.51</ele><time>2012-04-06T07:37:21Z</time></trkpt><trkpt lat="31.7892299406" lon="35.0682932418"><ele>563.47</ele><time>2012-04-06T07:37:34Z</time></trkpt><trkpt lat="31.7891312018" lon="35.0679008011"><ele>565.87</ele><time>2012-04-06T07:37:48Z</time></trkpt><trkpt lat="31.7892081477" lon="35.0676153135"><ele>567.32</ele><time>2012-04-06T07:38:01Z</time></trkpt><trkpt lat="31.7892387416" lon="35.0675370265"><ele>568.28</ele><time>2012-04-06T07:38:07Z</time></trkpt><trkpt lat="31.7892596126" lon="35.0675023254"><ele>569.24</ele><time>2012-04-06T07:38:09Z</time></trkpt><trkpt lat="31.7893680744" lon="35.0672849827"><ele>570.20</ele><time>2012-04-06T07:38:22Z</time></trkpt><trkpt lat="31.7894701660" lon="35.0671020895"><ele>571.16</ele><time>2012-04-06T07:38:33Z</time></trkpt><trkpt lat="31.7894776259" lon="35.0670844037"><ele>571.64</ele><time>2012-04-06T07:38:34Z</time></trkpt><trkpt lat="31.7894866783" lon="35.0670708250"><ele>572.12</ele><time>2012-04-06T07:38:35Z</time></trkpt><trkpt lat="31.7894975748" lon="35.0670565758"><ele>571.64</ele><time>2012-04-06T07:38:36Z</time></trkpt><trkpt lat="31.7895083874" lon="35.0670424104"><ele>571.64</ele><time>2012-04-06T07:38:37Z</time></trkpt><trkpt lat="31.7895181943" lon="35.0670284964"><ele>571.64</ele><time>2012-04-06T07:38:38Z</time></trkpt><trkpt lat="31.7895270791" lon="35.0670088828"><ele>571.64</ele><time>2012-04-06T07:38:39Z</time></trkpt><trkpt lat="31.7895321082" lon="35.0669898558"><ele>571.64</ele><time>2012-04-06T07:38:40Z</time></trkpt><trkpt lat="31.7895387299" lon="35.0669708289"><ele>572.12</ele><time>2012-04-06T07:38:41Z</time></trkpt><trkpt lat="31.7895487882" lon="35.0669516344"><ele>572.60</ele><time>2012-04-06T07:38:42Z</time></trkpt><trkpt lat="31.7895588465" lon="35.0669311825"><ele>572.60</ele><time>2012-04-06T07:38:43Z</time></trkpt><trkpt lat="31.7895693239" lon="35.0669149216"><ele>572.12</ele><time>2012-04-06T07:38:44Z</time></trkpt><trkpt lat="31.7896896880" lon="35.0666360557"><ele>574.04</ele><time>2012-04-06T07:38:59Z</time></trkpt><trkpt lat="31.7898105551" lon="35.0663767196"><ele>576.45</ele><time>2012-04-06T07:39:13Z</time></trkpt><trkpt lat="31.7898216192" lon="35.0663640630"><ele>576.45</ele><time>2012-04-06T07:39:14Z</time></trkpt><trkpt lat="31.7898357846" lon="35.0663408451"><ele>576.93</ele><time>2012-04-06T07:39:16Z</time></trkpt><trkpt lat="31.7898408975" lon="35.0663265958"><ele>577.41</ele><time>2012-04-06T07:39:17Z</time></trkpt><trkpt lat="31.7898866627" lon="35.0662278570"><ele>577.41</ele><time>2012-04-06T07:39:24Z</time></trkpt><trkpt lat="31.7898910213" lon="35.0662152003"><ele>577.89</ele><time>2012-04-06T07:39:25Z</time></trkpt><trkpt lat="31.7898952961" lon="35.0662017055"><ele>578.37</ele><time>2012-04-06T07:39:26Z</time></trkpt><trkpt lat="31.7899792828" lon="35.0658891443"><ele>580.29</ele><time>2012-04-06T07:39:43Z</time></trkpt><trkpt lat="31.7900107149" lon="35.0655039120"><ele>581.25</ele><time>2012-04-06T07:40:00Z</time></trkpt><trkpt lat="31.7900143191" lon="35.0649867486"><ele>581.73</ele><time>2012-04-06T07:40:16Z</time></trkpt><trkpt lat="31.7900019139" lon="35.0643985905"><ele>582.22</ele><time>2012-04-06T07:40:31Z</time></trkpt><trkpt lat="31.7900667060" lon="35.0639130268"><ele>583.66</ele><time>2012-04-06T07:40:46Z</time></trkpt><trkpt lat="31.7901099566" lon="35.0637639966"><ele>584.62</ele><time>2012-04-06T07:40:52Z</time></trkpt><trkpt lat="31.7901124712" lon="35.0637428742"><ele>585.10</ele><time>2012-04-06T07:40:53Z</time></trkpt><trkpt lat="31.7901143152" lon="35.0637237635"><ele>585.10</ele><time>2012-04-06T07:40:54Z</time></trkpt><trkpt lat="31.7901179194" lon="35.0637112744"><ele>585.10</ele><time>2012-04-06T07:40:55Z</time></trkpt><trkpt lat="31.7901240382" lon="35.0637000427"><ele>585.58</ele><time>2012-04-06T07:40:56Z</time></trkpt><trkpt lat="31.7901281454" lon="35.0636884756"><ele>585.58</ele><time>2012-04-06T07:40:57Z</time></trkpt><trkpt lat="31.7901320849" lon="35.0636753999"><ele>585.58</ele><time>2012-04-06T07:40:58Z</time></trkpt><trkpt lat="31.7901359405" lon="35.0636602286"><ele>585.58</ele><time>2012-04-06T07:40:59Z</time></trkpt><trkpt lat="31.7901402991" lon="35.0636453088"><ele>585.58</ele><time>2012-04-06T07:41:00Z</time></trkpt><trkpt lat="31.7901440710" lon="35.0636301376"><ele>585.58</ele><time>2012-04-06T07:41:01Z</time></trkpt><trkpt lat="31.7901482619" lon="35.0636122003"><ele>585.58</ele><time>2012-04-06T07:41:02Z</time></trkpt><trkpt lat="31.7901529558" lon="35.0635925028"><ele>585.58</ele><time>2012-04-06T07:41:03Z</time></trkpt><trkpt lat="31.7901590746" lon="35.0635706261"><ele>586.06</ele><time>2012-04-06T07:41:04Z</time></trkpt><trkpt lat="31.7902328353" lon="35.0630624313"><ele>587.50</ele><time>2012-04-06T07:41:23Z</time></trkpt><trkpt lat="31.7901532911" lon="35.0626322720"><ele>589.43</ele><time>2012-04-06T07:41:38Z</time></trkpt><trkpt lat="31.7900294904" lon="35.0621313695"><ele>591.35</ele><time>2012-04-06T07:41:55Z</time></trkpt><trkpt lat="31.7899569031" lon="35.0617893878"><ele>591.83</ele><time>2012-04-06T07:42:06Z</time></trkpt><trkpt lat="31.7899074499" lon="35.0613319036"><ele>593.75</ele><time>2012-04-06T07:42:21Z</time></trkpt><trkpt lat="31.7898571584" lon="35.0608509500"><ele>594.23</ele><time>2012-04-06T07:42:35Z</time></trkpt><trkpt lat="31.7897377163" lon="35.0603513885"><ele>594.71</ele><time>2012-04-06T07:42:49Z</time></trkpt><trkpt lat="31.7896756064" lon="35.0601596944"><ele>594.71</ele><time>2012-04-06T07:43:00Z</time></trkpt><trkpt lat="31.7896814737" lon="35.0601573475"><ele>594.23</ele><time>2012-04-06T07:43:15Z</time></trkpt><trkpt lat="31.7896901071" lon="35.0601526536"><ele>594.23</ele><time>2012-04-06T07:43:41Z</time></trkpt><trkpt lat="31.7896852456" lon="35.0601512287"><ele>594.23</ele><time>2012-04-06T07:43:55Z</time></trkpt><trkpt lat="31.7896803841" lon="35.0601507258"><ele>594.71</ele><time>2012-04-06T07:44:17Z</time></trkpt><trkpt lat="31.7896748520" lon="35.0601551682"><ele>594.71</ele><time>2012-04-06T07:44:43Z</time></trkpt><trkpt lat="31.7896727566" lon="35.0601502229"><ele>594.71</ele><time>2012-04-06T07:45:03Z</time></trkpt><trkpt lat="31.7896657158" lon="35.0601384044"><ele>594.23</ele><time>2012-04-06T07:45:04Z</time></trkpt><trkpt lat="31.7896567471" lon="35.0601227302"><ele>594.71</ele><time>2012-04-06T07:45:05Z</time></trkpt><trkpt lat="31.7896434199" lon="35.0601008534"><ele>594.23</ele><time>2012-04-06T07:45:06Z</time></trkpt><trkpt lat="31.7896305118" lon="35.0600795634"><ele>594.71</ele><time>2012-04-06T07:45:07Z</time></trkpt><trkpt lat="31.7893478740" lon="35.0596933253"><ele>593.27</ele><time>2012-04-06T07:45:19Z</time></trkpt><trkpt lat="31.7892793939" lon="35.0596169662"><ele>593.27</ele><time>2012-04-06T07:45:21Z</time></trkpt><trkpt lat="31.7891318724" lon="35.0594650861"><ele>592.31</ele><time>2012-04-06T07:45:25Z</time></trkpt><trkpt lat="31.7890913878" lon="35.0594298821"><ele>592.31</ele><time>2012-04-06T07:45:26Z</time></trkpt><trkpt lat="31.7890528310" lon="35.0593885593"><ele>591.83</ele><time>2012-04-06T07:45:27Z</time></trkpt><trkpt lat="31.7889399268" lon="35.0592628308"><ele>591.83</ele><time>2012-04-06T07:45:30Z</time></trkpt><trkpt lat="31.7887556925" lon="35.0590428896"><ele>591.35</ele><time>2012-04-06T07:45:36Z</time></trkpt><trkpt lat="31.7885403614" lon="35.0585826393"><ele>589.91</ele><time>2012-04-06T07:45:46Z</time></trkpt><trkpt lat="31.7884830292" lon="35.0584343635"><ele>589.43</ele><time>2012-04-06T07:45:49Z</time></trkpt><trkpt lat="31.7884649243" lon="35.0583787076"><ele>589.43</ele><time>2012-04-06T07:45:50Z</time></trkpt><trkpt lat="31.7883438058" lon="35.0580308586"><ele>587.50</ele><time>2012-04-06T07:45:56Z</time></trkpt><trkpt lat="31.7882987112" lon="35.0577799883"><ele>587.50</ele><time>2012-04-06T07:46:00Z</time></trkpt><trkpt lat="31.7882845458" lon="35.0577166211"><ele>587.02</ele><time>2012-04-06T07:46:01Z</time></trkpt><trkpt lat="31.7882744875" lon="35.0576498173"><ele>587.02</ele><time>2012-04-06T07:46:02Z</time></trkpt><trkpt lat="31.7882210109" lon="35.0570114516"><ele>584.62</ele><time>2012-04-06T07:46:11Z</time></trkpt><trkpt lat="31.7881533690" lon="35.0566979684"><ele>583.18</ele><time>2012-04-06T07:46:16Z</time></trkpt><trkpt lat="31.7881566379" lon="35.0566364452"><ele>583.18</ele><time>2012-04-06T07:46:17Z</time></trkpt><trkpt lat="31.7881682049" lon="35.0565686356"><ele>582.22</ele><time>2012-04-06T07:46:18Z</time></trkpt><trkpt lat="31.7883154750" lon="35.0561119895"><ele>580.29</ele><time>2012-04-06T07:46:25Z</time></trkpt><trkpt lat="31.7883421294" lon="35.0559865125"><ele>579.33</ele><time>2012-04-06T07:46:27Z</time></trkpt><trkpt lat="31.7883616593" lon="35.0559310243"><ele>579.33</ele><time>2012-04-06T07:46:28Z</time></trkpt><trkpt lat="31.7883812729" lon="35.0558718480"><ele>578.85</ele><time>2012-04-06T07:46:29Z</time></trkpt><trkpt lat="31.7883956060" lon="35.0558054633"><ele>578.37</ele><time>2012-04-06T07:46:30Z</time></trkpt><trkpt lat="31.7884054128" lon="35.0557372347"><ele>577.89</ele><time>2012-04-06T07:46:31Z</time></trkpt><trkpt lat="31.7884144653" lon="35.0556656532"><ele>577.41</ele><time>2012-04-06T07:46:32Z</time></trkpt><trkpt lat="31.7884465680" lon="35.0555007812"><ele>576.45</ele><time>2012-04-06T07:46:34Z</time></trkpt><trkpt lat="31.7884761561" lon="35.0554251764"><ele>575.97</ele><time>2012-04-06T07:46:35Z</time></trkpt><trkpt lat="31.7885116953" lon="35.0553629827"><ele>575.01</ele><time>2012-04-06T07:46:36Z</time></trkpt><trkpt lat="31.7885510065" lon="35.0553135294"><ele>575.01</ele><time>2012-04-06T07:46:37Z</time></trkpt><trkpt lat="31.7885922454" lon="35.0552748051"><ele>574.53</ele><time>2012-04-06T07:46:38Z</time></trkpt><trkpt lat="31.7886353284" lon="35.0552491564"><ele>574.53</ele><time>2012-04-06T07:46:39Z</time></trkpt><trkpt lat="31.7886816803" lon="35.0552393496"><ele>574.04</ele><time>2012-04-06T07:46:40Z</time></trkpt><trkpt lat="31.7887257691" lon="35.0552380085"><ele>574.53</ele><time>2012-04-06T07:46:41Z</time></trkpt><trkpt lat="31.7893518973" lon="35.0552740507"><ele>575.49</ele><time>2012-04-06T07:46:57Z</time></trkpt><trkpt lat="31.7899581604" lon="35.0554186385"><ele>574.04</ele><time>2012-04-06T07:47:13Z</time></trkpt><trkpt lat="31.7899968009" lon="35.0554303732"><ele>574.53</ele><time>2012-04-06T07:47:14Z</time></trkpt><trkpt lat="31.7902151495" lon="35.0554876216"><ele>573.08</ele><time>2012-04-06T07:47:19Z</time></trkpt><trkpt lat="31.7902571429" lon="35.0554770604"><ele>573.08</ele><time>2012-04-06T07:47:20Z</time></trkpt><trkpt lat="31.7902920954" lon="35.0554541778"><ele>572.60</ele><time>2012-04-06T07:47:21Z</time></trkpt><trkpt lat="31.7903135531" lon="35.0554236677"><ele>573.56</ele><time>2012-04-06T07:47:22Z</time></trkpt><trkpt lat="31.7903205939" lon="35.0553812552"><ele>573.56</ele><time>2012-04-06T07:47:23Z</time></trkpt><trkpt lat="31.7903193366" lon="35.0553338137"><ele>573.08</ele><time>2012-04-06T07:47:24Z</time></trkpt><trkpt lat="31.7903096974" lon="35.0552876294"><ele>573.08</ele><time>2012-04-06T07:47:25Z</time></trkpt><trkpt lat="31.7902945261" lon="35.0552440435"><ele>573.08</ele><time>2012-04-06T07:47:26Z</time></trkpt><trkpt lat="31.7902763374" lon="35.0552017149"><ele>572.60</ele><time>2012-04-06T07:47:27Z</time></trkpt><trkpt lat="31.7902523652" lon="35.0551624876"><ele>572.60</ele><time>2012-04-06T07:47:28Z</time></trkpt><trkpt lat="31.7902224418" lon="35.0551271159"><ele>572.60</ele><time>2012-04-06T07:47:29Z</time></trkpt><trkpt lat="31.7901910935" lon="35.0550935883"><ele>572.60</ele><time>2012-04-06T07:47:30Z</time></trkpt><trkpt lat="31.7901607510" lon="35.0550584681"><ele>572.60</ele><time>2012-04-06T07:47:31Z</time></trkpt><trkpt lat="31.7901324201" lon="35.0550167263"><ele>572.12</ele><time>2012-04-06T07:47:32Z</time></trkpt><trkpt lat="31.7901019938" lon="35.0549727213"><ele>572.12</ele><time>2012-04-06T07:47:33Z</time></trkpt><trkpt lat="31.7897470202" lon="35.0544053502"><ele>569.24</ele><time>2012-04-06T07:47:43Z</time></trkpt><trkpt lat="31.7896784563" lon="35.0542980619"><ele>568.28</ele><time>2012-04-06T07:47:45Z</time></trkpt><trkpt lat="31.7896180227" lon="35.0541842356"><ele>568.28</ele><time>2012-04-06T07:47:47Z</time></trkpt><trkpt lat="31.7895818129" lon="35.0541358721"><ele>568.28</ele><time>2012-04-06T07:47:48Z</time></trkpt><trkpt lat="31.7895461898" lon="35.0540877599"><ele>568.28</ele><time>2012-04-06T07:47:49Z</time></trkpt><trkpt lat="31.7895145901" lon="35.0540359598"><ele>568.28</ele><time>2012-04-06T07:47:50Z</time></trkpt><trkpt lat="31.7894863430" lon="35.0539846625"><ele>568.28</ele><time>2012-04-06T07:47:51Z</time></trkpt><trkpt lat="31.7894580960" lon="35.0539335329"><ele>568.28</ele><time>2012-04-06T07:47:52Z</time></trkpt><trkpt lat="31.7894313578" lon="35.0538802240"><ele>567.80</ele><time>2012-04-06T07:47:53Z</time></trkpt><trkpt lat="31.7893799767" lon="35.0537757855"><ele>567.80</ele><time>2012-04-06T07:47:55Z</time></trkpt><trkpt lat="31.7892394960" lon="35.0534586143"><ele>566.83</ele><time>2012-04-06T07:48:01Z</time></trkpt><trkpt lat="31.7892229836" lon="35.0534027070"><ele>566.83</ele><time>2012-04-06T07:48:02Z</time></trkpt><trkpt lat="31.7892109137" lon="35.0533454586"><ele>566.83</ele><time>2012-04-06T07:48:03Z</time></trkpt><trkpt lat="31.7892001849" lon="35.0532836840"><ele>566.35</ele><time>2012-04-06T07:48:04Z</time></trkpt><trkpt lat="31.7891892884" lon="35.0532206520"><ele>566.35</ele><time>2012-04-06T07:48:05Z</time></trkpt><trkpt lat="31.7891845945" lon="35.0531581230"><ele>565.87</ele><time>2012-04-06T07:48:06Z</time></trkpt><trkpt lat="31.7891873606" lon="35.0530977733"><ele>565.87</ele><time>2012-04-06T07:48:07Z</time></trkpt><trkpt lat="31.7891969159" lon="35.0530424528"><ele>565.87</ele><time>2012-04-06T07:48:08Z</time></trkpt><trkpt lat="31.7892147694" lon="35.0529914070"><ele>565.39</ele><time>2012-04-06T07:48:09Z</time></trkpt><trkpt lat="31.7892380711" lon="35.0529414508"><ele>565.39</ele><time>2012-04-06T07:48:10Z</time></trkpt><trkpt lat="31.7893433478" lon="35.0527562946"><ele>564.91</ele><time>2012-04-06T07:48:14Z</time></trkpt><trkpt lat="31.7893764563" lon="35.0527309813"><ele>564.91</ele><time>2012-04-06T07:48:15Z</time></trkpt><trkpt lat="31.7896566633" lon="35.0526009779"><ele>564.91</ele><time>2012-04-06T07:48:23Z</time></trkpt><trkpt lat="31.7900839727" lon="35.0524287298"><ele>564.91</ele><time>2012-04-06T07:48:34Z</time></trkpt><trkpt lat="31.7905583885" lon="35.0522180926"><ele>563.95</ele><time>2012-04-06T07:48:45Z</time></trkpt><trkpt lat="31.7905951850" lon="35.0521900132"><ele>564.43</ele><time>2012-04-06T07:48:46Z</time></trkpt><trkpt lat="31.7906264495" lon="35.0521593355"><ele>563.95</ele><time>2012-04-06T07:48:47Z</time></trkpt><trkpt lat="31.7906480748" lon="35.0521229580"><ele>564.43</ele><time>2012-04-06T07:48:48Z</time></trkpt><trkpt lat="31.7906572949" lon="35.0520885084"><ele>564.91</ele><time>2012-04-06T07:48:49Z</time></trkpt><trkpt lat="31.7906539422" lon="35.0520539749"><ele>564.91</ele><time>2012-04-06T07:48:50Z</time></trkpt><trkpt lat="31.7906447221" lon="35.0520166755"><ele>564.43</ele><time>2012-04-06T07:48:51Z</time></trkpt><trkpt lat="31.7906312272" lon="35.0519793760"><ele>564.43</ele><time>2012-04-06T07:48:52Z</time></trkpt><trkpt lat="31.7906090152" lon="35.0519438367"><ele>564.43</ele><time>2012-04-06T07:48:53Z</time></trkpt><trkpt lat="31.7905840371" lon="35.0519066211"><ele>564.43</ele><time>2012-04-06T07:48:54Z</time></trkpt><trkpt lat="31.7904402036" lon="35.0516327005"><ele>563.47</ele><time>2012-04-06T07:49:01Z</time></trkpt><trkpt lat="31.7904194165" lon="35.0515862647"><ele>563.95</ele><time>2012-04-06T07:49:02Z</time></trkpt><trkpt lat="31.7903856374" lon="35.0514980033"><ele>563.47</ele><time>2012-04-06T07:49:04Z</time></trkpt><trkpt lat="31.7903714720" lon="35.0514497235"><ele>563.95</ele><time>2012-04-06T07:49:05Z</time></trkpt><trkpt lat="31.7903489247" lon="35.0514015276"><ele>563.95</ele><time>2012-04-06T07:49:06Z</time></trkpt><trkpt lat="31.7903049197" lon="35.0513044652"><ele>563.95</ele><time>2012-04-06T07:49:08Z</time></trkpt><trkpt lat="31.7902886588" lon="35.0512540061"><ele>563.47</ele><time>2012-04-06T07:49:09Z</time></trkpt><trkpt lat="31.7902672011" lon="35.0512029603"><ele>563.47</ele><time>2012-04-06T07:49:10Z</time></trkpt><trkpt lat="31.7902145628" lon="35.0511038024"><ele>563.47</ele><time>2012-04-06T07:49:12Z</time></trkpt><trkpt lat="31.7901802808" lon="35.0510588754"><ele>562.51</ele><time>2012-04-06T07:49:13Z</time></trkpt><trkpt lat="31.7901371140" lon="35.0510198995"><ele>562.51</ele><time>2012-04-06T07:49:14Z</time></trkpt><trkpt lat="31.7900842242" lon="35.0509768166"><ele>562.03</ele><time>2012-04-06T07:49:15Z</time></trkpt><trkpt lat="31.7900256347" lon="35.0509347394"><ele>562.03</ele><time>2012-04-06T07:49:16Z</time></trkpt><trkpt lat="31.7899641953" lon="35.0509014633"><ele>561.55</ele><time>2012-04-06T07:49:17Z</time></trkpt><trkpt lat="31.7899020016" lon="35.0508753117"><ele>562.03</ele><time>2012-04-06T07:49:18Z</time></trkpt><trkpt lat="31.7898417357" lon="35.0508534350"><ele>561.55</ele><time>2012-04-06T07:49:19Z</time></trkpt><trkpt lat="31.7895912845" lon="35.0507561211"><ele>559.62</ele><time>2012-04-06T07:49:23Z</time></trkpt><trkpt lat="31.7895287555" lon="35.0507196598"><ele>559.62</ele><time>2012-04-06T07:49:24Z</time></trkpt><trkpt lat="31.7893441860" lon="35.0506098568"><ele>558.66</ele><time>2012-04-06T07:49:27Z</time></trkpt><trkpt lat="31.7892876081" lon="35.0505620800"><ele>558.66</ele><time>2012-04-06T07:49:28Z</time></trkpt><trkpt lat="31.7891945690" lon="35.0504810270"><ele>558.18</ele><time>2012-04-06T07:49:30Z</time></trkpt><trkpt lat="31.7891549226" lon="35.0504500140"><ele>557.70</ele><time>2012-04-06T07:49:31Z</time></trkpt><trkpt lat="31.7890931480" lon="35.0503873173"><ele>557.70</ele><time>2012-04-06T07:49:33Z</time></trkpt><trkpt lat="31.7890722770" lon="35.0503506046"><ele>557.22</ele><time>2012-04-06T07:49:34Z</time></trkpt><trkpt lat="31.7890600394" lon="35.0503099523"><ele>557.70</ele><time>2012-04-06T07:49:35Z</time></trkpt><trkpt lat="31.7889594566" lon="35.0499402266"><ele>557.22</ele><time>2012-04-06T07:49:43Z</time></trkpt><trkpt lat="31.7889556009" lon="35.0498899352"><ele>557.22</ele><time>2012-04-06T07:49:44Z</time></trkpt><trkpt lat="31.7889595404" lon="35.0497771148"><ele>556.74</ele><time>2012-04-06T07:49:46Z</time></trkpt><trkpt lat="31.7889695987" lon="35.0497229677"><ele>556.74</ele><time>2012-04-06T07:49:47Z</time></trkpt><trkpt lat="31.7890258413" lon="35.0495108217"><ele>556.74</ele><time>2012-04-06T07:49:51Z</time></trkpt><trkpt lat="31.7891326267" lon="35.0491436105"><ele>556.74</ele><time>2012-04-06T07:49:59Z</time></trkpt><trkpt lat="31.7891482171" lon="35.0490956660"><ele>556.74</ele><time>2012-04-06T07:50:00Z</time></trkpt><trkpt lat="31.7892777175" lon="35.0487912353"><ele>556.26</ele><time>2012-04-06T07:50:06Z</time></trkpt><trkpt lat="31.7893022764" lon="35.0487411115"><ele>556.74</ele><time>2012-04-06T07:50:07Z</time></trkpt><trkpt lat="31.7895061243" lon="35.0481712259"><ele>557.22</ele><time>2012-04-06T07:50:18Z</time></trkpt><trkpt lat="31.7895424180" lon="35.0479815435"><ele>556.74</ele><time>2012-04-06T07:50:22Z</time></trkpt><trkpt lat="31.7895506322" lon="35.0478758477"><ele>556.74</ele><time>2012-04-06T07:50:24Z</time></trkpt><trkpt lat="31.7895461898" lon="35.0478221197"><ele>556.74</ele><time>2012-04-06T07:50:25Z</time></trkpt><trkpt lat="31.7895368021" lon="35.0477684755"><ele>556.74</ele><time>2012-04-06T07:50:26Z</time></trkpt><trkpt lat="31.7895227205" lon="35.0477167591"><ele>556.74</ele><time>2012-04-06T07:50:27Z</time></trkpt><trkpt lat="31.7895076331" lon="35.0476625282"><ele>556.26</ele><time>2012-04-06T07:50:28Z</time></trkpt><trkpt lat="31.7894877680" lon="35.0476051960"><ele>556.74</ele><time>2012-04-06T07:50:29Z</time></trkpt><trkpt lat="31.7894579284" lon="35.0475575030"><ele>556.74</ele><time>2012-04-06T07:50:30Z</time></trkpt><trkpt lat="31.7894258257" lon="35.0475176051"><ele>556.74</ele><time>2012-04-06T07:50:31Z</time></trkpt><trkpt lat="31.7893697508" lon="35.0474425033"><ele>556.74</ele><time>2012-04-06T07:50:33Z</time></trkpt><trkpt lat="31.7891270947" lon="35.0471833348"><ele>556.26</ele><time>2012-04-06T07:50:40Z</time></trkpt><trkpt lat="31.7890908010" lon="35.0471461192"><ele>556.26</ele><time>2012-04-06T07:50:41Z</time></trkpt><trkpt lat="31.7889690958" lon="35.0469892938"><ele>556.74</ele><time>2012-04-06T07:50:45Z</time></trkpt><trkpt lat="31.7889332213" lon="35.0469530001"><ele>556.74</ele><time>2012-04-06T07:50:46Z</time></trkpt><trkpt lat="31.7886525951" lon="35.0466837734"><ele>555.78</ele><time>2012-04-06T07:50:53Z</time></trkpt><trkpt lat="31.7884919140" lon="35.0465335697"><ele>555.78</ele><time>2012-04-06T07:50:57Z</time></trkpt><trkpt lat="31.7884671874" lon="35.0464882236"><ele>556.26</ele><time>2012-04-06T07:50:58Z</time></trkpt><trkpt lat="31.7884521838" lon="35.0464384351"><ele>556.26</ele><time>2012-04-06T07:50:59Z</time></trkpt><trkpt lat="31.7884518486" lon="35.0463930052"><ele>557.22</ele><time>2012-04-06T07:51:00Z</time></trkpt><trkpt lat="31.7884550337" lon="35.0463534426"><ele>557.70</ele><time>2012-04-06T07:51:01Z</time></trkpt><trkpt lat="31.7884580512" lon="35.0463192444"><ele>557.70</ele><time>2012-04-06T07:51:02Z</time></trkpt><trkpt lat="31.7884599790" lon="35.0462858006"><ele>557.70</ele><time>2012-04-06T07:51:03Z</time></trkpt><trkpt lat="31.7886100151" lon="35.0458446611"><ele>556.74</ele><time>2012-04-06T07:51:14Z</time></trkpt><trkpt lat="31.7886354122" lon="35.0458104629"><ele>557.22</ele><time>2012-04-06T07:51:15Z</time></trkpt><trkpt lat="31.7887511663" lon="35.0456677191"><ele>556.74</ele><time>2012-04-06T07:51:19Z</time></trkpt><trkpt lat="31.7887823470" lon="35.0456326827"><ele>556.74</ele><time>2012-04-06T07:51:20Z</time></trkpt><trkpt lat="31.7888721172" lon="35.0455160905"><ele>556.26</ele><time>2012-04-06T07:51:23Z</time></trkpt><trkpt lat="31.7889344785" lon="35.0454444252"><ele>556.26</ele><time>2012-04-06T07:51:25Z</time></trkpt><trkpt lat="31.7889982648" lon="35.0453786273"><ele>556.26</ele><time>2012-04-06T07:51:27Z</time></trkpt><trkpt lat="31.7890248355" lon="35.0453399029"><ele>556.26</ele><time>2012-04-06T07:51:28Z</time></trkpt><trkpt lat="31.7892708443" lon="35.0449294411"><ele>556.26</ele><time>2012-04-06T07:51:38Z</time></trkpt><trkpt lat="31.7893903702" lon="35.0444071647"><ele>555.78</ele><time>2012-04-06T07:51:48Z</time></trkpt><trkpt lat="31.7894127499" lon="35.0443525147"><ele>555.78</ele><time>2012-04-06T07:51:49Z</time></trkpt><trkpt lat="31.7894261610" lon="35.0442937575"><ele>555.30</ele><time>2012-04-06T07:51:50Z</time></trkpt><trkpt lat="31.7894399911" lon="35.0442378502"><ele>555.78</ele><time>2012-04-06T07:51:51Z</time></trkpt><trkpt lat="31.7894584313" lon="35.0441910792"><ele>555.78</ele><time>2012-04-06T07:51:52Z</time></trkpt><trkpt lat="31.7894782126" lon="35.0441422127"><ele>555.30</ele><time>2012-04-06T07:51:53Z</time></trkpt><trkpt lat="31.7894916236" lon="35.0440904964"><ele>555.30</ele><time>2012-04-06T07:51:54Z</time></trkpt><trkpt lat="31.7894985806" lon="35.0440351758"><ele>555.30</ele><time>2012-04-06T07:51:55Z</time></trkpt><trkpt lat="31.7895079684" lon="35.0439806934"><ele>555.30</ele><time>2012-04-06T07:51:56Z</time></trkpt><trkpt lat="31.7895212956" lon="35.0439305697"><ele>555.78</ele><time>2012-04-06T07:51:57Z</time></trkpt><trkpt lat="31.7895352934" lon="35.0438831281"><ele>555.30</ele><time>2012-04-06T07:51:58Z</time></trkpt><trkpt lat="31.7895462736" lon="35.0438423082"><ele>555.78</ele><time>2012-04-06T07:51:59Z</time></trkpt><trkpt lat="31.7895574216" lon="35.0438109599"><ele>556.26</ele><time>2012-04-06T07:52:00Z</time></trkpt><trkpt lat="31.7895669769" lon="35.0437843055"><ele>556.26</ele><time>2012-04-06T07:52:01Z</time></trkpt><trkpt lat="31.7896250635" lon="35.0436339341"><ele>556.74</ele><time>2012-04-06T07:52:09Z</time></trkpt><trkpt lat="31.7896393966" lon="35.0436248817"><ele>556.26</ele><time>2012-04-06T07:52:10Z</time></trkpt><trkpt lat="31.7896514665" lon="35.0436192658"><ele>556.26</ele><time>2012-04-06T07:52:11Z</time></trkpt><trkpt lat="31.7896637041" lon="35.0436181761"><ele>556.26</ele><time>2012-04-06T07:52:12Z</time></trkpt><trkpt lat="31.7896730080" lon="35.0436263066"><ele>556.74</ele><time>2012-04-06T07:52:13Z</time></trkpt><trkpt lat="31.7896802165" lon="35.0436367001"><ele>556.26</ele><time>2012-04-06T07:52:14Z</time></trkpt><trkpt lat="31.7896865867" lon="35.0436444115"><ele>556.74</ele><time>2012-04-06T07:52:24Z</time></trkpt><trkpt lat="31.7896798812" lon="35.0436548889"><ele>556.74</ele><time>2012-04-06T07:52:50Z</time></trkpt><trkpt lat="31.7896971479" lon="35.0436821301"><ele>556.26</ele><time>2012-04-06T07:53:03Z</time></trkpt><trkpt lat="31.7897013389" lon="35.0436983071"><ele>556.74</ele><time>2012-04-06T07:53:04Z</time></trkpt><trkpt lat="31.7897028476" lon="35.0437126402"><ele>557.22</ele><time>2012-04-06T07:53:05Z</time></trkpt><trkpt lat="31.7897136603" lon="35.0437463354"><ele>558.18</ele><time>2012-04-06T07:53:08Z</time></trkpt><trkpt lat="31.7897154205" lon="35.0437616743"><ele>557.70</ele><time>2012-04-06T07:53:09Z</time></trkpt><trkpt lat="31.7897200305" lon="35.0437812041"><ele>557.70</ele><time>2012-04-06T07:53:10Z</time></trkpt><trkpt lat="31.7897239700" lon="35.0438036676"><ele>558.18</ele><time>2012-04-06T07:53:11Z</time></trkpt><trkpt lat="31.7897258140" lon="35.0438267179"><ele>558.18</ele><time>2012-04-06T07:53:12Z</time></trkpt><trkpt lat="31.7897263169" lon="35.0438490137"><ele>558.18</ele><time>2012-04-06T07:53:13Z</time></trkpt><trkpt lat="31.7897613533" lon="35.0440136343"><ele>559.62</ele><time>2012-04-06T07:53:22Z</time></trkpt><trkpt lat="31.7897714954" lon="35.0440256204"><ele>559.62</ele><time>2012-04-06T07:53:23Z</time></trkpt><trkpt lat="31.7897826433" lon="35.0440339185"><ele>560.11</ele><time>2012-04-06T07:53:24Z</time></trkpt><trkpt lat="31.7897947971" lon="35.0440424681"><ele>560.59</ele><time>2012-04-06T07:53:25Z</time></trkpt><trkpt lat="31.7898057774" lon="35.0440493412"><ele>561.07</ele><time>2012-04-06T07:53:26Z</time></trkpt><trkpt lat="31.7898169253" lon="35.0440504309"><ele>561.07</ele><time>2012-04-06T07:53:27Z</time></trkpt><trkpt lat="31.7898287438" lon="35.0440532807"><ele>561.07</ele><time>2012-04-06T07:53:28Z</time></trkpt><trkpt lat="31.7898398917" lon="35.0440517720"><ele>561.55</ele><time>2012-04-06T07:53:29Z</time></trkpt><trkpt lat="31.7898538057" lon="35.0440495927"><ele>562.03</ele><time>2012-04-06T07:53:30Z</time></trkpt><trkpt lat="31.7898704018" lon="35.0440469943"><ele>562.03</ele><time>2012-04-06T07:53:31Z</time></trkpt><trkpt lat="31.7899634410" lon="35.0440256204"><ele>562.99</ele><time>2012-04-06T07:53:37Z</time></trkpt><trkpt lat="31.7899768520" lon="35.0440189987"><ele>563.47</ele><time>2012-04-06T07:53:38Z</time></trkpt><trkpt lat="31.7899912689" lon="35.0440162327"><ele>562.99</ele><time>2012-04-06T07:53:39Z</time></trkpt><trkpt lat="31.7902181670" lon="35.0439846329"><ele>564.91</ele><time>2012-04-06T07:53:55Z</time></trkpt><trkpt lat="31.7903895769" lon="35.0438600779"><ele>565.87</ele><time>2012-04-06T07:54:10Z</time></trkpt><trkpt lat="31.7904040776" lon="35.0438598264"><ele>565.39</ele><time>2012-04-06T07:54:11Z</time></trkpt><trkpt lat="31.7904181592" lon="35.0438636821"><ele>565.39</ele><time>2012-04-06T07:54:12Z</time></trkpt><trkpt lat="31.7905357573" lon="35.0439410470"><ele>566.35</ele><time>2012-04-06T07:54:22Z</time></trkpt><trkpt lat="31.7905476596" lon="35.0439488422"><ele>566.35</ele><time>2012-04-06T07:54:23Z</time></trkpt><trkpt lat="31.7905837856" lon="35.0439677015"><ele>566.35</ele><time>2012-04-06T07:54:26Z</time></trkpt><trkpt lat="31.7905952688" lon="35.0439759158"><ele>566.83</ele><time>2012-04-06T07:54:27Z</time></trkpt><trkpt lat="31.7906070035" lon="35.0439826213"><ele>567.32</ele><time>2012-04-06T07:54:28Z</time></trkpt><trkpt lat="31.7906200793" lon="35.0439902488"><ele>566.83</ele><time>2012-04-06T07:54:29Z</time></trkpt><trkpt lat="31.7906325683" lon="35.0439991336"><ele>567.32</ele><time>2012-04-06T07:54:30Z</time></trkpt><trkpt lat="31.7907818500" lon="35.0441534445"><ele>569.72</ele><time>2012-04-06T07:54:45Z</time></trkpt><trkpt lat="31.7909220792" lon="35.0442702882"><ele>570.68</ele><time>2012-04-06T07:54:58Z</time></trkpt><trkpt lat="31.7909324728" lon="35.0442809332"><ele>571.16</ele><time>2012-04-06T07:54:59Z</time></trkpt><trkpt lat="31.7909727059" lon="35.0443299673"><ele>572.12</ele><time>2012-04-06T07:55:04Z</time></trkpt><trkpt lat="31.7909787409" lon="35.0443410315"><ele>572.12</ele><time>2012-04-06T07:55:05Z</time></trkpt><trkpt lat="31.7909889668" lon="35.0443500001"><ele>572.12</ele><time>2012-04-06T07:55:06Z</time></trkpt><trkpt lat="31.7911476362" lon="35.0444730464"><ele>574.04</ele><time>2012-04-06T07:55:21Z</time></trkpt><trkpt lat="31.7911606282" lon="35.0444808416"><ele>574.04</ele><time>2012-04-06T07:55:22Z</time></trkpt><trkpt lat="31.7912177928" lon="35.0445007067"><ele>575.01</ele><time>2012-04-06T07:55:27Z</time></trkpt><trkpt lat="31.7912307009" lon="35.0445041433"><ele>575.01</ele><time>2012-04-06T07:55:28Z</time></trkpt><trkpt lat="31.7912436090" lon="35.0445054006"><ele>575.01</ele><time>2012-04-06T07:55:29Z</time></trkpt><trkpt lat="31.7912544217" lon="35.0445108488"><ele>575.49</ele><time>2012-04-06T07:55:30Z</time></trkpt><trkpt lat="31.7912654858" lon="35.0445152074"><ele>575.97</ele><time>2012-04-06T07:55:31Z</time></trkpt><trkpt lat="31.7912773043" lon="35.0445203204"><ele>575.97</ele><time>2012-04-06T07:55:32Z</time></trkpt><trkpt lat="31.7912892904" lon="35.0445247628"><ele>575.97</ele><time>2012-04-06T07:55:33Z</time></trkpt><trkpt lat="31.7914358899" lon="35.0445577875"><ele>579.33</ele><time>2012-04-06T07:55:47Z</time></trkpt><trkpt lat="31.7914566770" lon="35.0445663370"><ele>579.33</ele><time>2012-04-06T07:55:49Z</time></trkpt><trkpt lat="31.7914665677" lon="35.0445758086"><ele>579.33</ele><time>2012-04-06T07:55:50Z</time></trkpt><trkpt lat="31.7914753687" lon="35.0445843581"><ele>579.81</ele><time>2012-04-06T07:55:51Z</time></trkpt><trkpt lat="31.7915273365" lon="35.0446257647"><ele>580.29</ele><time>2012-04-06T07:55:57Z</time></trkpt><trkpt lat="31.7915343773" lon="35.0446361583"><ele>580.77</ele><time>2012-04-06T07:55:58Z</time></trkpt><trkpt lat="31.7915406637" lon="35.0446472224"><ele>580.77</ele><time>2012-04-06T07:55:59Z</time></trkpt><trkpt lat="31.7915472016" lon="35.0446588732"><ele>580.77</ele><time>2012-04-06T07:56:00Z</time></trkpt><trkpt lat="31.7915549129" lon="35.0446701050"><ele>580.77</ele><time>2012-04-06T07:56:01Z</time></trkpt><trkpt lat="31.7916161846" lon="35.0447867811"><ele>581.73</ele><time>2012-04-06T07:56:11Z</time></trkpt><trkpt lat="31.7916223872" lon="35.0447990187"><ele>581.73</ele><time>2012-04-06T07:56:12Z</time></trkpt><trkpt lat="31.7917329445" lon="35.0449638069"><ele>583.18</ele><time>2012-04-06T07:56:26Z</time></trkpt><trkpt lat="31.7917904444" lon="35.0450327899"><ele>583.66</ele><time>2012-04-06T07:56:32Z</time></trkpt><trkpt lat="31.7920513730" lon="35.0450073089"><ele>585.10</ele><time>2012-04-06T07:56:50Z</time></trkpt><trkpt lat="31.7922491021" lon="35.0449544191"><ele>587.02</ele><time>2012-04-06T07:57:04Z</time></trkpt><trkpt lat="31.7923785187" lon="35.0448199734"><ele>587.50</ele><time>2012-04-06T07:57:17Z</time></trkpt><trkpt lat="31.7923893314" lon="35.0448180456"><ele>587.50</ele><time>2012-04-06T07:57:18Z</time></trkpt><trkpt lat="31.7924063466" lon="35.0448113400"><ele>587.50</ele><time>2012-04-06T07:57:20Z</time></trkpt><trkpt lat="31.7924036644" lon="35.0448134355"><ele>587.50</ele><time>2012-04-06T07:57:33Z</time></trkpt><trkpt lat="31.7923980486" lon="35.0448165368"><ele>587.02</ele><time>2012-04-06T07:57:54Z</time></trkpt><trkpt lat="31.7924120463" lon="35.0448262598"><ele>587.02</ele><time>2012-04-06T07:57:55Z</time></trkpt><trkpt lat="31.7924190871" lon="35.0448416825"><ele>586.54</ele><time>2012-04-06T07:57:56Z</time></trkpt><trkpt lat="31.7924161535" lon="35.0448570214"><ele>586.54</ele><time>2012-04-06T07:57:57Z</time></trkpt><trkpt lat="31.7924089450" lon="35.0448655710"><ele>587.02</ele><time>2012-04-06T07:57:58Z</time></trkpt><trkpt lat="31.7923975457" lon="35.0448690075"><ele>587.02</ele><time>2012-04-06T07:57:59Z</time></trkpt><trkpt lat="31.7923866492" lon="35.0448723603"><ele>587.02</ele><time>2012-04-06T07:58:00Z</time></trkpt><trkpt lat="31.7923773453" lon="35.0448771380"><ele>587.02</ele><time>2012-04-06T07:58:01Z</time></trkpt><trkpt lat="31.7923693825" lon="35.0448827539"><ele>587.02</ele><time>2012-04-06T07:58:02Z</time></trkpt><trkpt lat="31.7923523672" lon="35.0449071452"><ele>586.54</ele><time>2012-04-06T07:58:04Z</time></trkpt><trkpt lat="31.7923471704" lon="35.0449352246"><ele>586.06</ele><time>2012-04-06T07:58:05Z</time></trkpt><trkpt lat="31.7923476733" lon="35.0449701771"><ele>586.06</ele><time>2012-04-06T07:58:06Z</time></trkpt><trkpt lat="31.7923528701" lon="35.0450105779"><ele>585.58</ele><time>2012-04-06T07:58:07Z</time></trkpt><trkpt lat="31.7923626769" lon="35.0450561754"><ele>585.58</ele><time>2012-04-06T07:58:08Z</time></trkpt><trkpt lat="31.7924299836" lon="35.0456503686"><ele>585.10</ele><time>2012-04-06T07:58:21Z</time></trkpt><trkpt lat="31.7926458176" lon="35.0459408853"><ele>585.58</ele><time>2012-04-06T07:58:32Z</time></trkpt><trkpt lat="31.7931101751" lon="35.0461443141"><ele>583.66</ele><time>2012-04-06T07:58:45Z</time></trkpt><trkpt lat="31.7932436150" lon="35.0461941026"><ele>582.22</ele><time>2012-04-06T07:58:50Z</time></trkpt><trkpt lat="31.7932602111" lon="35.0461776741"><ele>582.22</ele><time>2012-04-06T07:58:51Z</time></trkpt><trkpt lat="31.7932721972" lon="35.0461573899"><ele>581.73</ele><time>2012-04-06T07:58:52Z</time></trkpt><trkpt lat="31.7932762206" lon="35.0461325794"><ele>581.73</ele><time>2012-04-06T07:58:53Z</time></trkpt><trkpt lat="31.7932715267" lon="35.0461059250"><ele>581.73</ele><time>2012-04-06T07:58:54Z</time></trkpt><trkpt lat="31.7932584509" lon="35.0460791867"><ele>581.25</ele><time>2012-04-06T07:58:55Z</time></trkpt><trkpt lat="31.7932381667" lon="35.0460518617"><ele>581.25</ele><time>2012-04-06T07:58:56Z</time></trkpt><trkpt lat="31.7931850255" lon="35.0459922664"><ele>580.29</ele><time>2012-04-06T07:58:58Z</time></trkpt><trkpt lat="31.7930917349" lon="35.0458729919"><ele>579.33</ele><time>2012-04-06T07:59:01Z</time></trkpt><trkpt lat="31.7929991987" lon="35.0457114726"><ele>578.37</ele><time>2012-04-06T07:59:04Z</time></trkpt><trkpt lat="31.7929805070" lon="35.0456476025"><ele>578.37</ele><time>2012-04-06T07:59:05Z</time></trkpt><trkpt lat="31.7929733824" lon="35.0455813017"><ele>577.41</ele><time>2012-04-06T07:59:06Z</time></trkpt><trkpt lat="31.7929733824" lon="35.0455155037"><ele>576.93</ele><time>2012-04-06T07:59:07Z</time></trkpt><trkpt lat="31.7929750588" lon="35.0453855004"><ele>576.45</ele><time>2012-04-06T07:59:09Z</time></trkpt><trkpt lat="31.7929853685" lon="35.0453230552"><ele>575.97</ele><time>2012-04-06T07:59:10Z</time></trkpt><trkpt lat="31.7930085026" lon="35.0452732667"><ele>575.97</ele><time>2012-04-06T07:59:11Z</time></trkpt><trkpt lat="31.7930431198" lon="35.0452366378"><ele>575.49</ele><time>2012-04-06T07:59:12Z</time></trkpt><trkpt lat="31.7930845264" lon="35.0452108216"><ele>575.01</ele><time>2012-04-06T07:59:13Z</time></trkpt><trkpt lat="31.7931307107" lon="35.0452012662"><ele>574.53</ele><time>2012-04-06T07:59:14Z</time></trkpt><trkpt lat="31.7931755539" lon="35.0452020206"><ele>574.04</ele><time>2012-04-06T07:59:15Z</time></trkpt><trkpt lat="31.7932659946" lon="35.0452134199"><ele>573.08</ele><time>2012-04-06T07:59:17Z</time></trkpt><trkpt lat="31.7933120113" lon="35.0452222209"><ele>572.60</ele><time>2012-04-06T07:59:18Z</time></trkpt><trkpt lat="31.7935245764" lon="35.0452337880"><ele>569.24</ele><time>2012-04-06T07:59:23Z</time></trkpt><trkpt lat="31.7936646380" lon="35.0452521443"><ele>565.87</ele><time>2012-04-06T07:59:27Z</time></trkpt><trkpt lat="31.7937014345" lon="35.0452583469"><ele>565.87</ele><time>2012-04-06T07:59:28Z</time></trkpt><trkpt lat="31.7937807273" lon="35.0452455226"><ele>564.43</ele><time>2012-04-06T07:59:30Z</time></trkpt><trkpt lat="31.7938262410" lon="35.0452281721"><ele>563.47</ele><time>2012-04-06T07:59:31Z</time></trkpt><trkpt lat="31.7938738503" lon="35.0452035293"><ele>562.99</ele><time>2012-04-06T07:59:32Z</time></trkpt><trkpt lat="31.7939660512" lon="35.0451560039"><ele>562.03</ele><time>2012-04-06T07:59:34Z</time></trkpt><trkpt lat="31.7941882554" lon="35.0450800639"><ele>558.66</ele><time>2012-04-06T07:59:39Z</time></trkpt><trkpt lat="31.7942307517" lon="35.0450659823"><ele>558.18</ele><time>2012-04-06T07:59:40Z</time></trkpt><trkpt lat="31.7944422271" lon="35.0449741166"><ele>554.82</ele><time>2012-04-06T07:59:45Z</time></trkpt><trkpt lat="31.7944888305" lon="35.0449555926"><ele>554.34</ele><time>2012-04-06T07:59:46Z</time></trkpt><trkpt lat="31.7945437320" lon="35.0449339673"><ele>553.38</ele><time>2012-04-06T07:59:47Z</time></trkpt><trkpt lat="31.7945991363" lon="35.0449046306"><ele>552.41</ele><time>2012-04-06T07:59:48Z</time></trkpt><trkpt lat="31.7946479190" lon="35.0448692590"><ele>552.41</ele><time>2012-04-06T07:59:49Z</time></trkpt><trkpt lat="31.7946948577" lon="35.0448289420"><ele>551.45</ele><time>2012-04-06T07:59:50Z</time></trkpt><trkpt lat="31.7947386950" lon="35.0447855238"><ele>550.97</ele><time>2012-04-06T07:59:51Z</time></trkpt><trkpt lat="31.7947805207" lon="35.0447431114"><ele>550.01</ele><time>2012-04-06T07:59:52Z</time></trkpt><trkpt lat="31.7949505057" lon="35.0445737969"><ele>546.65</ele><time>2012-04-06T07:59:56Z</time></trkpt><trkpt lat="31.7951459717" lon="35.0443579629"><ele>543.76</ele><time>2012-04-06T08:00:00Z</time></trkpt><trkpt lat="31.7952913977" lon="35.0441410393"><ele>542.32</ele><time>2012-04-06T08:00:03Z</time></trkpt><trkpt lat="31.7954897974" lon="35.0437845569"><ele>540.40</ele><time>2012-04-06T08:00:09Z</time></trkpt><trkpt lat="31.7955541704" lon="35.0437097065"><ele>539.44</ele><time>2012-04-06T08:00:11Z</time></trkpt><trkpt lat="31.7956931423" lon="35.0435877498"><ele>537.03</ele><time>2012-04-06T08:00:15Z</time></trkpt><trkpt lat="31.7957316991" lon="35.0435533840"><ele>537.03</ele><time>2012-04-06T08:00:16Z</time></trkpt><trkpt lat="31.7959342059" lon="35.0433409028"><ele>533.19</ele><time>2012-04-06T08:00:21Z</time></trkpt><trkpt lat="31.7959761992" lon="35.0432995800"><ele>532.71</ele><time>2012-04-06T08:00:22Z</time></trkpt><trkpt lat="31.7960559111" lon="35.0432146713"><ele>532.23</ele><time>2012-04-06T08:00:24Z</time></trkpt><trkpt lat="31.7960966472" lon="35.0431776233"><ele>530.79</ele><time>2012-04-06T08:00:25Z</time></trkpt><trkpt lat="31.7961390596" lon="35.0431420840"><ele>530.79</ele><time>2012-04-06T08:00:26Z</time></trkpt><trkpt lat="31.7963265628" lon="35.0429615378"><ele>528.86</ele><time>2012-04-06T08:00:30Z</time></trkpt><trkpt lat="31.7964207754" lon="35.0428406708"><ele>527.90</ele><time>2012-04-06T08:00:32Z</time></trkpt><trkpt lat="31.7965107132" lon="35.0427030399"><ele>527.42</ele><time>2012-04-06T08:00:34Z</time></trkpt><trkpt lat="31.7967343424" lon="35.0423059892"><ele>525.02</ele><time>2012-04-06T08:00:40Z</time></trkpt><trkpt lat="31.7967619188" lon="35.0422384311"><ele>524.54</ele><time>2012-04-06T08:00:41Z</time></trkpt><trkpt lat="31.7967969552" lon="35.0421696994"><ele>524.06</ele><time>2012-04-06T08:00:42Z</time></trkpt><trkpt lat="31.7968660221" lon="35.0420378521"><ele>523.09</ele><time>2012-04-06T08:00:44Z</time></trkpt><trkpt lat="31.7968894076" lon="35.0419717189"><ele>523.09</ele><time>2012-04-06T08:00:45Z</time></trkpt><trkpt lat="31.7969106976" lon="35.0419073459"><ele>522.13</ele><time>2012-04-06T08:00:46Z</time></trkpt><trkpt lat="31.7969385255" lon="35.0418445654"><ele>522.13</ele><time>2012-04-06T08:00:47Z</time></trkpt><trkpt lat="31.7969730590" lon="35.0417813659"><ele>521.65</ele><time>2012-04-06T08:00:48Z</time></trkpt><trkpt lat="31.7970097717" lon="35.0417211838"><ele>521.17</ele><time>2012-04-06T08:00:49Z</time></trkpt><trkpt lat="31.7970495019" lon="35.0416675396"><ele>521.17</ele><time>2012-04-06T08:00:50Z</time></trkpt><trkpt lat="31.7970928364" lon="35.0416198466"><ele>520.69</ele><time>2012-04-06T08:00:51Z</time></trkpt><trkpt lat="31.7971343268" lon="35.0415726565"><ele>520.21</ele><time>2012-04-06T08:00:52Z</time></trkpt><trkpt lat="31.7973081674" lon="35.0413331017"><ele>518.29</ele><time>2012-04-06T08:00:57Z</time></trkpt><trkpt lat="31.7973430362" lon="35.0412912760"><ele>518.29</ele><time>2012-04-06T08:00:58Z</time></trkpt><trkpt lat="31.7973722052" lon="35.0412509590"><ele>518.29</ele><time>2012-04-06T08:00:59Z</time></trkpt><trkpt lat="31.7975514103" lon="35.0410683174"><ele>516.37</ele><time>2012-04-06T08:01:04Z</time></trkpt><trkpt lat="31.7975883745" lon="35.0410271622"><ele>515.40</ele><time>2012-04-06T08:01:05Z</time></trkpt><trkpt lat="31.7976661585" lon="35.0409337878"><ele>514.92</ele><time>2012-04-06T08:01:07Z</time></trkpt><trkpt lat="31.7978328746" lon="35.0406700093"><ele>513.00</ele><time>2012-04-06T08:01:12Z</time></trkpt><trkpt lat="31.7978925537" lon="35.0405643135"><ele>512.52</ele><time>2012-04-06T08:01:14Z</time></trkpt><trkpt lat="31.7979285959" lon="35.0405242480"><ele>512.04</ele><time>2012-04-06T08:01:15Z</time></trkpt><trkpt lat="31.7979657277" lon="35.0404851884"><ele>511.56</ele><time>2012-04-06T08:01:16Z</time></trkpt><trkpt lat="31.7979990039" lon="35.0404378306"><ele>512.04</ele><time>2012-04-06T08:01:17Z</time></trkpt><trkpt lat="31.7980319448" lon="35.0403835997"><ele>511.56</ele><time>2012-04-06T08:01:18Z</time></trkpt><trkpt lat="31.7980646342" lon="35.0403287821"><ele>511.08</ele><time>2012-04-06T08:01:19Z</time></trkpt><trkpt lat="31.7980990000" lon="35.0402727909"><ele>510.60</ele><time>2012-04-06T08:01:20Z</time></trkpt><trkpt lat="31.7982141674" lon="35.0400981959"><ele>510.60</ele><time>2012-04-06T08:01:23Z</time></trkpt><trkpt lat="31.7983383033" lon="35.0399419572"><ele>509.16</ele><time>2012-04-06T08:01:26Z</time></trkpt><trkpt lat="31.7986466736" lon="35.0394874066"><ele>506.27</ele><time>2012-04-06T08:01:33Z</time></trkpt><trkpt lat="31.7988059297" lon="35.0392787810"><ele>504.35</ele><time>2012-04-06T08:01:37Z</time></trkpt><trkpt lat="31.7988262977" lon="35.0392278191"><ele>503.87</ele><time>2012-04-06T08:01:38Z</time></trkpt><trkpt lat="31.7988433968" lon="35.0391754322"><ele>503.87</ele><time>2012-04-06T08:01:39Z</time></trkpt><trkpt lat="31.7988672853" lon="35.0391260628"><ele>503.39</ele><time>2012-04-06T08:01:40Z</time></trkpt><trkpt lat="31.7988951132" lon="35.0390782021"><ele>503.87</ele><time>2012-04-06T08:01:41Z</time></trkpt><trkpt lat="31.7989309039" lon="35.0390308443"><ele>503.39</ele><time>2012-04-06T08:01:42Z</time></trkpt><trkpt lat="31.7990531120" lon="35.0388929620"><ele>501.95</ele><time>2012-04-06T08:01:45Z</time></trkpt><trkpt lat="31.7990903277" lon="35.0388362166"><ele>501.46</ele><time>2012-04-06T08:01:46Z</time></trkpt><trkpt lat="31.7991525214" lon="35.0387181155"><ele>500.98</ele><time>2012-04-06T08:01:48Z</time></trkpt><trkpt lat="31.7991784215" lon="35.0386534072"><ele>500.50</ele><time>2012-04-06T08:01:49Z</time></trkpt><trkpt lat="31.7992013879" lon="35.0385892857"><ele>500.02</ele><time>2012-04-06T08:01:50Z</time></trkpt><trkpt lat="31.7992234323" lon="35.0385228172"><ele>499.54</ele><time>2012-04-06T08:01:51Z</time></trkpt><trkpt lat="31.7992465664" lon="35.0384555943"><ele>499.06</ele><time>2012-04-06T08:01:52Z</time></trkpt><trkpt lat="31.7995103449" lon="35.0379002094"><ele>495.70</ele><time>2012-04-06T08:02:01Z</time></trkpt><trkpt lat="31.7995349877" lon="35.0378302205"><ele>495.70</ele><time>2012-04-06T08:02:02Z</time></trkpt><trkpt lat="31.7995768972" lon="35.0377156399"><ele>495.22</ele><time>2012-04-06T08:02:04Z</time></trkpt><trkpt lat="31.7997516599" lon="35.0373489317"><ele>492.33</ele><time>2012-04-06T08:02:13Z</time></trkpt><trkpt lat="31.7997779790" lon="35.0373021606"><ele>492.33</ele><time>2012-04-06T08:02:14Z</time></trkpt><trkpt lat="31.7998026218" lon="35.0372568145"><ele>492.33</ele><time>2012-04-06T08:02:15Z</time></trkpt><trkpt lat="31.7998271808" lon="35.0372092053"><ele>491.37</ele><time>2012-04-06T08:02:16Z</time></trkpt><trkpt lat="31.7998545896" lon="35.0371639431"><ele>491.37</ele><time>2012-04-06T08:02:17Z</time></trkpt><trkpt lat="31.7998843454" lon="35.0371216144"><ele>491.37</ele><time>2012-04-06T08:02:18Z</time></trkpt><trkpt lat="31.7999386601" lon="35.0370426569"><ele>490.89</ele><time>2012-04-06T08:02:20Z</time></trkpt><trkpt lat="31.8000296876" lon="35.0368865859"><ele>489.45</ele><time>2012-04-06T08:02:24Z</time></trkpt><trkpt lat="31.8000803143" lon="35.0367955584"><ele>489.45</ele><time>2012-04-06T08:02:26Z</time></trkpt><trkpt lat="31.8001098186" lon="35.0367514696"><ele>488.97</ele><time>2012-04-06T08:02:27Z</time></trkpt><trkpt lat="31.8002045341" lon="35.0365991704"><ele>488.49</ele><time>2012-04-06T08:02:30Z</time></trkpt><trkpt lat="31.8002564181" lon="35.0364839192"><ele>487.05</ele><time>2012-04-06T08:02:32Z</time></trkpt><trkpt lat="31.8002767023" lon="35.0364266708"><ele>487.05</ele><time>2012-04-06T08:02:33Z</time></trkpt><trkpt lat="31.8004906084" lon="35.0359721202"><ele>485.12</ele><time>2012-04-06T08:02:41Z</time></trkpt><trkpt lat="31.8005022593" lon="35.0359079987"><ele>485.12</ele><time>2012-04-06T08:02:42Z</time></trkpt><trkpt lat="31.8005022593" lon="35.0358408596"><ele>485.12</ele><time>2012-04-06T08:02:43Z</time></trkpt><trkpt lat="31.8004688155" lon="35.0356495846"><ele>483.68</ele><time>2012-04-06T08:02:46Z</time></trkpt><trkpt lat="31.8004621938" lon="35.0355833676"><ele>483.68</ele><time>2012-04-06T08:02:47Z</time></trkpt><trkpt lat="31.8004355393" lon="35.0351910945"><ele>483.20</ele><time>2012-04-06T08:02:53Z</time></trkpt><trkpt lat="31.8004152551" lon="35.0351457484"><ele>483.20</ele><time>2012-04-06T08:02:54Z</time></trkpt><trkpt lat="31.8003874272" lon="35.0351144839"><ele>483.20</ele><time>2012-04-06T08:02:55Z</time></trkpt><trkpt lat="31.8003578391" lon="35.0350957923"><ele>483.20</ele><time>2012-04-06T08:02:56Z</time></trkpt><trkpt lat="31.8003264070" lon="35.0350843091"><ele>483.20</ele><time>2012-04-06T08:02:57Z</time></trkpt><trkpt lat="31.8002943043" lon="35.0350738317"><ele>483.68</ele><time>2012-04-06T08:02:58Z</time></trkpt><trkpt lat="31.8002615310" lon="35.0350637734"><ele>483.20</ele><time>2012-04-06T08:02:59Z</time></trkpt><trkpt lat="31.7999136820" lon="35.0348297507"><ele>484.16</ele><time>2012-04-06T08:03:10Z</time></trkpt><trkpt lat="31.7995657492" lon="35.0344263297"><ele>485.60</ele><time>2012-04-06T08:03:24Z</time></trkpt><trkpt lat="31.7993020546" lon="35.0341954082"><ele>488.01</ele><time>2012-04-06T08:03:36Z</time></trkpt><trkpt lat="31.7991298903" lon="35.0340530835"><ele>486.56</ele><time>2012-04-06T08:03:42Z</time></trkpt><trkpt lat="31.7989257071" lon="35.0335759018"><ele>487.53</ele><time>2012-04-06T08:03:55Z</time></trkpt><trkpt lat="31.7988573946" lon="35.0333610736"><ele>488.49</ele><time>2012-04-06T08:04:03Z</time></trkpt><trkpt lat="31.7988589033" lon="35.0333205052"><ele>488.01</ele><time>2012-04-06T08:04:04Z</time></trkpt><trkpt lat="31.7988722306" lon="35.0328566507"><ele>487.05</ele><time>2012-04-06T08:04:12Z</time></trkpt><trkpt lat="31.7990060057" lon="35.0326489471"><ele>487.05</ele><time>2012-04-06T08:04:22Z</time></trkpt><trkpt lat="31.7990839574" lon="35.0326268189"><ele>485.60</ele><time>2012-04-06T08:04:25Z</time></trkpt><trkpt lat="31.7992897332" lon="35.0326202810"><ele>482.24</ele><time>2012-04-06T08:04:32Z</time></trkpt><trkpt lat="31.7993125319" lon="35.0326171797"><ele>482.24</ele><time>2012-04-06T08:04:33Z</time></trkpt><trkpt lat="31.7994594667" lon="35.0325233862"><ele>478.87</ele><time>2012-04-06T08:04:39Z</time></trkpt><trkpt lat="31.7995499913" lon="35.0324159302"><ele>475.99</ele><time>2012-04-06T08:04:44Z</time></trkpt><trkpt lat="31.7995728739" lon="35.0324098952"><ele>475.51</ele><time>2012-04-06T08:04:45Z</time></trkpt><trkpt lat="31.7995951697" lon="35.0324145891"><ele>475.51</ele><time>2012-04-06T08:04:46Z</time></trkpt><trkpt lat="31.7996174656" lon="35.0324252341"><ele>475.03</ele><time>2012-04-06T08:04:47Z</time></trkpt><trkpt lat="31.7996446230" lon="35.0324378908"><ele>474.55</ele><time>2012-04-06T08:04:48Z</time></trkpt><trkpt lat="31.7996759713" lon="35.0324477814"><ele>474.07</ele><time>2012-04-06T08:04:49Z</time></trkpt><trkpt lat="31.7997074872" lon="35.0324530620"><ele>473.59</ele><time>2012-04-06T08:04:50Z</time></trkpt><trkpt lat="31.7997362372" lon="35.0324493740"><ele>473.11</ele><time>2012-04-06T08:04:51Z</time></trkpt><trkpt lat="31.7997646518" lon="35.0324346218"><ele>473.11</ele><time>2012-04-06T08:04:52Z</time></trkpt><trkpt lat="31.7997927312" lon="35.0324132480"><ele>472.63</ele><time>2012-04-06T08:04:53Z</time></trkpt><trkpt lat="31.7998191342" lon="35.0323881023"><ele>472.14</ele><time>2012-04-06T08:04:54Z</time></trkpt><trkpt lat="31.7998412624" lon="35.0323611964"><ele>471.18</ele><time>2012-04-06T08:04:55Z</time></trkpt><trkpt lat="31.7998587806" lon="35.0323326979"><ele>470.70</ele><time>2012-04-06T08:04:56Z</time></trkpt><trkpt lat="31.7998761311" lon="35.0323031936"><ele>470.22</ele><time>2012-04-06T08:04:57Z</time></trkpt><trkpt lat="31.7999754567" lon="35.0321570132"><ele>466.86</ele><time>2012-04-06T08:05:02Z</time></trkpt><trkpt lat="31.8001182005" lon="35.0320306979"><ele>463.01</ele><time>2012-04-06T08:05:07Z</time></trkpt><trkpt lat="31.8002269138" lon="35.0319203082"><ele>459.65</ele><time>2012-04-06T08:05:11Z</time></trkpt><trkpt lat="31.8002497125" lon="35.0318828411"><ele>458.69</ele><time>2012-04-06T08:05:12Z</time></trkpt><trkpt lat="31.8002901133" lon="35.0317936577"><ele>456.76</ele><time>2012-04-06T08:05:14Z</time></trkpt><trkpt lat="31.8003067095" lon="35.0317481440"><ele>456.28</ele><time>2012-04-06T08:05:15Z</time></trkpt><trkpt lat="31.8003647961" lon="35.0315012969"><ele>453.40</ele><time>2012-04-06T08:05:20Z</time></trkpt><trkpt lat="31.8004730064" lon="35.0310950261"><ele>449.55</ele><time>2012-04-06T08:05:26Z</time></trkpt><trkpt lat="31.8005303387" lon="35.0308219437"><ele>446.19</ele><time>2012-04-06T08:05:31Z</time></trkpt><trkpt lat="31.8005994894" lon="35.0305441674"><ele>444.27</ele><time>2012-04-06T08:05:35Z</time></trkpt><trkpt lat="31.8006093800" lon="35.0304717477"><ele>443.79</ele><time>2012-04-06T08:05:36Z</time></trkpt><trkpt lat="31.8007308338" lon="35.0298887864"><ele>440.42</ele><time>2012-04-06T08:05:43Z</time></trkpt><trkpt lat="31.8007582426" lon="35.0298170373"><ele>439.94</ele><time>2012-04-06T08:05:44Z</time></trkpt><trkpt lat="31.8007880822" lon="35.0297529157"><ele>439.46</ele><time>2012-04-06T08:05:45Z</time></trkpt><trkpt lat="31.8009998929" lon="35.0293939188"><ele>436.58</ele><time>2012-04-06T08:05:51Z</time></trkpt><trkpt lat="31.8012482487" lon="35.0290795136"><ele>433.21</ele><time>2012-04-06T08:05:57Z</time></trkpt><trkpt lat="31.8012863025" lon="35.0290302280"><ele>432.25</ele><time>2012-04-06T08:05:58Z</time></trkpt><trkpt lat="31.8013189919" lon="35.0289768353"><ele>431.77</ele><time>2012-04-06T08:05:59Z</time></trkpt><trkpt lat="31.8013505917" lon="35.0289228559"><ele>431.29</ele><time>2012-04-06T08:06:00Z</time></trkpt><trkpt lat="31.8013843708" lon="35.0288743246"><ele>430.81</ele><time>2012-04-06T08:06:01Z</time></trkpt><trkpt lat="31.8014193233" lon="35.0288273860"><ele>430.33</ele><time>2012-04-06T08:06:02Z</time></trkpt><trkpt lat="31.8014513422" lon="35.0287817884"><ele>429.37</ele><time>2012-04-06T08:06:03Z</time></trkpt><trkpt lat="31.8015122786" lon="35.0286910124"><ele>428.40</ele><time>2012-04-06T08:06:05Z</time></trkpt><trkpt lat="31.8016101792" lon="35.0285668764"><ele>426.48</ele><time>2012-04-06T08:06:08Z</time></trkpt><trkpt lat="31.8017400149" lon="35.0283776131"><ele>423.12</ele><time>2012-04-06T08:06:13Z</time></trkpt><trkpt lat="31.8017657474" lon="35.0283452589"><ele>423.12</ele><time>2012-04-06T08:06:14Z</time></trkpt><trkpt lat="31.8018348143" lon="35.0282394793"><ele>421.68</ele><time>2012-04-06T08:06:17Z</time></trkpt><trkpt lat="31.8019048031" lon="35.0281300955"><ele>419.75</ele><time>2012-04-06T08:06:20Z</time></trkpt><trkpt lat="31.8020329624" lon="35.0279364735"><ele>416.39</ele><time>2012-04-06T08:06:25Z</time></trkpt><trkpt lat="31.8020953238" lon="35.0278701726"><ele>414.95</ele><time>2012-04-06T08:06:28Z</time></trkpt><trkpt lat="31.8021204695" lon="35.0278538279"><ele>414.47</ele><time>2012-04-06T08:06:29Z</time></trkpt><trkpt lat="31.8021501414" lon="35.0278226472"><ele>413.98</ele><time>2012-04-06T08:06:30Z</time></trkpt><trkpt lat="31.8022104073" lon="35.0277490541"><ele>413.02</ele><time>2012-04-06T08:06:32Z</time></trkpt><trkpt lat="31.8022353854" lon="35.0277068093"><ele>412.06</ele><time>2012-04-06T08:06:33Z</time></trkpt><trkpt lat="31.8022595253" lon="35.0276605412"><ele>412.06</ele><time>2012-04-06T08:06:34Z</time></trkpt><trkpt lat="31.8024730124" lon="35.0273532607"><ele>408.22</ele><time>2012-04-06T08:06:41Z</time></trkpt><trkpt lat="31.8025222979" lon="35.0272800028"><ele>407.26</ele><time>2012-04-06T08:06:43Z</time></trkpt><trkpt lat="31.8025647104" lon="35.0271968544"><ele>406.77</ele><time>2012-04-06T08:06:45Z</time></trkpt><trkpt lat="31.8025834858" lon="35.0271460600"><ele>405.81</ele><time>2012-04-06T08:06:46Z</time></trkpt><trkpt lat="31.8026112299" lon="35.0270360895"><ele>404.85</ele><time>2012-04-06T08:06:48Z</time></trkpt><trkpt lat="31.8026468530" lon="35.0268575549"><ele>402.93</ele><time>2012-04-06T08:06:51Z</time></trkpt><trkpt lat="31.8026672211" lon="35.0267323293"><ele>402.45</ele><time>2012-04-06T08:06:53Z</time></trkpt><trkpt lat="31.8026848231" lon="35.0266704708"><ele>401.49</ele><time>2012-04-06T08:06:54Z</time></trkpt><trkpt lat="31.8027037662" lon="35.0266056787"><ele>401.01</ele><time>2012-04-06T08:06:55Z</time></trkpt><trkpt lat="31.8027429935" lon="35.0264788605"><ele>400.05</ele><time>2012-04-06T08:06:57Z</time></trkpt><trkpt lat="31.8027654570" lon="35.0264206063"><ele>399.57</ele><time>2012-04-06T08:06:58Z</time></trkpt><trkpt lat="31.8028242979" lon="35.0263144914"><ele>398.60</ele><time>2012-04-06T08:07:00Z</time></trkpt><trkpt lat="31.8028698955" lon="35.0262707379"><ele>398.12</ele><time>2012-04-06T08:07:01Z</time></trkpt><trkpt lat="31.8031888269" lon="35.0260261539"><ele>393.80</ele><time>2012-04-06T08:07:06Z</time></trkpt><trkpt lat="31.8034431338" lon="35.0258557498"><ele>390.91</ele><time>2012-04-06T08:07:10Z</time></trkpt><trkpt lat="31.8037302978" lon="35.0256734435"><ele>389.95</ele><time>2012-04-06T08:07:15Z</time></trkpt><trkpt lat="31.8037783261" lon="35.0256436877"><ele>389.47</ele><time>2012-04-06T08:07:16Z</time></trkpt><trkpt lat="31.8038244266" lon="35.0256144349"><ele>388.99</ele><time>2012-04-06T08:07:17Z</time></trkpt><trkpt lat="31.8038687669" lon="35.0255847629"><ele>388.99</ele><time>2012-04-06T08:07:18Z</time></trkpt><trkpt lat="31.8039123528" lon="35.0255534146"><ele>388.99</ele><time>2012-04-06T08:07:19Z</time></trkpt><trkpt lat="31.8039602134" lon="35.0255255867"><ele>388.99</ele><time>2012-04-06T08:07:20Z</time></trkpt><trkpt lat="31.8041778076" lon="35.0254105031"><ele>387.07</ele><time>2012-04-06T08:07:24Z</time></trkpt><trkpt lat="31.8042313680" lon="35.0253655761"><ele>386.11</ele><time>2012-04-06T08:07:25Z</time></trkpt><trkpt lat="31.8045753613" lon="35.0250757299"><ele>382.26</ele><time>2012-04-06T08:07:31Z</time></trkpt><trkpt lat="31.8048148323" lon="35.0249302201"><ele>378.42</ele><time>2012-04-06T08:07:35Z</time></trkpt><trkpt lat="31.8048603460" lon="35.0249059964"><ele>378.42</ele><time>2012-04-06T08:07:36Z</time></trkpt><trkpt lat="31.8050914351" lon="35.0247555412"><ele>376.01</ele><time>2012-04-06T08:07:41Z</time></trkpt><trkpt lat="31.8051400501" lon="35.0247154757"><ele>375.53</ele><time>2012-04-06T08:07:42Z</time></trkpt><trkpt lat="31.8052981328" lon="35.0245847180"><ele>372.17</ele><time>2012-04-06T08:07:45Z</time></trkpt><trkpt lat="31.8054139707" lon="35.0244940259"><ele>370.73</ele><time>2012-04-06T08:07:47Z</time></trkpt><trkpt lat="31.8055168167" lon="35.0244156551"><ele>369.76</ele><time>2012-04-06T08:07:49Z</time></trkpt><trkpt lat="31.8055601511" lon="35.0243781041"><ele>369.28</ele><time>2012-04-06T08:07:50Z</time></trkpt><trkpt lat="31.8056001328" lon="35.0243475940"><ele>368.80</ele><time>2012-04-06T08:07:51Z</time></trkpt><trkpt lat="31.8056423776" lon="35.0243213587"><ele>367.84</ele><time>2012-04-06T08:07:52Z</time></trkpt><trkpt lat="31.8058966845" lon="35.0242001563"><ele>364.48</ele><time>2012-04-06T08:07:57Z</time></trkpt><trkpt lat="31.8059852812" lon="35.0241571572"><ele>363.52</ele><time>2012-04-06T08:07:59Z</time></trkpt><trkpt lat="31.8061321322" lon="35.0241044350"><ele>361.59</ele><time>2012-04-06T08:08:02Z</time></trkpt><trkpt lat="31.8062224891" lon="35.0240789540"><ele>361.11</ele><time>2012-04-06T08:08:04Z</time></trkpt><trkpt lat="31.8063123431" lon="35.0240786187"><ele>360.15</ele><time>2012-04-06T08:08:06Z</time></trkpt><trkpt lat="31.8063648138" lon="35.0240783673"><ele>359.19</ele><time>2012-04-06T08:08:07Z</time></trkpt><trkpt lat="31.8064261694" lon="35.0240632799"><ele>358.23</ele><time>2012-04-06T08:08:08Z</time></trkpt><trkpt lat="31.8064923026" lon="35.0240328535"><ele>357.27</ele><time>2012-04-06T08:08:09Z</time></trkpt><trkpt lat="31.8065611180" lon="35.0239956379"><ele>356.79</ele><time>2012-04-06T08:08:10Z</time></trkpt><trkpt lat="31.8069215398" lon="35.0237753615"><ele>353.90</ele><time>2012-04-06T08:08:15Z</time></trkpt><trkpt lat="31.8069914449" lon="35.0237267464"><ele>353.42</ele><time>2012-04-06T08:08:16Z</time></trkpt><trkpt lat="31.8071766850" lon="35.0235752016"><ele>351.50</ele><time>2012-04-06T08:08:19Z</time></trkpt><trkpt lat="31.8072319217" lon="35.0235145167"><ele>351.02</ele><time>2012-04-06T08:08:20Z</time></trkpt><trkpt lat="31.8074532039" lon="35.0232862774"><ele>347.17</ele><time>2012-04-06T08:08:24Z</time></trkpt><trkpt lat="31.8076236919" lon="35.0231265184"><ele>343.33</ele><time>2012-04-06T08:08:27Z</time></trkpt><trkpt lat="31.8077966943" lon="35.0229614787"><ele>339.48</ele><time>2012-04-06T08:08:30Z</time></trkpt><trkpt lat="31.8080049846" lon="35.0227575470"><ele>335.64</ele><time>2012-04-06T08:08:33Z</time></trkpt><trkpt lat="31.8082666676" lon="35.0225373544"><ele>332.27</ele><time>2012-04-06T08:08:37Z</time></trkpt><trkpt lat="31.8085745350" lon="35.0222677924"><ele>329.39</ele><time>2012-04-06T08:08:42Z</time></trkpt><trkpt lat="31.8087124173" lon="35.0221170858"><ele>327.47</ele><time>2012-04-06T08:08:45Z</time></trkpt><trkpt lat="31.8087562546" lon="35.0220735837"><ele>327.47</ele><time>2012-04-06T08:08:46Z</time></trkpt><trkpt lat="31.8087995891" lon="35.0220274832"><ele>326.99</ele><time>2012-04-06T08:08:47Z</time></trkpt><trkpt lat="31.8088411633" lon="35.0219762698"><ele>326.99</ele><time>2012-04-06T08:08:48Z</time></trkpt><trkpt lat="31.8088803906" lon="35.0219199434"><ele>326.50</ele><time>2012-04-06T08:08:49Z</time></trkpt><trkpt lat="31.8089663051" lon="35.0217927061"><ele>326.02</ele><time>2012-04-06T08:08:51Z</time></trkpt><trkpt lat="31.8092127331" lon="35.0213128421"><ele>322.66</ele><time>2012-04-06T08:08:57Z</time></trkpt><trkpt lat="31.8093631044" lon="35.0207595527"><ele>319.30</ele><time>2012-04-06T08:09:04Z</time></trkpt><trkpt lat="31.8093911000" lon="35.0206894800"><ele>319.78</ele><time>2012-04-06T08:09:05Z</time></trkpt><trkpt lat="31.8094109651" lon="35.0206212513"><ele>319.30</ele><time>2012-04-06T08:09:06Z</time></trkpt><trkpt lat="31.8094243761" lon="35.0205564592"><ele>318.81</ele><time>2012-04-06T08:09:07Z</time></trkpt><trkpt lat="31.8094348535" lon="35.0204985403"><ele>318.33</ele><time>2012-04-06T08:09:08Z</time></trkpt><trkpt lat="31.8094466720" lon="35.0204443932"><ele>318.33</ele><time>2012-04-06T08:09:09Z</time></trkpt><trkpt lat="31.8094923533" lon="35.0202983804"><ele>316.89</ele><time>2012-04-06T08:09:13Z</time></trkpt><trkpt lat="31.8095107097" lon="35.0202904176"><ele>316.41</ele><time>2012-04-06T08:09:14Z</time></trkpt><trkpt lat="31.8095394596" lon="35.0202885736"><ele>316.41</ele><time>2012-04-06T08:09:15Z</time></trkpt><trkpt lat="31.8095689639" lon="35.0202936865"><ele>315.93</ele><time>2012-04-06T08:09:16Z</time></trkpt><trkpt lat="31.8095905893" lon="35.0203045830"><ele>315.93</ele><time>2012-04-06T08:09:17Z</time></trkpt><trkpt lat="31.8096043356" lon="35.0203229394"><ele>315.45</ele><time>2012-04-06T08:09:18Z</time></trkpt><trkpt lat="31.8096129689" lon="35.0203436427"><ele>315.45</ele><time>2012-04-06T08:09:19Z</time></trkpt><trkpt lat="31.8096175790" lon="35.0203633402"><ele>315.93</ele><time>2012-04-06T08:09:20Z</time></trkpt><trkpt lat="31.8096210994" lon="35.0203801040"><ele>315.93</ele><time>2012-04-06T08:09:21Z</time></trkpt><trkpt lat="31.8096197583" lon="35.0203987118"><ele>315.93</ele><time>2012-04-06T08:09:22Z</time></trkpt><trkpt lat="31.8096170761" lon="35.0204169843"><ele>316.41</ele><time>2012-04-06T08:09:23Z</time></trkpt><trkpt lat="31.8096154835" lon="35.0204332452"><ele>316.89</ele><time>2012-04-06T08:09:24Z</time></trkpt><trkpt lat="31.8096242007" lon="35.0204545353"><ele>316.89</ele><time>2012-04-06T08:09:26Z</time></trkpt><trkpt lat="31.8096226919" lon="35.0204701256"><ele>316.89</ele><time>2012-04-06T08:09:27Z</time></trkpt><trkpt lat="31.8096143100" lon="35.0204796810"><ele>316.89</ele><time>2012-04-06T08:09:28Z</time></trkpt><trkpt lat="31.8096132204" lon="35.0204817764"><ele>316.41</ele><time>2012-04-06T08:09:40Z</time></trkpt><trkpt lat="31.8096147291" lon="35.0204794295"><ele>316.41</ele><time>2012-04-06T08:10:00Z</time></trkpt><trkpt lat="31.8096218538" lon="35.0204739813"><ele>316.89</ele><time>2012-04-06T08:10:23Z</time></trkpt><trkpt lat="31.8096284755" lon="35.0204614084"><ele>316.41</ele><time>2012-04-06T08:10:48Z</time></trkpt><trkpt lat="31.8096318282" lon="35.0204621628"><ele>316.89</ele><time>2012-04-06T08:11:07Z</time></trkpt><trkpt lat="31.8096392881" lon="35.0204639230"><ele>316.41</ele><time>2012-04-06T08:11:27Z</time></trkpt><trkpt lat="31.8096526992" lon="35.0204738136"><ele>316.41</ele><time>2012-04-06T08:11:52Z</time></trkpt><trkpt lat="31.8096594047" lon="35.0204761606"><ele>316.41</ele><time>2012-04-06T08:12:15Z</time></trkpt><trkpt lat="31.8096640147" lon="35.0204746518"><ele>315.93</ele><time>2012-04-06T08:12:36Z</time></trkpt><trkpt lat="31.8096727319" lon="35.0204696227"><ele>315.93</ele><time>2012-04-06T08:12:57Z</time></trkpt><trkpt lat="31.8096750788" lon="35.0204605702"><ele>316.41</ele><time>2012-04-06T08:13:18Z</time></trkpt><trkpt lat="31.8096785154" lon="35.0204581395"><ele>316.41</ele><time>2012-04-06T08:13:43Z</time></trkpt><trkpt lat="31.8096775096" lon="35.0204604864"><ele>315.93</ele><time>2012-04-06T08:14:07Z</time></trkpt><trkpt lat="31.8096696306" lon="35.0204514340"><ele>315.93</ele><time>2012-04-06T08:14:33Z</time></trkpt><trkpt lat="31.8096635956" lon="35.0204528589"><ele>315.93</ele><time>2012-04-06T08:14:57Z</time></trkpt><trkpt lat="31.8096664455" lon="35.0204507634"><ele>315.93</ele><time>2012-04-06T08:15:24Z</time></trkpt><trkpt lat="31.8096671999" lon="35.0204487517"><ele>315.93</ele><time>2012-04-06T08:15:47Z</time></trkpt><trkpt lat="31.8096671160" lon="35.0204531103"><ele>315.93</ele><time>2012-04-06T08:16:11Z</time></trkpt><trkpt lat="31.8096703012" lon="35.0204583071"><ele>316.41</ele><time>2012-04-06T08:16:39Z</time></trkpt><trkpt lat="31.8096619193" lon="35.0204346702"><ele>315.93</ele><time>2012-04-06T08:17:04Z</time></trkpt><trkpt lat="31.8096628413" lon="35.0204314012"><ele>315.93</ele><time>2012-04-06T08:17:28Z</time></trkpt><trkpt lat="31.8096689600" lon="35.0204355083"><ele>315.93</ele><time>2012-04-06T08:17:53Z</time></trkpt><trkpt lat="31.8096748274" lon="35.0204358436"><ele>315.93</ele><time>2012-04-06T08:18:20Z</time></trkpt><trkpt lat="31.8096830416" lon="35.0204483327"><ele>315.93</ele><time>2012-04-06T08:18:50Z</time></trkpt><trkpt lat="31.8096849695" lon="35.0204294734"><ele>315.93</ele><time>2012-04-06T08:19:20Z</time></trkpt><trkpt lat="31.8096756656" lon="35.0204370171"><ele>315.93</ele><time>2012-04-06T08:19:44Z</time></trkpt><trkpt lat="31.8096630927" lon="35.0204435550"><ele>315.93</ele><time>2012-04-06T08:20:09Z</time></trkpt><trkpt lat="31.8096663617" lon="35.0204567984"><ele>315.93</ele><time>2012-04-06T08:20:37Z</time></trkpt><trkpt lat="31.8096620031" lon="35.0204542000"><ele>315.93</ele><time>2012-04-06T08:20:59Z</time></trkpt><trkpt lat="31.8096609972" lon="35.0204548705"><ele>315.93</ele><time>2012-04-06T08:21:17Z</time></trkpt><trkpt lat="31.8096623383" lon="35.0204671081"><ele>315.45</ele><time>2012-04-06T08:21:47Z</time></trkpt><trkpt lat="31.8096636795" lon="35.0204756577"><ele>315.93</ele><time>2012-04-06T08:22:13Z</time></trkpt><trkpt lat="31.8096703850" lon="35.0204792619"><ele>315.93</ele><time>2012-04-06T08:22:41Z</time></trkpt><trkpt lat="31.8096752465" lon="35.0204743166"><ele>315.45</ele><time>2012-04-06T08:23:14Z</time></trkpt><trkpt lat="31.8096664455" lon="35.0204692036"><ele>315.93</ele><time>2012-04-06T08:23:36Z</time></trkpt><trkpt lat="31.8096527830" lon="35.0204568822"><ele>314.97</ele><time>2012-04-06T08:23:57Z</time></trkpt><trkpt lat="31.8096519448" lon="35.0204551220"><ele>314.97</ele><time>2012-04-06T08:24:22Z</time></trkpt><trkpt lat="31.8096454907" lon="35.0204614084"><ele>314.49</ele><time>2012-04-06T08:24:43Z</time></trkpt><trkpt lat="31.8096505199" lon="35.0204697903"><ele>315.93</ele><time>2012-04-06T08:25:03Z</time></trkpt><trkpt lat="31.8096521962" lon="35.0204742327"><ele>315.45</ele><time>2012-04-06T08:25:16Z</time></trkpt></trkseg></trk></gpx>